<?xml version="1.0" encoding="UTF-8" standalone="no" ?>
<gpx xmlns="http://www.topografix.com/GPX/1/1" xmlns:xsi="http://www.w3.org/2001/XMLSchema-instance" xsi:schemaLocation="http://www.topografix.com/GPX/1/1 http://www.topografix.com/GPX/1/1/gpx.xsd" version="1.1" creator="VisuGPX - https://www.visugpx.com">
  <metadata>
    <name> Chorges Reallon par GR 50 retour par St Appo</name>
    <desc><![CDATA[Magnifique balcon sur Serre Ponçon longue montée jusqu'à Nauze Raze par petite route puis le GR50  par piste forestière dans superbe forêt d?épicéas puis de mélèzes vue magnifique sur le lac , la chaine  entre Durance et Ubaye , les vallées , le Piolit et les aiguilles de Chabrieres
Amateurs de monotraces casses bécanes fuyez , amateurs de balades paisibles , c'est pour vous]]></desc>
  </metadata>
  <trk>
    <name><![CDATA[N°   Chorges Reallon par GR 50 retour par St Appo]]></name>
    <trkseg>
      <trkpt lat="44.5467" lon="6.2708">
        <ele>786</ele>
        <time>2019-06-02T08:14:19Z</time>
      </trkpt>
      <trkpt lat="44.54669" lon="6.2708">
        <ele>786</ele>
        <time>2019-06-02T08:14:24Z</time>
      </trkpt>
      <trkpt lat="44.54647" lon="6.27067">
        <ele>786</ele>
        <time>2019-06-02T08:14:34Z</time>
      </trkpt>
      <trkpt lat="44.54644" lon="6.27067">
        <ele>786</ele>
        <time>2019-06-02T08:14:35Z</time>
      </trkpt>
      <trkpt lat="44.54639" lon="6.27071">
        <ele>786</ele>
        <time>2019-06-02T08:14:37Z</time>
      </trkpt>
      <trkpt lat="44.54636" lon="6.27075">
        <ele>786</ele>
        <time>2019-06-02T08:14:38Z</time>
      </trkpt>
      <trkpt lat="44.54634" lon="6.2708">
        <ele>786</ele>
        <time>2019-06-02T08:14:39Z</time>
      </trkpt>
      <trkpt lat="44.54621" lon="6.27115">
        <ele>785.7999878</ele>
        <time>2019-06-02T08:14:45Z</time>
      </trkpt>
      <trkpt lat="44.5462" lon="6.27121">
        <ele>785.7999878</ele>
        <time>2019-06-02T08:14:46Z</time>
      </trkpt>
      <trkpt lat="44.54619" lon="6.27127">
        <ele>785.7999878</ele>
        <time>2019-06-02T08:14:47Z</time>
      </trkpt>
      <trkpt lat="44.54619" lon="6.27133">
        <ele>785.7999878</ele>
        <time>2019-06-02T08:14:48Z</time>
      </trkpt>
      <trkpt lat="44.54619" lon="6.27139">
        <ele>785.7999878</ele>
        <time>2019-06-02T08:14:49Z</time>
      </trkpt>
      <trkpt lat="44.5462" lon="6.27145">
        <ele>785.7999878</ele>
        <time>2019-06-02T08:14:50Z</time>
      </trkpt>
      <trkpt lat="44.5462" lon="6.27151">
        <ele>785.7999878</ele>
        <time>2019-06-02T08:14:51Z</time>
      </trkpt>
      <trkpt lat="44.54621" lon="6.27157">
        <ele>785.7999878</ele>
        <time>2019-06-02T08:14:52Z</time>
      </trkpt>
      <trkpt lat="44.54621" lon="6.27163">
        <ele>785.7999878</ele>
        <time>2019-06-02T08:14:53Z</time>
      </trkpt>
      <trkpt lat="44.54624" lon="6.27204">
        <ele>786.7999878</ele>
        <time>2019-06-02T08:15:05Z</time>
      </trkpt>
      <trkpt lat="44.54626" lon="6.27206">
        <ele>787</ele>
        <time>2019-06-02T08:15:06Z</time>
      </trkpt>
      <trkpt lat="44.54627" lon="6.27207">
        <ele>787.2000122</ele>
        <time>2019-06-02T08:15:07Z</time>
      </trkpt>
      <trkpt lat="44.54629" lon="6.27209">
        <ele>787.4000244</ele>
        <time>2019-06-02T08:15:08Z</time>
      </trkpt>
      <trkpt lat="44.54631" lon="6.27211">
        <ele>787.4000244</ele>
        <time>2019-06-02T08:15:09Z</time>
      </trkpt>
      <trkpt lat="44.54633" lon="6.27213">
        <ele>787.5999756</ele>
        <time>2019-06-02T08:15:10Z</time>
      </trkpt>
      <trkpt lat="44.54636" lon="6.27214">
        <ele>787.5999756</ele>
        <time>2019-06-02T08:15:11Z</time>
      </trkpt>
      <trkpt lat="44.54638" lon="6.27214">
        <ele>787.7999878</ele>
        <time>2019-06-02T08:15:12Z</time>
      </trkpt>
      <trkpt lat="44.54641" lon="6.27213">
        <ele>787.7999878</ele>
        <time>2019-06-02T08:15:13Z</time>
      </trkpt>
      <trkpt lat="44.54645" lon="6.27213">
        <ele>787.7999878</ele>
        <time>2019-06-02T08:15:15Z</time>
      </trkpt>
      <trkpt lat="44.54648" lon="6.27215">
        <ele>787.7999878</ele>
        <time>2019-06-02T08:15:16Z</time>
      </trkpt>
      <trkpt lat="44.5465" lon="6.27217">
        <ele>788</ele>
        <time>2019-06-02T08:15:17Z</time>
      </trkpt>
      <trkpt lat="44.54651" lon="6.2722">
        <ele>788</ele>
        <time>2019-06-02T08:15:18Z</time>
      </trkpt>
      <trkpt lat="44.54651" lon="6.27224">
        <ele>788</ele>
        <time>2019-06-02T08:15:19Z</time>
      </trkpt>
      <trkpt lat="44.54651" lon="6.27227">
        <ele>788.2000122</ele>
        <time>2019-06-02T08:15:20Z</time>
      </trkpt>
      <trkpt lat="44.5465" lon="6.27231">
        <ele>788.2000122</ele>
        <time>2019-06-02T08:15:21Z</time>
      </trkpt>
      <trkpt lat="44.54649" lon="6.27236">
        <ele>788.2000122</ele>
        <time>2019-06-02T08:15:22Z</time>
      </trkpt>
      <trkpt lat="44.54633" lon="6.2729">
        <ele>788.5999756</ele>
        <time>2019-06-02T08:15:33Z</time>
      </trkpt>
      <trkpt lat="44.54611" lon="6.27356">
        <ele>789.4000244</ele>
        <time>2019-06-02T08:15:47Z</time>
      </trkpt>
      <trkpt lat="44.54589" lon="6.27425">
        <ele>790.4000244</ele>
        <time>2019-06-02T08:16:03Z</time>
      </trkpt>
      <trkpt lat="44.54582" lon="6.27487">
        <ele>792</ele>
        <time>2019-06-02T08:16:20Z</time>
      </trkpt>
      <trkpt lat="44.54583" lon="6.27489">
        <ele>792.2000122</ele>
        <time>2019-06-02T08:16:21Z</time>
      </trkpt>
      <trkpt lat="44.54612" lon="6.27518">
        <ele>793</ele>
        <time>2019-06-02T08:16:34Z</time>
      </trkpt>
      <trkpt lat="44.54632" lon="6.27556">
        <ele>794.4000244</ele>
        <time>2019-06-02T08:16:47Z</time>
      </trkpt>
      <trkpt lat="44.54635" lon="6.27561">
        <ele>795.5999756</ele>
        <time>2019-06-02T08:16:59Z</time>
      </trkpt>
      <trkpt lat="44.5464" lon="6.27593">
        <ele>795.5999756</ele>
        <time>2019-06-02T08:17:23Z</time>
      </trkpt>
      <trkpt lat="44.54633" lon="6.27656">
        <ele>796</ele>
        <time>2019-06-02T08:17:37Z</time>
      </trkpt>
      <trkpt lat="44.54631" lon="6.27692">
        <ele>796.5999756</ele>
        <time>2019-06-02T08:17:47Z</time>
      </trkpt>
      <trkpt lat="44.54633" lon="6.27694">
        <ele>796.5999756</ele>
        <time>2019-06-02T08:17:48Z</time>
      </trkpt>
      <trkpt lat="44.54636" lon="6.27697">
        <ele>796.7999878</ele>
        <time>2019-06-02T08:17:49Z</time>
      </trkpt>
      <trkpt lat="44.54676" lon="6.27725">
        <ele>797.5999756</ele>
        <time>2019-06-02T08:18:02Z</time>
      </trkpt>
      <trkpt lat="44.54715" lon="6.27762">
        <ele>799</ele>
        <time>2019-06-02T08:18:16Z</time>
      </trkpt>
      <trkpt lat="44.54731" lon="6.27777">
        <ele>799.7999878</ele>
        <time>2019-06-02T08:18:23Z</time>
      </trkpt>
      <trkpt lat="44.54734" lon="6.27776">
        <ele>800</ele>
        <time>2019-06-02T08:18:24Z</time>
      </trkpt>
      <trkpt lat="44.54736" lon="6.27775">
        <ele>800</ele>
        <time>2019-06-02T08:18:25Z</time>
      </trkpt>
      <trkpt lat="44.54738" lon="6.27772">
        <ele>800.2000122</ele>
        <time>2019-06-02T08:18:26Z</time>
      </trkpt>
      <trkpt lat="44.5474" lon="6.27769">
        <ele>800.2000122</ele>
        <time>2019-06-02T08:18:27Z</time>
      </trkpt>
      <trkpt lat="44.54743" lon="6.27766">
        <ele>800.4000244</ele>
        <time>2019-06-02T08:18:28Z</time>
      </trkpt>
      <trkpt lat="44.54791" lon="6.27728">
        <ele>801</ele>
        <time>2019-06-02T08:18:43Z</time>
      </trkpt>
      <trkpt lat="44.54854" lon="6.27733">
        <ele>804</ele>
        <time>2019-06-02T08:19:00Z</time>
      </trkpt>
      <trkpt lat="44.54917" lon="6.27748">
        <ele>806.2000122</ele>
        <time>2019-06-02T08:19:17Z</time>
      </trkpt>
      <trkpt lat="44.54958" lon="6.27769">
        <ele>809.2000122</ele>
        <time>2019-06-02T08:19:29Z</time>
      </trkpt>
      <trkpt lat="44.55011" lon="6.27788">
        <ele>812</ele>
        <time>2019-06-02T08:19:44Z</time>
      </trkpt>
      <trkpt lat="44.55062" lon="6.27801">
        <ele>815.2000122</ele>
        <time>2019-06-02T08:19:58Z</time>
      </trkpt>
      <trkpt lat="44.55123" lon="6.27826">
        <ele>818.4000244</ele>
        <time>2019-06-02T08:20:16Z</time>
      </trkpt>
      <trkpt lat="44.5518" lon="6.27826">
        <ele>821.4000244</ele>
        <time>2019-06-02T08:20:31Z</time>
      </trkpt>
      <trkpt lat="44.55236" lon="6.27837">
        <ele>824.4000244</ele>
        <time>2019-06-02T08:20:47Z</time>
      </trkpt>
      <trkpt lat="44.55283" lon="6.27857">
        <ele>827.5999756</ele>
        <time>2019-06-02T08:21:01Z</time>
      </trkpt>
      <trkpt lat="44.55315" lon="6.27866">
        <ele>830.7999878</ele>
        <time>2019-06-02T08:21:11Z</time>
      </trkpt>
      <trkpt lat="44.55353" lon="6.27875">
        <ele>833.7999878</ele>
        <time>2019-06-02T08:21:23Z</time>
      </trkpt>
      <trkpt lat="44.55385" lon="6.27893">
        <ele>836.7999878</ele>
        <time>2019-06-02T08:21:34Z</time>
      </trkpt>
      <trkpt lat="44.55417" lon="6.27932">
        <ele>840</ele>
        <time>2019-06-02T08:21:47Z</time>
      </trkpt>
      <trkpt lat="44.55443" lon="6.27964">
        <ele>843.4000244</ele>
        <time>2019-06-02T08:21:58Z</time>
      </trkpt>
      <trkpt lat="44.5547" lon="6.27993">
        <ele>846.4000244</ele>
        <time>2019-06-02T08:22:09Z</time>
      </trkpt>
      <trkpt lat="44.55497" lon="6.28014">
        <ele>849.5999756</ele>
        <time>2019-06-02T08:22:19Z</time>
      </trkpt>
      <trkpt lat="44.55539" lon="6.28003">
        <ele>852.5999756</ele>
        <time>2019-06-02T08:22:33Z</time>
      </trkpt>
      <trkpt lat="44.55561" lon="6.27958">
        <ele>855.7999878</ele>
        <time>2019-06-02T08:22:45Z</time>
      </trkpt>
      <trkpt lat="44.55581" lon="6.27905">
        <ele>859</ele>
        <time>2019-06-02T08:22:59Z</time>
      </trkpt>
      <trkpt lat="44.55603" lon="6.27859">
        <ele>862.2000122</ele>
        <time>2019-06-02T08:23:12Z</time>
      </trkpt>
      <trkpt lat="44.55623" lon="6.27812">
        <ele>865.4000244</ele>
        <time>2019-06-02T08:23:25Z</time>
      </trkpt>
      <trkpt lat="44.55639" lon="6.27766">
        <ele>868.5999756</ele>
        <time>2019-06-02T08:23:37Z</time>
      </trkpt>
      <trkpt lat="44.55653" lon="6.27711">
        <ele>871.7999878</ele>
        <time>2019-06-02T08:23:51Z</time>
      </trkpt>
      <trkpt lat="44.55643" lon="6.27662">
        <ele>874.7999878</ele>
        <time>2019-06-02T08:24:03Z</time>
      </trkpt>
      <trkpt lat="44.55653" lon="6.27605">
        <ele>877.7999878</ele>
        <time>2019-06-02T08:24:17Z</time>
      </trkpt>
      <trkpt lat="44.55651" lon="6.27555">
        <ele>880.7999878</ele>
        <time>2019-06-02T08:24:29Z</time>
      </trkpt>
      <trkpt lat="44.55647" lon="6.27503">
        <ele>884.2000122</ele>
        <time>2019-06-02T08:24:43Z</time>
      </trkpt>
      <trkpt lat="44.55642" lon="6.27447">
        <ele>887.4000244</ele>
        <time>2019-06-02T08:24:58Z</time>
      </trkpt>
      <trkpt lat="44.55644" lon="6.27407">
        <ele>890.4000244</ele>
        <time>2019-06-02T08:25:09Z</time>
      </trkpt>
      <trkpt lat="44.55664" lon="6.27353">
        <ele>893.5999756</ele>
        <time>2019-06-02T08:25:25Z</time>
      </trkpt>
      <trkpt lat="44.55678" lon="6.27325">
        <ele>896.4000244</ele>
        <time>2019-06-02T08:25:34Z</time>
      </trkpt>
      <trkpt lat="44.55695" lon="6.27287">
        <ele>899.5999756</ele>
        <time>2019-06-02T08:25:46Z</time>
      </trkpt>
      <trkpt lat="44.55706" lon="6.27245">
        <ele>902.5999756</ele>
        <time>2019-06-02T08:25:58Z</time>
      </trkpt>
      <trkpt lat="44.55717" lon="6.2719">
        <ele>905.7999878</ele>
        <time>2019-06-02T08:26:13Z</time>
      </trkpt>
      <trkpt lat="44.55741" lon="6.27162">
        <ele>908.7999878</ele>
        <time>2019-06-02T08:26:25Z</time>
      </trkpt>
      <trkpt lat="44.55773" lon="6.27136">
        <ele>912</ele>
        <time>2019-06-02T08:26:39Z</time>
      </trkpt>
      <trkpt lat="44.55802" lon="6.27111">
        <ele>915.2000122</ele>
        <time>2019-06-02T08:26:52Z</time>
      </trkpt>
      <trkpt lat="44.55825" lon="6.27086">
        <ele>918.2000122</ele>
        <time>2019-06-02T08:27:03Z</time>
      </trkpt>
      <trkpt lat="44.5585" lon="6.27061">
        <ele>921.5999756</ele>
        <time>2019-06-02T08:27:15Z</time>
      </trkpt>
      <trkpt lat="44.55876" lon="6.27033">
        <ele>924.5999756</ele>
        <time>2019-06-02T08:27:28Z</time>
      </trkpt>
      <trkpt lat="44.55904" lon="6.27007">
        <ele>928</ele>
        <time>2019-06-02T08:27:41Z</time>
      </trkpt>
      <trkpt lat="44.55933" lon="6.26993">
        <ele>931</ele>
        <time>2019-06-02T08:27:53Z</time>
      </trkpt>
      <trkpt lat="44.55958" lon="6.26992">
        <ele>934</ele>
        <time>2019-06-02T08:28:03Z</time>
      </trkpt>
      <trkpt lat="44.55959" lon="6.26996">
        <ele>934.2000122</ele>
        <time>2019-06-02T08:28:04Z</time>
      </trkpt>
      <trkpt lat="44.55959" lon="6.27">
        <ele>934.5999756</ele>
        <time>2019-06-02T08:28:05Z</time>
      </trkpt>
      <trkpt lat="44.55959" lon="6.27004">
        <ele>934.7999878</ele>
        <time>2019-06-02T08:28:06Z</time>
      </trkpt>
      <trkpt lat="44.55958" lon="6.27007">
        <ele>935</ele>
        <time>2019-06-02T08:28:07Z</time>
      </trkpt>
      <trkpt lat="44.55957" lon="6.27011">
        <ele>935.4000244</ele>
        <time>2019-06-02T08:28:08Z</time>
      </trkpt>
      <trkpt lat="44.55956" lon="6.27014">
        <ele>935.5999756</ele>
        <time>2019-06-02T08:28:09Z</time>
      </trkpt>
      <trkpt lat="44.55955" lon="6.27018">
        <ele>935.7999878</ele>
        <time>2019-06-02T08:28:10Z</time>
      </trkpt>
      <trkpt lat="44.55954" lon="6.27021">
        <ele>936</ele>
        <time>2019-06-02T08:28:11Z</time>
      </trkpt>
      <trkpt lat="44.55953" lon="6.27025">
        <ele>936.4000244</ele>
        <time>2019-06-02T08:28:12Z</time>
      </trkpt>
      <trkpt lat="44.5595" lon="6.27062">
        <ele>939.5999756</ele>
        <time>2019-06-02T08:28:22Z</time>
      </trkpt>
      <trkpt lat="44.55961" lon="6.27091">
        <ele>942.7999878</ele>
        <time>2019-06-02T08:28:31Z</time>
      </trkpt>
      <trkpt lat="44.55977" lon="6.27125">
        <ele>946.2000122</ele>
        <time>2019-06-02T08:28:42Z</time>
      </trkpt>
      <trkpt lat="44.5599" lon="6.27156">
        <ele>949.2000122</ele>
        <time>2019-06-02T08:28:52Z</time>
      </trkpt>
      <trkpt lat="44.56006" lon="6.27208">
        <ele>952.4000244</ele>
        <time>2019-06-02T08:29:07Z</time>
      </trkpt>
      <trkpt lat="44.56003" lon="6.2725">
        <ele>955.2000122</ele>
        <time>2019-06-02T08:29:19Z</time>
      </trkpt>
      <trkpt lat="44.55995" lon="6.27289">
        <ele>958.2000122</ele>
        <time>2019-06-02T08:29:30Z</time>
      </trkpt>
      <trkpt lat="44.5599" lon="6.2733">
        <ele>961.4000244</ele>
        <time>2019-06-02T08:29:41Z</time>
      </trkpt>
      <trkpt lat="44.55981" lon="6.27363">
        <ele>964.5999756</ele>
        <time>2019-06-02T08:29:51Z</time>
      </trkpt>
      <trkpt lat="44.55969" lon="6.27403">
        <ele>967.7999878</ele>
        <time>2019-06-02T08:30:03Z</time>
      </trkpt>
      <trkpt lat="44.55972" lon="6.27437">
        <ele>971</ele>
        <time>2019-06-02T08:30:12Z</time>
      </trkpt>
      <trkpt lat="44.55985" lon="6.2749">
        <ele>974.2000122</ele>
        <time>2019-06-02T08:30:28Z</time>
      </trkpt>
      <trkpt lat="44.55991" lon="6.27533">
        <ele>976.7999878</ele>
        <time>2019-06-02T08:30:41Z</time>
      </trkpt>
      <trkpt lat="44.55999" lon="6.27576">
        <ele>979.7999878</ele>
        <time>2019-06-02T08:30:54Z</time>
      </trkpt>
      <trkpt lat="44.56004" lon="6.27625">
        <ele>983</ele>
        <time>2019-06-02T08:31:09Z</time>
      </trkpt>
      <trkpt lat="44.56009" lon="6.27658">
        <ele>986.2000122</ele>
        <time>2019-06-02T08:31:19Z</time>
      </trkpt>
      <trkpt lat="44.56031" lon="6.27698">
        <ele>989.2000122</ele>
        <time>2019-06-02T08:31:34Z</time>
      </trkpt>
      <trkpt lat="44.56058" lon="6.27736">
        <ele>992.4000244</ele>
        <time>2019-06-02T08:31:50Z</time>
      </trkpt>
      <trkpt lat="44.56088" lon="6.27753">
        <ele>995.4000244</ele>
        <time>2019-06-02T08:32:04Z</time>
      </trkpt>
      <trkpt lat="44.56117" lon="6.27767">
        <ele>998.5999756</ele>
        <time>2019-06-02T08:32:17Z</time>
      </trkpt>
      <trkpt lat="44.56156" lon="6.2779">
        <ele>1001.7999878</ele>
        <time>2019-06-02T08:32:35Z</time>
      </trkpt>
      <trkpt lat="44.56189" lon="6.27806">
        <ele>1005</ele>
        <time>2019-06-02T08:32:50Z</time>
      </trkpt>
      <trkpt lat="44.56206" lon="6.27841">
        <ele>1008</ele>
        <time>2019-06-02T08:33:03Z</time>
      </trkpt>
      <trkpt lat="44.56211" lon="6.27876">
        <ele>1011.2000122</ele>
        <time>2019-06-02T08:33:14Z</time>
      </trkpt>
      <trkpt lat="44.56213" lon="6.27922">
        <ele>1014.2000122</ele>
        <time>2019-06-02T08:33:28Z</time>
      </trkpt>
      <trkpt lat="44.56214" lon="6.27966">
        <ele>1017.4000244</ele>
        <time>2019-06-02T08:33:42Z</time>
      </trkpt>
      <trkpt lat="44.56216" lon="6.28004">
        <ele>1020.4000244</ele>
        <time>2019-06-02T08:33:54Z</time>
      </trkpt>
      <trkpt lat="44.56219" lon="6.28047">
        <ele>1023.5999756</ele>
        <time>2019-06-02T08:34:07Z</time>
      </trkpt>
      <trkpt lat="44.5621" lon="6.28097">
        <ele>1026.8000488</ele>
        <time>2019-06-02T08:34:23Z</time>
      </trkpt>
      <trkpt lat="44.56193" lon="6.28134">
        <ele>1029.8000488</ele>
        <time>2019-06-02T08:34:38Z</time>
      </trkpt>
      <trkpt lat="44.56177" lon="6.28166">
        <ele>1032.4000244</ele>
        <time>2019-06-02T08:34:52Z</time>
      </trkpt>
      <trkpt lat="44.56166" lon="6.28198">
        <ele>1035.5999756</ele>
        <time>2019-06-02T08:35:04Z</time>
      </trkpt>
      <trkpt lat="44.56164" lon="6.28237">
        <ele>1038.5999756</ele>
        <time>2019-06-02T08:35:17Z</time>
      </trkpt>
      <trkpt lat="44.56175" lon="6.28263">
        <ele>1040.4000244</ele>
        <time>2019-06-02T08:35:28Z</time>
      </trkpt>
      <trkpt lat="44.56177" lon="6.28263">
        <ele>1040.4000244</ele>
        <time>2019-06-02T08:35:29Z</time>
      </trkpt>
      <trkpt lat="44.5618" lon="6.28262">
        <ele>1040.5999756</ele>
        <time>2019-06-02T08:35:30Z</time>
      </trkpt>
      <trkpt lat="44.56181" lon="6.2826">
        <ele>1040.8000488</ele>
        <time>2019-06-02T08:35:31Z</time>
      </trkpt>
      <trkpt lat="44.56183" lon="6.28258">
        <ele>1041</ele>
        <time>2019-06-02T08:35:32Z</time>
      </trkpt>
      <trkpt lat="44.56184" lon="6.28256">
        <ele>1041</ele>
        <time>2019-06-02T08:35:33Z</time>
      </trkpt>
      <trkpt lat="44.56185" lon="6.28254">
        <ele>1041.1999512</ele>
        <time>2019-06-02T08:35:34Z</time>
      </trkpt>
      <trkpt lat="44.56187" lon="6.28251">
        <ele>1041.4000244</ele>
        <time>2019-06-02T08:35:35Z</time>
      </trkpt>
      <trkpt lat="44.56188" lon="6.28249">
        <ele>1041.4000244</ele>
        <time>2019-06-02T08:35:36Z</time>
      </trkpt>
      <trkpt lat="44.56189" lon="6.28246">
        <ele>1041.5999756</ele>
        <time>2019-06-02T08:35:37Z</time>
      </trkpt>
      <trkpt lat="44.56217" lon="6.28221">
        <ele>1044.5999756</ele>
        <time>2019-06-02T08:35:52Z</time>
      </trkpt>
      <trkpt lat="44.56248" lon="6.28188">
        <ele>1045.8000488</ele>
        <time>2019-06-02T08:36:08Z</time>
      </trkpt>
      <trkpt lat="44.56286" lon="6.28156">
        <ele>1048.8000488</ele>
        <time>2019-06-02T08:36:27Z</time>
      </trkpt>
      <trkpt lat="44.56324" lon="6.28139">
        <ele>1051.5999756</ele>
        <time>2019-06-02T08:36:44Z</time>
      </trkpt>
      <trkpt lat="44.56354" lon="6.28115">
        <ele>1053.4000244</ele>
        <time>2019-06-02T08:36:59Z</time>
      </trkpt>
      <trkpt lat="44.56382" lon="6.28076">
        <ele>1056.8000488</ele>
        <time>2019-06-02T08:37:16Z</time>
      </trkpt>
      <trkpt lat="44.56395" lon="6.28054">
        <ele>1058.8000488</ele>
        <time>2019-06-02T08:37:25Z</time>
      </trkpt>
      <trkpt lat="44.56396" lon="6.28051">
        <ele>1059</ele>
        <time>2019-06-02T08:37:26Z</time>
      </trkpt>
      <trkpt lat="44.56397" lon="6.28048">
        <ele>1059.1999512</ele>
        <time>2019-06-02T08:37:27Z</time>
      </trkpt>
      <trkpt lat="44.56398" lon="6.28045">
        <ele>1059.1999512</ele>
        <time>2019-06-02T08:37:28Z</time>
      </trkpt>
      <trkpt lat="44.56399" lon="6.28042">
        <ele>1059.4000244</ele>
        <time>2019-06-02T08:37:29Z</time>
      </trkpt>
      <trkpt lat="44.564" lon="6.28039">
        <ele>1059.4000244</ele>
        <time>2019-06-02T08:37:30Z</time>
      </trkpt>
      <trkpt lat="44.56401" lon="6.28037">
        <ele>1059.5999756</ele>
        <time>2019-06-02T08:37:31Z</time>
      </trkpt>
      <trkpt lat="44.56421" lon="6.27995">
        <ele>1062.5999756</ele>
        <time>2019-06-02T08:37:47Z</time>
      </trkpt>
      <trkpt lat="44.56449" lon="6.27953">
        <ele>1065.5999756</ele>
        <time>2019-06-02T08:38:04Z</time>
      </trkpt>
      <trkpt lat="44.56475" lon="6.27925">
        <ele>1067.4000244</ele>
        <time>2019-06-02T08:38:18Z</time>
      </trkpt>
      <trkpt lat="44.56501" lon="6.27898">
        <ele>1069.8000488</ele>
        <time>2019-06-02T08:38:32Z</time>
      </trkpt>
      <trkpt lat="44.56508" lon="6.27891">
        <ele>1070.5999756</ele>
        <time>2019-06-02T08:38:36Z</time>
      </trkpt>
      <trkpt lat="44.5651" lon="6.27889">
        <ele>1071</ele>
        <time>2019-06-02T08:38:37Z</time>
      </trkpt>
      <trkpt lat="44.56512" lon="6.27886">
        <ele>1071.1999512</ele>
        <time>2019-06-02T08:38:38Z</time>
      </trkpt>
      <trkpt lat="44.56514" lon="6.27884">
        <ele>1071.1999512</ele>
        <time>2019-06-02T08:38:39Z</time>
      </trkpt>
      <trkpt lat="44.56516" lon="6.27882">
        <ele>1071.4000244</ele>
        <time>2019-06-02T08:38:40Z</time>
      </trkpt>
      <trkpt lat="44.56517" lon="6.2788">
        <ele>1071.4000244</ele>
        <time>2019-06-02T08:38:41Z</time>
      </trkpt>
      <trkpt lat="44.56536" lon="6.27846">
        <ele>1073.8000488</ele>
        <time>2019-06-02T08:38:54Z</time>
      </trkpt>
      <trkpt lat="44.56544" lon="6.27833">
        <ele>1075</ele>
        <time>2019-06-02T08:39:00Z</time>
      </trkpt>
      <trkpt lat="44.56545" lon="6.2783">
        <ele>1075.1999512</ele>
        <time>2019-06-02T08:39:01Z</time>
      </trkpt>
      <trkpt lat="44.56546" lon="6.27828">
        <ele>1075.4000244</ele>
        <time>2019-06-02T08:39:02Z</time>
      </trkpt>
      <trkpt lat="44.56563" lon="6.27799">
        <ele>1077.4000244</ele>
        <time>2019-06-02T08:39:15Z</time>
      </trkpt>
      <trkpt lat="44.56569" lon="6.27784">
        <ele>1078.4000244</ele>
        <time>2019-06-02T08:39:21Z</time>
      </trkpt>
      <trkpt lat="44.56571" lon="6.27782">
        <ele>1078.5999756</ele>
        <time>2019-06-02T08:39:22Z</time>
      </trkpt>
      <trkpt lat="44.56573" lon="6.27779">
        <ele>1078.5999756</ele>
        <time>2019-06-02T08:39:23Z</time>
      </trkpt>
      <trkpt lat="44.56587" lon="6.27745">
        <ele>1081.1999512</ele>
        <time>2019-06-02T08:39:37Z</time>
      </trkpt>
      <trkpt lat="44.566" lon="6.27705">
        <ele>1083.4000244</ele>
        <time>2019-06-02T08:39:52Z</time>
      </trkpt>
      <trkpt lat="44.5661" lon="6.27659">
        <ele>1085.5999756</ele>
        <time>2019-06-02T08:40:08Z</time>
      </trkpt>
      <trkpt lat="44.56614" lon="6.27608">
        <ele>1088.5999756</ele>
        <time>2019-06-02T08:40:25Z</time>
      </trkpt>
      <trkpt lat="44.56616" lon="6.27558">
        <ele>1091.4000244</ele>
        <time>2019-06-02T08:40:42Z</time>
      </trkpt>
      <trkpt lat="44.56619" lon="6.27512">
        <ele>1093.8000488</ele>
        <time>2019-06-02T08:40:58Z</time>
      </trkpt>
      <trkpt lat="44.56623" lon="6.27456">
        <ele>1096.1999512</ele>
        <time>2019-06-02T08:41:17Z</time>
      </trkpt>
      <trkpt lat="44.56632" lon="6.27408">
        <ele>1099.1999512</ele>
        <time>2019-06-02T08:41:34Z</time>
      </trkpt>
      <trkpt lat="44.56651" lon="6.27359">
        <ele>1102</ele>
        <time>2019-06-02T08:41:53Z</time>
      </trkpt>
      <trkpt lat="44.5667" lon="6.27311">
        <ele>1105</ele>
        <time>2019-06-02T08:42:12Z</time>
      </trkpt>
      <trkpt lat="44.56678" lon="6.27266">
        <ele>1108</ele>
        <time>2019-06-02T08:42:28Z</time>
      </trkpt>
      <trkpt lat="44.56699" lon="6.27219">
        <ele>1111</ele>
        <time>2019-06-02T08:42:47Z</time>
      </trkpt>
      <trkpt lat="44.56723" lon="6.27177">
        <ele>1114</ele>
        <time>2019-06-02T08:43:06Z</time>
      </trkpt>
      <trkpt lat="44.56746" lon="6.27134">
        <ele>1116.1999512</ele>
        <time>2019-06-02T08:43:24Z</time>
      </trkpt>
      <trkpt lat="44.56767" lon="6.27086">
        <ele>1119</ele>
        <time>2019-06-02T08:43:43Z</time>
      </trkpt>
      <trkpt lat="44.56784" lon="6.27037">
        <ele>1121.8000488</ele>
        <time>2019-06-02T08:44:02Z</time>
      </trkpt>
      <trkpt lat="44.56801" lon="6.26982">
        <ele>1125</ele>
        <time>2019-06-02T08:44:23Z</time>
      </trkpt>
      <trkpt lat="44.56824" lon="6.26944">
        <ele>1127.8000488</ele>
        <time>2019-06-02T08:44:40Z</time>
      </trkpt>
      <trkpt lat="44.56853" lon="6.26916">
        <ele>1130.5999756</ele>
        <time>2019-06-02T08:44:58Z</time>
      </trkpt>
      <trkpt lat="44.56895" lon="6.26897">
        <ele>1133.5999756</ele>
        <time>2019-06-02T08:45:19Z</time>
      </trkpt>
      <trkpt lat="44.56928" lon="6.26888">
        <ele>1136.5999756</ele>
        <time>2019-06-02T08:45:36Z</time>
      </trkpt>
      <trkpt lat="44.5696" lon="6.26886">
        <ele>1139</ele>
        <time>2019-06-02T08:45:52Z</time>
      </trkpt>
      <trkpt lat="44.56987" lon="6.26921">
        <ele>1141</ele>
        <time>2019-06-02T08:46:10Z</time>
      </trkpt>
      <trkpt lat="44.56985" lon="6.26977">
        <ele>1143.5999756</ele>
        <time>2019-06-02T08:46:29Z</time>
      </trkpt>
      <trkpt lat="44.56974" lon="6.27026">
        <ele>1146</ele>
        <time>2019-06-02T08:46:47Z</time>
      </trkpt>
      <trkpt lat="44.56951" lon="6.27064">
        <ele>1148.5999756</ele>
        <time>2019-06-02T08:47:04Z</time>
      </trkpt>
      <trkpt lat="44.5693" lon="6.27105">
        <ele>1151.5999756</ele>
        <time>2019-06-02T08:47:21Z</time>
      </trkpt>
      <trkpt lat="44.56918" lon="6.27163">
        <ele>1154.8000488</ele>
        <time>2019-06-02T08:47:42Z</time>
      </trkpt>
      <trkpt lat="44.56917" lon="6.27218">
        <ele>1157.8000488</ele>
        <time>2019-06-02T08:48:01Z</time>
      </trkpt>
      <trkpt lat="44.56905" lon="6.2728">
        <ele>1160.8000488</ele>
        <time>2019-06-02T08:48:23Z</time>
      </trkpt>
      <trkpt lat="44.56901" lon="6.27328">
        <ele>1163.8000488</ele>
        <time>2019-06-02T08:48:40Z</time>
      </trkpt>
      <trkpt lat="44.56913" lon="6.27386">
        <ele>1166.8000488</ele>
        <time>2019-06-02T08:49:01Z</time>
      </trkpt>
      <trkpt lat="44.56916" lon="6.27435">
        <ele>1169.5999756</ele>
        <time>2019-06-02T08:49:18Z</time>
      </trkpt>
      <trkpt lat="44.56898" lon="6.27484">
        <ele>1172.8000488</ele>
        <time>2019-06-02T08:49:37Z</time>
      </trkpt>
      <trkpt lat="44.56879" lon="6.27522">
        <ele>1175.4000244</ele>
        <time>2019-06-02T08:49:53Z</time>
      </trkpt>
      <trkpt lat="44.56872" lon="6.27561">
        <ele>1177.5999756</ele>
        <time>2019-06-02T08:50:07Z</time>
      </trkpt>
      <trkpt lat="44.56868" lon="6.27599">
        <ele>1180</ele>
        <time>2019-06-02T08:50:20Z</time>
      </trkpt>
      <trkpt lat="44.56863" lon="6.27649">
        <ele>1183</ele>
        <time>2019-06-02T08:50:38Z</time>
      </trkpt>
      <trkpt lat="44.56846" lon="6.277">
        <ele>1186</ele>
        <time>2019-06-02T08:50:58Z</time>
      </trkpt>
      <trkpt lat="44.56835" lon="6.2774">
        <ele>1188.5999756</ele>
        <time>2019-06-02T08:51:13Z</time>
      </trkpt>
      <trkpt lat="44.56838" lon="6.27798">
        <ele>1191.5999756</ele>
        <time>2019-06-02T08:51:33Z</time>
      </trkpt>
      <trkpt lat="44.56862" lon="6.27835">
        <ele>1194</ele>
        <time>2019-06-02T08:51:50Z</time>
      </trkpt>
      <trkpt lat="44.56878" lon="6.27879">
        <ele>1195</ele>
        <time>2019-06-02T08:52:06Z</time>
      </trkpt>
      <trkpt lat="44.56894" lon="6.27884">
        <ele>1196</ele>
        <time>2019-06-02T08:52:15Z</time>
      </trkpt>
      <trkpt lat="44.56889" lon="6.27849">
        <ele>1197.4000244</ele>
        <time>2019-06-02T08:52:26Z</time>
      </trkpt>
      <trkpt lat="44.56879" lon="6.27788">
        <ele>1200.1999512</ele>
        <time>2019-06-02T08:52:46Z</time>
      </trkpt>
      <trkpt lat="44.56893" lon="6.27743">
        <ele>1203.1999512</ele>
        <time>2019-06-02T08:53:03Z</time>
      </trkpt>
      <trkpt lat="44.56907" lon="6.27694">
        <ele>1206</ele>
        <time>2019-06-02T08:53:22Z</time>
      </trkpt>
      <trkpt lat="44.56934" lon="6.27676">
        <ele>1208.1999512</ele>
        <time>2019-06-02T08:53:37Z</time>
      </trkpt>
      <trkpt lat="44.56967" lon="6.27671">
        <ele>1211.1999512</ele>
        <time>2019-06-02T08:53:53Z</time>
      </trkpt>
      <trkpt lat="44.57009" lon="6.27664">
        <ele>1214.1999512</ele>
        <time>2019-06-02T08:54:13Z</time>
      </trkpt>
      <trkpt lat="44.57045" lon="6.27647">
        <ele>1217.4000244</ele>
        <time>2019-06-02T08:54:32Z</time>
      </trkpt>
      <trkpt lat="44.57073" lon="6.27618">
        <ele>1220</ele>
        <time>2019-06-02T08:54:49Z</time>
      </trkpt>
      <trkpt lat="44.57096" lon="6.27578">
        <ele>1222.5999756</ele>
        <time>2019-06-02T08:55:07Z</time>
      </trkpt>
      <trkpt lat="44.57119" lon="6.27536">
        <ele>1225.5999756</ele>
        <time>2019-06-02T08:55:26Z</time>
      </trkpt>
      <trkpt lat="44.57148" lon="6.27504">
        <ele>1227.5999756</ele>
        <time>2019-06-02T08:55:44Z</time>
      </trkpt>
      <trkpt lat="44.57171" lon="6.27465">
        <ele>1230.4000244</ele>
        <time>2019-06-02T08:56:01Z</time>
      </trkpt>
      <trkpt lat="44.57194" lon="6.27422">
        <ele>1233.1999512</ele>
        <time>2019-06-02T08:56:20Z</time>
      </trkpt>
      <trkpt lat="44.57214" lon="6.27384">
        <ele>1235.8000488</ele>
        <time>2019-06-02T08:56:36Z</time>
      </trkpt>
      <trkpt lat="44.57238" lon="6.27338">
        <ele>1237.5999756</ele>
        <time>2019-06-02T08:56:54Z</time>
      </trkpt>
      <trkpt lat="44.57269" lon="6.27276">
        <ele>1238.1999512</ele>
        <time>2019-06-02T08:57:15Z</time>
      </trkpt>
      <trkpt lat="44.57294" lon="6.27234">
        <ele>1241.1999512</ele>
        <time>2019-06-02T08:57:32Z</time>
      </trkpt>
      <trkpt lat="44.57317" lon="6.27187">
        <ele>1244.4000244</ele>
        <time>2019-06-02T08:57:51Z</time>
      </trkpt>
      <trkpt lat="44.57346" lon="6.27147">
        <ele>1247.4000244</ele>
        <time>2019-06-02T08:58:10Z</time>
      </trkpt>
      <trkpt lat="44.57384" lon="6.27131">
        <ele>1250.5999756</ele>
        <time>2019-06-02T08:58:28Z</time>
      </trkpt>
      <trkpt lat="44.57413" lon="6.27121">
        <ele>1253</ele>
        <time>2019-06-02T08:58:42Z</time>
      </trkpt>
      <trkpt lat="44.57441" lon="6.27094">
        <ele>1255.4000244</ele>
        <time>2019-06-02T08:58:58Z</time>
      </trkpt>
      <trkpt lat="44.57457" lon="6.27078">
        <ele>1256.8000488</ele>
        <time>2019-06-02T08:59:08Z</time>
      </trkpt>
      <trkpt lat="44.57459" lon="6.2708">
        <ele>1257</ele>
        <time>2019-06-02T08:59:09Z</time>
      </trkpt>
      <trkpt lat="44.57461" lon="6.27082">
        <ele>1257</ele>
        <time>2019-06-02T08:59:10Z</time>
      </trkpt>
      <trkpt lat="44.57462" lon="6.27086">
        <ele>1257</ele>
        <time>2019-06-02T08:59:11Z</time>
      </trkpt>
      <trkpt lat="44.57462" lon="6.27089">
        <ele>1257.1999512</ele>
        <time>2019-06-02T08:59:12Z</time>
      </trkpt>
      <trkpt lat="44.57462" lon="6.27093">
        <ele>1257.4000244</ele>
        <time>2019-06-02T08:59:13Z</time>
      </trkpt>
      <trkpt lat="44.57461" lon="6.27096">
        <ele>1257.4000244</ele>
        <time>2019-06-02T08:59:14Z</time>
      </trkpt>
      <trkpt lat="44.57461" lon="6.271">
        <ele>1257.5999756</ele>
        <time>2019-06-02T08:59:15Z</time>
      </trkpt>
      <trkpt lat="44.5746" lon="6.27103">
        <ele>1257.8000488</ele>
        <time>2019-06-02T08:59:16Z</time>
      </trkpt>
      <trkpt lat="44.57459" lon="6.27105">
        <ele>1258</ele>
        <time>2019-06-02T08:59:17Z</time>
      </trkpt>
      <trkpt lat="44.57457" lon="6.27108">
        <ele>1258.1999512</ele>
        <time>2019-06-02T08:59:18Z</time>
      </trkpt>
      <trkpt lat="44.57436" lon="6.27145">
        <ele>1260.4000244</ele>
        <time>2019-06-02T08:59:33Z</time>
      </trkpt>
      <trkpt lat="44.57428" lon="6.27202">
        <ele>1262.8000488</ele>
        <time>2019-06-02T08:59:53Z</time>
      </trkpt>
      <trkpt lat="44.57437" lon="6.27241">
        <ele>1264.5999756</ele>
        <time>2019-06-02T09:00:07Z</time>
      </trkpt>
      <trkpt lat="44.57439" lon="6.27246">
        <ele>1265</ele>
        <time>2019-06-02T09:00:09Z</time>
      </trkpt>
      <trkpt lat="44.5744" lon="6.27249">
        <ele>1265.4000244</ele>
        <time>2019-06-02T09:00:10Z</time>
      </trkpt>
      <trkpt lat="44.57442" lon="6.27251">
        <ele>1265.5999756</ele>
        <time>2019-06-02T09:00:11Z</time>
      </trkpt>
      <trkpt lat="44.57443" lon="6.27253">
        <ele>1265.5999756</ele>
        <time>2019-06-02T09:00:12Z</time>
      </trkpt>
      <trkpt lat="44.57445" lon="6.27255">
        <ele>1266.1999512</ele>
        <time>2019-06-02T09:00:13Z</time>
      </trkpt>
      <trkpt lat="44.57447" lon="6.27257">
        <ele>1266.1999512</ele>
        <time>2019-06-02T09:00:14Z</time>
      </trkpt>
      <trkpt lat="44.57449" lon="6.27259">
        <ele>1266.5999756</ele>
        <time>2019-06-02T09:00:15Z</time>
      </trkpt>
      <trkpt lat="44.57468" lon="6.27297">
        <ele>1268.8000488</ele>
        <time>2019-06-02T09:00:29Z</time>
      </trkpt>
      <trkpt lat="44.57475" lon="6.27335">
        <ele>1270.5999756</ele>
        <time>2019-06-02T09:00:42Z</time>
      </trkpt>
      <trkpt lat="44.57474" lon="6.27381">
        <ele>1273.4000244</ele>
        <time>2019-06-02T09:00:58Z</time>
      </trkpt>
      <trkpt lat="44.57468" lon="6.27437">
        <ele>1276</ele>
        <time>2019-06-02T09:01:16Z</time>
      </trkpt>
      <trkpt lat="44.57463" lon="6.27484">
        <ele>1278</ele>
        <time>2019-06-02T09:01:32Z</time>
      </trkpt>
      <trkpt lat="44.57449" lon="6.27536">
        <ele>1280.4000244</ele>
        <time>2019-06-02T09:01:50Z</time>
      </trkpt>
      <trkpt lat="44.5743" lon="6.27583">
        <ele>1283.5999756</ele>
        <time>2019-06-02T09:02:08Z</time>
      </trkpt>
      <trkpt lat="44.57404" lon="6.27631">
        <ele>1286.5999756</ele>
        <time>2019-06-02T09:02:28Z</time>
      </trkpt>
      <trkpt lat="44.57382" lon="6.27667">
        <ele>1289.5999756</ele>
        <time>2019-06-02T09:02:44Z</time>
      </trkpt>
      <trkpt lat="44.57357" lon="6.27702">
        <ele>1292.1999512</ele>
        <time>2019-06-02T09:03:00Z</time>
      </trkpt>
      <trkpt lat="44.57339" lon="6.27733">
        <ele>1294.5999756</ele>
        <time>2019-06-02T09:03:14Z</time>
      </trkpt>
      <trkpt lat="44.57317" lon="6.27765">
        <ele>1297.8000488</ele>
        <time>2019-06-02T09:03:31Z</time>
      </trkpt>
      <trkpt lat="44.57297" lon="6.278">
        <ele>1299.8000488</ele>
        <time>2019-06-02T09:03:46Z</time>
      </trkpt>
      <trkpt lat="44.57277" lon="6.27841">
        <ele>1301.8000488</ele>
        <time>2019-06-02T09:04:03Z</time>
      </trkpt>
      <trkpt lat="44.57255" lon="6.27878">
        <ele>1304.1999512</ele>
        <time>2019-06-02T09:04:20Z</time>
      </trkpt>
      <trkpt lat="44.5724" lon="6.27921">
        <ele>1306.8000488</ele>
        <time>2019-06-02T09:04:37Z</time>
      </trkpt>
      <trkpt lat="44.57227" lon="6.2797">
        <ele>1308.8000488</ele>
        <time>2019-06-02T09:04:55Z</time>
      </trkpt>
      <trkpt lat="44.57213" lon="6.28018">
        <ele>1310.5999756</ele>
        <time>2019-06-02T09:05:13Z</time>
      </trkpt>
      <trkpt lat="44.57197" lon="6.28078">
        <ele>1313</ele>
        <time>2019-06-02T09:05:35Z</time>
      </trkpt>
      <trkpt lat="44.57189" lon="6.28138">
        <ele>1314.4000244</ele>
        <time>2019-06-02T09:05:56Z</time>
      </trkpt>
      <trkpt lat="44.57195" lon="6.28144">
        <ele>1315.8000488</ele>
        <time>2019-06-02T09:06:08Z</time>
      </trkpt>
      <trkpt lat="44.57197" lon="6.28143">
        <ele>1316.1999512</ele>
        <time>2019-06-02T09:07:41Z</time>
      </trkpt>
      <trkpt lat="44.57198" lon="6.28141">
        <ele>1316.1999512</ele>
        <time>2019-06-02T09:07:46Z</time>
      </trkpt>
      <trkpt lat="44.57199" lon="6.2814">
        <ele>1316.1999512</ele>
        <time>2019-06-02T09:07:47Z</time>
      </trkpt>
      <trkpt lat="44.57208" lon="6.28103">
        <ele>1316.1999512</ele>
        <time>2019-06-02T09:08:01Z</time>
      </trkpt>
      <trkpt lat="44.57217" lon="6.28065">
        <ele>1318.1999512</ele>
        <time>2019-06-02T09:08:16Z</time>
      </trkpt>
      <trkpt lat="44.57218" lon="6.28061">
        <ele>1318.4000244</ele>
        <time>2019-06-02T09:08:18Z</time>
      </trkpt>
      <trkpt lat="44.57219" lon="6.28059">
        <ele>1318.5999756</ele>
        <time>2019-06-02T09:08:19Z</time>
      </trkpt>
      <trkpt lat="44.57221" lon="6.28057">
        <ele>1318.8000488</ele>
        <time>2019-06-02T09:08:20Z</time>
      </trkpt>
      <trkpt lat="44.57227" lon="6.28038">
        <ele>1320</ele>
        <time>2019-06-02T09:08:28Z</time>
      </trkpt>
      <trkpt lat="44.57228" lon="6.28036">
        <ele>1320.1999512</ele>
        <time>2019-06-02T09:08:29Z</time>
      </trkpt>
      <trkpt lat="44.57229" lon="6.28034">
        <ele>1320.4000244</ele>
        <time>2019-06-02T09:08:30Z</time>
      </trkpt>
      <trkpt lat="44.57248" lon="6.28002">
        <ele>1322.8000488</ele>
        <time>2019-06-02T09:08:45Z</time>
      </trkpt>
      <trkpt lat="44.5727" lon="6.27981">
        <ele>1325.8000488</ele>
        <time>2019-06-02T09:08:58Z</time>
      </trkpt>
      <trkpt lat="44.57297" lon="6.2795">
        <ele>1329</ele>
        <time>2019-06-02T09:09:15Z</time>
      </trkpt>
      <trkpt lat="44.57324" lon="6.27915">
        <ele>1332.1999512</ele>
        <time>2019-06-02T09:09:33Z</time>
      </trkpt>
      <trkpt lat="44.57339" lon="6.27893">
        <ele>1333.8000488</ele>
        <time>2019-06-02T09:09:44Z</time>
      </trkpt>
      <trkpt lat="44.5734" lon="6.2789">
        <ele>1333.8000488</ele>
        <time>2019-06-02T09:09:45Z</time>
      </trkpt>
      <trkpt lat="44.57341" lon="6.27888">
        <ele>1333.8000488</ele>
        <time>2019-06-02T09:09:46Z</time>
      </trkpt>
      <trkpt lat="44.57356" lon="6.27863">
        <ele>1335.8000488</ele>
        <time>2019-06-02T09:09:58Z</time>
      </trkpt>
      <trkpt lat="44.57375" lon="6.27838">
        <ele>1338.1999512</ele>
        <time>2019-06-02T09:10:11Z</time>
      </trkpt>
      <trkpt lat="44.57391" lon="6.27812">
        <ele>1339.8000488</ele>
        <time>2019-06-02T09:10:24Z</time>
      </trkpt>
      <trkpt lat="44.57423" lon="6.27781">
        <ele>1342.4000244</ele>
        <time>2019-06-02T09:10:44Z</time>
      </trkpt>
      <trkpt lat="44.57444" lon="6.27789">
        <ele>1344.5999756</ele>
        <time>2019-06-02T09:10:55Z</time>
      </trkpt>
      <trkpt lat="44.57474" lon="6.27813">
        <ele>1347.1999512</ele>
        <time>2019-06-02T09:11:11Z</time>
      </trkpt>
      <trkpt lat="44.57504" lon="6.27804">
        <ele>1349.1999512</ele>
        <time>2019-06-02T09:11:26Z</time>
      </trkpt>
      <trkpt lat="44.57531" lon="6.27815">
        <ele>1350.5999756</ele>
        <time>2019-06-02T09:11:40Z</time>
      </trkpt>
      <trkpt lat="44.57561" lon="6.27819">
        <ele>1353.1999512</ele>
        <time>2019-06-02T09:11:55Z</time>
      </trkpt>
      <trkpt lat="44.57592" lon="6.27808">
        <ele>1355</ele>
        <time>2019-06-02T09:12:10Z</time>
      </trkpt>
      <trkpt lat="44.57616" lon="6.27791">
        <ele>1356.4000244</ele>
        <time>2019-06-02T09:12:24Z</time>
      </trkpt>
      <trkpt lat="44.57648" lon="6.2779">
        <ele>1358.1999512</ele>
        <time>2019-06-02T09:12:40Z</time>
      </trkpt>
      <trkpt lat="44.57665" lon="6.27813">
        <ele>1359.4000244</ele>
        <time>2019-06-02T09:12:52Z</time>
      </trkpt>
      <trkpt lat="44.57669" lon="6.27835">
        <ele>1361</ele>
        <time>2019-06-02T09:13:06Z</time>
      </trkpt>
      <trkpt lat="44.57671" lon="6.27834">
        <ele>1361.8000488</ele>
        <time>2019-06-02T09:14:21Z</time>
      </trkpt>
      <trkpt lat="44.57672" lon="6.27834">
        <ele>1361.5999756</ele>
        <time>2019-06-02T09:14:59Z</time>
      </trkpt>
      <trkpt lat="44.57676" lon="6.27835">
        <ele>1361.8000488</ele>
        <time>2019-06-02T09:15:27Z</time>
      </trkpt>
      <trkpt lat="44.57679" lon="6.27837">
        <ele>1362</ele>
        <time>2019-06-02T09:15:43Z</time>
      </trkpt>
      <trkpt lat="44.57682" lon="6.27838">
        <ele>1362.1999512</ele>
        <time>2019-06-02T09:15:51Z</time>
      </trkpt>
      <trkpt lat="44.57687" lon="6.27844">
        <ele>1363</ele>
        <time>2019-06-02T09:16:07Z</time>
      </trkpt>
      <trkpt lat="44.57705" lon="6.27847">
        <ele>1363.1999512</ele>
        <time>2019-06-02T09:16:17Z</time>
      </trkpt>
      <trkpt lat="44.57735" lon="6.27844">
        <ele>1366.1999512</ele>
        <time>2019-06-02T09:16:31Z</time>
      </trkpt>
      <trkpt lat="44.57768" lon="6.27838">
        <ele>1369.4000244</ele>
        <time>2019-06-02T09:16:48Z</time>
      </trkpt>
      <trkpt lat="44.57795" lon="6.27821">
        <ele>1372.4000244</ele>
        <time>2019-06-02T09:17:05Z</time>
      </trkpt>
      <trkpt lat="44.57822" lon="6.27823">
        <ele>1375.8000488</ele>
        <time>2019-06-02T09:17:19Z</time>
      </trkpt>
      <trkpt lat="44.57845" lon="6.27858">
        <ele>1378.8000488</ele>
        <time>2019-06-02T09:17:36Z</time>
      </trkpt>
      <trkpt lat="44.57856" lon="6.27898">
        <ele>1382</ele>
        <time>2019-06-02T09:17:51Z</time>
      </trkpt>
      <trkpt lat="44.5788" lon="6.27927">
        <ele>1385</ele>
        <time>2019-06-02T09:18:06Z</time>
      </trkpt>
      <trkpt lat="44.57908" lon="6.27954">
        <ele>1388.1999512</ele>
        <time>2019-06-02T09:18:23Z</time>
      </trkpt>
      <trkpt lat="44.57913" lon="6.27997">
        <ele>1391.1999512</ele>
        <time>2019-06-02T09:18:38Z</time>
      </trkpt>
      <trkpt lat="44.57902" lon="6.28038">
        <ele>1394.4000244</ele>
        <time>2019-06-02T09:18:53Z</time>
      </trkpt>
      <trkpt lat="44.57876" lon="6.28085">
        <ele>1397.1999512</ele>
        <time>2019-06-02T09:19:13Z</time>
      </trkpt>
      <trkpt lat="44.57834" lon="6.28126">
        <ele>1399.8000488</ele>
        <time>2019-06-02T09:19:35Z</time>
      </trkpt>
      <trkpt lat="44.57797" lon="6.28143">
        <ele>1402.4000244</ele>
        <time>2019-06-02T09:19:52Z</time>
      </trkpt>
      <trkpt lat="44.5777" lon="6.28158">
        <ele>1403.1999512</ele>
        <time>2019-06-02T09:20:05Z</time>
      </trkpt>
      <trkpt lat="44.57769" lon="6.28161">
        <ele>1403.4000244</ele>
        <time>2019-06-02T09:20:06Z</time>
      </trkpt>
      <trkpt lat="44.5777" lon="6.28165">
        <ele>1403.8000488</ele>
        <time>2019-06-02T09:20:07Z</time>
      </trkpt>
      <trkpt lat="44.57792" lon="6.28193">
        <ele>1407</ele>
        <time>2019-06-02T09:20:20Z</time>
      </trkpt>
      <trkpt lat="44.57822" lon="6.28213">
        <ele>1410</ele>
        <time>2019-06-02T09:20:35Z</time>
      </trkpt>
      <trkpt lat="44.57858" lon="6.28208">
        <ele>1412.4000244</ele>
        <time>2019-06-02T09:20:51Z</time>
      </trkpt>
      <trkpt lat="44.57897" lon="6.28176">
        <ele>1414.1999512</ele>
        <time>2019-06-02T09:21:11Z</time>
      </trkpt>
      <trkpt lat="44.57933" lon="6.28149">
        <ele>1415.8000488</ele>
        <time>2019-06-02T09:21:31Z</time>
      </trkpt>
      <trkpt lat="44.57934" lon="6.2815">
        <ele>1417.1999512</ele>
        <time>2019-06-02T09:21:45Z</time>
      </trkpt>
      <trkpt lat="44.57937" lon="6.28152">
        <ele>1417.4000244</ele>
        <time>2019-06-02T09:22:36Z</time>
      </trkpt>
      <trkpt lat="44.57936" lon="6.28152">
        <ele>1417.1999512</ele>
        <time>2019-06-02T09:24:08Z</time>
      </trkpt>
      <trkpt lat="44.57938" lon="6.28153">
        <ele>1417.1999512</ele>
        <time>2019-06-02T09:24:59Z</time>
      </trkpt>
      <trkpt lat="44.57937" lon="6.28152">
        <ele>1417.8000488</ele>
        <time>2019-06-02T09:25:49Z</time>
      </trkpt>
      <trkpt lat="44.57936" lon="6.28153">
        <ele>1417.4000244</ele>
        <time>2019-06-02T09:27:34Z</time>
      </trkpt>
      <trkpt lat="44.57937" lon="6.28156">
        <ele>1417.4000244</ele>
        <time>2019-06-02T09:27:39Z</time>
      </trkpt>
      <trkpt lat="44.57937" lon="6.28158">
        <ele>1417.4000244</ele>
        <time>2019-06-02T09:27:40Z</time>
      </trkpt>
      <trkpt lat="44.57938" lon="6.2816">
        <ele>1417.4000244</ele>
        <time>2019-06-02T09:27:41Z</time>
      </trkpt>
      <trkpt lat="44.57939" lon="6.28162">
        <ele>1417.4000244</ele>
        <time>2019-06-02T09:27:42Z</time>
      </trkpt>
      <trkpt lat="44.57939" lon="6.28164">
        <ele>1417.4000244</ele>
        <time>2019-06-02T09:27:43Z</time>
      </trkpt>
      <trkpt lat="44.57951" lon="6.28194">
        <ele>1419.4000244</ele>
        <time>2019-06-02T09:28:00Z</time>
      </trkpt>
      <trkpt lat="44.57952" lon="6.28196">
        <ele>1419.5999756</ele>
        <time>2019-06-02T09:28:01Z</time>
      </trkpt>
      <trkpt lat="44.57953" lon="6.28197">
        <ele>1419.8000488</ele>
        <time>2019-06-02T09:28:02Z</time>
      </trkpt>
      <trkpt lat="44.57955" lon="6.28198">
        <ele>1420</ele>
        <time>2019-06-02T09:28:03Z</time>
      </trkpt>
      <trkpt lat="44.57955" lon="6.28198">
        <ele>1421.8000488</ele>
        <time>2019-06-02T09:28:15Z</time>
      </trkpt>
      <trkpt lat="44.57954" lon="6.28203">
        <ele>1422</ele>
        <time>2019-06-02T09:28:25Z</time>
      </trkpt>
      <trkpt lat="44.57953" lon="6.28207">
        <ele>1422</ele>
        <time>2019-06-02T09:28:26Z</time>
      </trkpt>
      <trkpt lat="44.57952" lon="6.28211">
        <ele>1422</ele>
        <time>2019-06-02T09:28:27Z</time>
      </trkpt>
      <trkpt lat="44.5795" lon="6.28216">
        <ele>1421.8000488</ele>
        <time>2019-06-02T09:28:28Z</time>
      </trkpt>
      <trkpt lat="44.57947" lon="6.28221">
        <ele>1421.8000488</ele>
        <time>2019-06-02T09:28:29Z</time>
      </trkpt>
      <trkpt lat="44.57944" lon="6.28226">
        <ele>1421.8000488</ele>
        <time>2019-06-02T09:28:30Z</time>
      </trkpt>
      <trkpt lat="44.57933" lon="6.28256">
        <ele>1421.1999512</ele>
        <time>2019-06-02T09:28:35Z</time>
      </trkpt>
      <trkpt lat="44.57917" lon="6.28316">
        <ele>1419</ele>
        <time>2019-06-02T09:28:47Z</time>
      </trkpt>
      <trkpt lat="44.57903" lon="6.28352">
        <ele>1421.8000488</ele>
        <time>2019-06-02T09:29:01Z</time>
      </trkpt>
      <trkpt lat="44.5789" lon="6.28376">
        <ele>1425</ele>
        <time>2019-06-02T09:29:11Z</time>
      </trkpt>
      <trkpt lat="44.57871" lon="6.2841">
        <ele>1427.8000488</ele>
        <time>2019-06-02T09:29:27Z</time>
      </trkpt>
      <trkpt lat="44.57842" lon="6.28434">
        <ele>1428</ele>
        <time>2019-06-02T09:29:39Z</time>
      </trkpt>
      <trkpt lat="44.57805" lon="6.28442">
        <ele>1427.4000244</ele>
        <time>2019-06-02T09:29:52Z</time>
      </trkpt>
      <trkpt lat="44.5777" lon="6.28461">
        <ele>1424.5999756</ele>
        <time>2019-06-02T09:30:05Z</time>
      </trkpt>
      <trkpt lat="44.57741" lon="6.28468">
        <ele>1424.1999512</ele>
        <time>2019-06-02T09:30:16Z</time>
      </trkpt>
      <trkpt lat="44.57714" lon="6.28462">
        <ele>1424.1999512</ele>
        <time>2019-06-02T09:30:29Z</time>
      </trkpt>
      <trkpt lat="44.57712" lon="6.28464">
        <ele>1424.1999512</ele>
        <time>2019-06-02T09:30:30Z</time>
      </trkpt>
      <trkpt lat="44.5771" lon="6.28466">
        <ele>1424.1999512</ele>
        <time>2019-06-02T09:30:31Z</time>
      </trkpt>
      <trkpt lat="44.57709" lon="6.28468">
        <ele>1424.1999512</ele>
        <time>2019-06-02T09:30:32Z</time>
      </trkpt>
      <trkpt lat="44.57708" lon="6.28471">
        <ele>1424.1999512</ele>
        <time>2019-06-02T09:30:33Z</time>
      </trkpt>
      <trkpt lat="44.57707" lon="6.28474">
        <ele>1424.1999512</ele>
        <time>2019-06-02T09:30:34Z</time>
      </trkpt>
      <trkpt lat="44.57706" lon="6.28478">
        <ele>1424.1999512</ele>
        <time>2019-06-02T09:30:35Z</time>
      </trkpt>
      <trkpt lat="44.57705" lon="6.28482">
        <ele>1424.1999512</ele>
        <time>2019-06-02T09:30:36Z</time>
      </trkpt>
      <trkpt lat="44.57703" lon="6.28486">
        <ele>1424.1999512</ele>
        <time>2019-06-02T09:30:37Z</time>
      </trkpt>
      <trkpt lat="44.57683" lon="6.28515">
        <ele>1420.8000488</ele>
        <time>2019-06-02T09:30:46Z</time>
      </trkpt>
      <trkpt lat="44.5768" lon="6.2852">
        <ele>1420</ele>
        <time>2019-06-02T09:30:48Z</time>
      </trkpt>
      <trkpt lat="44.57667" lon="6.28561">
        <ele>1417</ele>
        <time>2019-06-02T09:31:02Z</time>
      </trkpt>
      <trkpt lat="44.57659" lon="6.2859">
        <ele>1413.4000244</ele>
        <time>2019-06-02T09:31:13Z</time>
      </trkpt>
      <trkpt lat="44.57658" lon="6.28626">
        <ele>1410.4000244</ele>
        <time>2019-06-02T09:31:21Z</time>
      </trkpt>
      <trkpt lat="44.57635" lon="6.28645">
        <ele>1407.8000488</ele>
        <time>2019-06-02T09:31:31Z</time>
      </trkpt>
      <trkpt lat="44.5758" lon="6.2865">
        <ele>1408.4000244</ele>
        <time>2019-06-02T09:31:52Z</time>
      </trkpt>
      <trkpt lat="44.57567" lon="6.28662">
        <ele>1410</ele>
        <time>2019-06-02T09:32:03Z</time>
      </trkpt>
      <trkpt lat="44.57569" lon="6.28665">
        <ele>1411.1999512</ele>
        <time>2019-06-02T09:32:29Z</time>
      </trkpt>
      <trkpt lat="44.5757" lon="6.28667">
        <ele>1411.1999512</ele>
        <time>2019-06-02T09:32:30Z</time>
      </trkpt>
      <trkpt lat="44.57572" lon="6.2867">
        <ele>1411.1999512</ele>
        <time>2019-06-02T09:32:31Z</time>
      </trkpt>
      <trkpt lat="44.57574" lon="6.28672">
        <ele>1411.1999512</ele>
        <time>2019-06-02T09:32:32Z</time>
      </trkpt>
      <trkpt lat="44.57575" lon="6.28675">
        <ele>1411.1999512</ele>
        <time>2019-06-02T09:32:33Z</time>
      </trkpt>
      <trkpt lat="44.57607" lon="6.28706">
        <ele>1413.4000244</ele>
        <time>2019-06-02T09:32:49Z</time>
      </trkpt>
      <trkpt lat="44.5763" lon="6.2873">
        <ele>1416.5999756</ele>
        <time>2019-06-02T09:33:01Z</time>
      </trkpt>
      <trkpt lat="44.57647" lon="6.28746">
        <ele>1419.8000488</ele>
        <time>2019-06-02T09:33:11Z</time>
      </trkpt>
      <trkpt lat="44.5766" lon="6.28746">
        <ele>1422.8000488</ele>
        <time>2019-06-02T09:33:19Z</time>
      </trkpt>
      <trkpt lat="44.5767" lon="6.28743">
        <ele>1425</ele>
        <time>2019-06-02T09:33:26Z</time>
      </trkpt>
      <trkpt lat="44.57676" lon="6.28748">
        <ele>1428.4000244</ele>
        <time>2019-06-02T09:33:33Z</time>
      </trkpt>
      <trkpt lat="44.57681" lon="6.28749">
        <ele>1431.4000244</ele>
        <time>2019-06-02T09:34:00Z</time>
      </trkpt>
      <trkpt lat="44.57686" lon="6.28754">
        <ele>1432</ele>
        <time>2019-06-02T09:34:22Z</time>
      </trkpt>
      <trkpt lat="44.57688" lon="6.28754">
        <ele>1433.5999756</ele>
        <time>2019-06-02T09:34:57Z</time>
      </trkpt>
      <trkpt lat="44.57686" lon="6.28753">
        <ele>1433.8000488</ele>
        <time>2019-06-02T09:35:20Z</time>
      </trkpt>
      <trkpt lat="44.57687" lon="6.28756">
        <ele>1433.5999756</ele>
        <time>2019-06-02T09:36:13Z</time>
      </trkpt>
      <trkpt lat="44.57686" lon="6.28756">
        <ele>1433.5999756</ele>
        <time>2019-06-02T09:36:16Z</time>
      </trkpt>
      <trkpt lat="44.57685" lon="6.28756">
        <ele>1433.5999756</ele>
        <time>2019-06-02T09:36:17Z</time>
      </trkpt>
      <trkpt lat="44.57682" lon="6.28757">
        <ele>1433.5999756</ele>
        <time>2019-06-02T09:36:18Z</time>
      </trkpt>
      <trkpt lat="44.5768" lon="6.28758">
        <ele>1433.5999756</ele>
        <time>2019-06-02T09:36:19Z</time>
      </trkpt>
      <trkpt lat="44.57677" lon="6.2876">
        <ele>1433.4000244</ele>
        <time>2019-06-02T09:36:20Z</time>
      </trkpt>
      <trkpt lat="44.57675" lon="6.28762">
        <ele>1433.4000244</ele>
        <time>2019-06-02T09:36:21Z</time>
      </trkpt>
      <trkpt lat="44.57647" lon="6.28798">
        <ele>1434.8000488</ele>
        <time>2019-06-02T09:36:37Z</time>
      </trkpt>
      <trkpt lat="44.57639" lon="6.28812">
        <ele>1438</ele>
        <time>2019-06-02T09:36:43Z</time>
      </trkpt>
      <trkpt lat="44.57624" lon="6.28846">
        <ele>1441</ele>
        <time>2019-06-02T09:36:55Z</time>
      </trkpt>
      <trkpt lat="44.57614" lon="6.28876">
        <ele>1444.1999512</ele>
        <time>2019-06-02T09:37:06Z</time>
      </trkpt>
      <trkpt lat="44.57609" lon="6.28889">
        <ele>1447.1999512</ele>
        <time>2019-06-02T09:37:11Z</time>
      </trkpt>
      <trkpt lat="44.57604" lon="6.28908">
        <ele>1450.4000244</ele>
        <time>2019-06-02T09:37:18Z</time>
      </trkpt>
      <trkpt lat="44.57604" lon="6.2893">
        <ele>1453.4000244</ele>
        <time>2019-06-02T09:37:26Z</time>
      </trkpt>
      <trkpt lat="44.57605" lon="6.28936">
        <ele>1456.5999756</ele>
        <time>2019-06-02T09:37:33Z</time>
      </trkpt>
      <trkpt lat="44.57607" lon="6.28941">
        <ele>1458</ele>
        <time>2019-06-02T09:40:00Z</time>
      </trkpt>
      <trkpt lat="44.57625" lon="6.28978">
        <ele>1457.5999756</ele>
        <time>2019-06-02T09:40:12Z</time>
      </trkpt>
      <trkpt lat="44.57653" lon="6.29016">
        <ele>1455.1999512</ele>
        <time>2019-06-02T09:40:23Z</time>
      </trkpt>
      <trkpt lat="44.57664" lon="6.29063">
        <ele>1454.5999756</ele>
        <time>2019-06-02T09:40:36Z</time>
      </trkpt>
      <trkpt lat="44.57658" lon="6.29117">
        <ele>1454.5999756</ele>
        <time>2019-06-02T09:40:51Z</time>
      </trkpt>
      <trkpt lat="44.57683" lon="6.2916">
        <ele>1451.5999756</ele>
        <time>2019-06-02T09:41:03Z</time>
      </trkpt>
      <trkpt lat="44.57702" lon="6.292">
        <ele>1450</ele>
        <time>2019-06-02T09:41:15Z</time>
      </trkpt>
      <trkpt lat="44.57726" lon="6.29243">
        <ele>1448.4000244</ele>
        <time>2019-06-02T09:41:28Z</time>
      </trkpt>
      <trkpt lat="44.57738" lon="6.29264">
        <ele>1448</ele>
        <time>2019-06-02T09:41:35Z</time>
      </trkpt>
      <trkpt lat="44.57737" lon="6.29267">
        <ele>1447.8000488</ele>
        <time>2019-06-02T09:41:36Z</time>
      </trkpt>
      <trkpt lat="44.57736" lon="6.2927">
        <ele>1447.4000244</ele>
        <time>2019-06-02T09:41:37Z</time>
      </trkpt>
      <trkpt lat="44.57734" lon="6.29273">
        <ele>1447.1999512</ele>
        <time>2019-06-02T09:41:38Z</time>
      </trkpt>
      <trkpt lat="44.57731" lon="6.29275">
        <ele>1447</ele>
        <time>2019-06-02T09:41:39Z</time>
      </trkpt>
      <trkpt lat="44.57701" lon="6.29321">
        <ele>1445.8000488</ele>
        <time>2019-06-02T09:41:52Z</time>
      </trkpt>
      <trkpt lat="44.57684" lon="6.29369">
        <ele>1445.5999756</ele>
        <time>2019-06-02T09:42:04Z</time>
      </trkpt>
      <trkpt lat="44.57683" lon="6.29433">
        <ele>1448</ele>
        <time>2019-06-02T09:42:20Z</time>
      </trkpt>
      <trkpt lat="44.5768" lon="6.29439">
        <ele>1451</ele>
        <time>2019-06-02T09:42:30Z</time>
      </trkpt>
      <trkpt lat="44.57679" lon="6.2944">
        <ele>1451</ele>
        <time>2019-06-02T09:42:31Z</time>
      </trkpt>
      <trkpt lat="44.57677" lon="6.29442">
        <ele>1451</ele>
        <time>2019-06-02T09:42:32Z</time>
      </trkpt>
      <trkpt lat="44.57675" lon="6.29443">
        <ele>1451.1999512</ele>
        <time>2019-06-02T09:42:33Z</time>
      </trkpt>
      <trkpt lat="44.57673" lon="6.29444">
        <ele>1451.1999512</ele>
        <time>2019-06-02T09:42:34Z</time>
      </trkpt>
      <trkpt lat="44.57672" lon="6.29444">
        <ele>1451.1999512</ele>
        <time>2019-06-02T09:42:35Z</time>
      </trkpt>
      <trkpt lat="44.57671" lon="6.29445">
        <ele>1451.1999512</ele>
        <time>2019-06-02T09:42:36Z</time>
      </trkpt>
      <trkpt lat="44.5767" lon="6.29447">
        <ele>1451.1999512</ele>
        <time>2019-06-02T09:42:37Z</time>
      </trkpt>
      <trkpt lat="44.57667" lon="6.29453">
        <ele>1449.5999756</ele>
        <time>2019-06-02T09:42:45Z</time>
      </trkpt>
      <trkpt lat="44.57667" lon="6.29455">
        <ele>1449.4000244</ele>
        <time>2019-06-02T09:42:46Z</time>
      </trkpt>
      <trkpt lat="44.57668" lon="6.29458">
        <ele>1449.1999512</ele>
        <time>2019-06-02T09:42:47Z</time>
      </trkpt>
      <trkpt lat="44.57681" lon="6.2948">
        <ele>1448.4000244</ele>
        <time>2019-06-02T09:42:56Z</time>
      </trkpt>
      <trkpt lat="44.5769" lon="6.29493">
        <ele>1448.4000244</ele>
        <time>2019-06-02T09:43:02Z</time>
      </trkpt>
      <trkpt lat="44.57692" lon="6.29494">
        <ele>1448.4000244</ele>
        <time>2019-06-02T09:43:03Z</time>
      </trkpt>
      <trkpt lat="44.57694" lon="6.29496">
        <ele>1448.4000244</ele>
        <time>2019-06-02T09:43:04Z</time>
      </trkpt>
      <trkpt lat="44.57696" lon="6.29498">
        <ele>1448.4000244</ele>
        <time>2019-06-02T09:43:05Z</time>
      </trkpt>
      <trkpt lat="44.57698" lon="6.29499">
        <ele>1448.5999756</ele>
        <time>2019-06-02T09:43:06Z</time>
      </trkpt>
      <trkpt lat="44.57723" lon="6.29531">
        <ele>1451.4000244</ele>
        <time>2019-06-02T09:43:22Z</time>
      </trkpt>
      <trkpt lat="44.57739" lon="6.29556">
        <ele>1454.5999756</ele>
        <time>2019-06-02T09:43:35Z</time>
      </trkpt>
      <trkpt lat="44.57749" lon="6.29568">
        <ele>1456.5999756</ele>
        <time>2019-06-02T09:43:43Z</time>
      </trkpt>
      <trkpt lat="44.57749" lon="6.29571">
        <ele>1456.8000488</ele>
        <time>2019-06-02T09:43:44Z</time>
      </trkpt>
      <trkpt lat="44.57749" lon="6.29574">
        <ele>1457</ele>
        <time>2019-06-02T09:43:45Z</time>
      </trkpt>
      <trkpt lat="44.57748" lon="6.29576">
        <ele>1457</ele>
        <time>2019-06-02T09:43:46Z</time>
      </trkpt>
      <trkpt lat="44.57747" lon="6.29578">
        <ele>1457</ele>
        <time>2019-06-02T09:43:47Z</time>
      </trkpt>
      <trkpt lat="44.57745" lon="6.2958">
        <ele>1457.1999512</ele>
        <time>2019-06-02T09:43:48Z</time>
      </trkpt>
      <trkpt lat="44.57743" lon="6.29581">
        <ele>1457.1999512</ele>
        <time>2019-06-02T09:43:49Z</time>
      </trkpt>
      <trkpt lat="44.5771" lon="6.29598">
        <ele>1460.1999512</ele>
        <time>2019-06-02T09:44:06Z</time>
      </trkpt>
      <trkpt lat="44.57709" lon="6.29601">
        <ele>1460.4000244</ele>
        <time>2019-06-02T09:44:07Z</time>
      </trkpt>
      <trkpt lat="44.57709" lon="6.29604">
        <ele>1460.5999756</ele>
        <time>2019-06-02T09:44:08Z</time>
      </trkpt>
      <trkpt lat="44.57709" lon="6.29606">
        <ele>1460.8000488</ele>
        <time>2019-06-02T09:44:09Z</time>
      </trkpt>
      <trkpt lat="44.5771" lon="6.29609">
        <ele>1460.8000488</ele>
        <time>2019-06-02T09:44:10Z</time>
      </trkpt>
      <trkpt lat="44.57721" lon="6.29646">
        <ele>1463.8000488</ele>
        <time>2019-06-02T09:44:24Z</time>
      </trkpt>
      <trkpt lat="44.57725" lon="6.29668">
        <ele>1467</ele>
        <time>2019-06-02T09:44:35Z</time>
      </trkpt>
      <trkpt lat="44.57735" lon="6.29672">
        <ele>1470</ele>
        <time>2019-06-02T09:45:02Z</time>
      </trkpt>
      <trkpt lat="44.57735" lon="6.29671">
        <ele>1471.4000244</ele>
        <time>2019-06-02T09:46:14Z</time>
      </trkpt>
      <trkpt lat="44.57734" lon="6.29673">
        <ele>1471.1999512</ele>
        <time>2019-06-02T09:46:39Z</time>
      </trkpt>
      <trkpt lat="44.5773" lon="6.29676">
        <ele>1470.4000244</ele>
        <time>2019-06-02T09:46:59Z</time>
      </trkpt>
      <trkpt lat="44.57733" lon="6.29671">
        <ele>1470.8000488</ele>
        <time>2019-06-02T09:47:19Z</time>
      </trkpt>
      <trkpt lat="44.57734" lon="6.29668">
        <ele>1471</ele>
        <time>2019-06-02T09:47:27Z</time>
      </trkpt>
      <trkpt lat="44.57734" lon="6.29665">
        <ele>1471</ele>
        <time>2019-06-02T09:47:28Z</time>
      </trkpt>
      <trkpt lat="44.57735" lon="6.29661">
        <ele>1471</ele>
        <time>2019-06-02T09:47:29Z</time>
      </trkpt>
      <trkpt lat="44.57736" lon="6.29658">
        <ele>1471</ele>
        <time>2019-06-02T09:47:30Z</time>
      </trkpt>
      <trkpt lat="44.57737" lon="6.29655">
        <ele>1471</ele>
        <time>2019-06-02T09:47:31Z</time>
      </trkpt>
      <trkpt lat="44.57738" lon="6.29652">
        <ele>1471</ele>
        <time>2019-06-02T09:47:32Z</time>
      </trkpt>
      <trkpt lat="44.5775" lon="6.2964">
        <ele>1471.4000244</ele>
        <time>2019-06-02T09:47:40Z</time>
      </trkpt>
      <trkpt lat="44.57752" lon="6.29642">
        <ele>1471.4000244</ele>
        <time>2019-06-02T09:47:41Z</time>
      </trkpt>
      <trkpt lat="44.57753" lon="6.29644">
        <ele>1471.5999756</ele>
        <time>2019-06-02T09:47:42Z</time>
      </trkpt>
      <trkpt lat="44.57753" lon="6.29647">
        <ele>1471.8000488</ele>
        <time>2019-06-02T09:47:43Z</time>
      </trkpt>
      <trkpt lat="44.57752" lon="6.2965">
        <ele>1472</ele>
        <time>2019-06-02T09:47:44Z</time>
      </trkpt>
      <trkpt lat="44.57751" lon="6.29653">
        <ele>1472.1999512</ele>
        <time>2019-06-02T09:47:45Z</time>
      </trkpt>
      <trkpt lat="44.57751" lon="6.29656">
        <ele>1472.5999756</ele>
        <time>2019-06-02T09:47:46Z</time>
      </trkpt>
      <trkpt lat="44.57757" lon="6.29686">
        <ele>1475.5999756</ele>
        <time>2019-06-02T09:47:56Z</time>
      </trkpt>
      <trkpt lat="44.5777" lon="6.29713">
        <ele>1477.1999512</ele>
        <time>2019-06-02T09:48:07Z</time>
      </trkpt>
      <trkpt lat="44.5777" lon="6.29715">
        <ele>1477.1999512</ele>
        <time>2019-06-02T09:48:08Z</time>
      </trkpt>
      <trkpt lat="44.57769" lon="6.29717">
        <ele>1477.4000244</ele>
        <time>2019-06-02T09:48:09Z</time>
      </trkpt>
      <trkpt lat="44.57769" lon="6.2972">
        <ele>1477.5999756</ele>
        <time>2019-06-02T09:48:10Z</time>
      </trkpt>
      <trkpt lat="44.57769" lon="6.29723">
        <ele>1477.8000488</ele>
        <time>2019-06-02T09:48:11Z</time>
      </trkpt>
      <trkpt lat="44.57769" lon="6.29726">
        <ele>1478</ele>
        <time>2019-06-02T09:48:12Z</time>
      </trkpt>
      <trkpt lat="44.57768" lon="6.29736">
        <ele>1478.5999756</ele>
        <time>2019-06-02T09:48:16Z</time>
      </trkpt>
      <trkpt lat="44.57769" lon="6.29739">
        <ele>1478.8000488</ele>
        <time>2019-06-02T09:48:17Z</time>
      </trkpt>
      <trkpt lat="44.5777" lon="6.29741">
        <ele>1479</ele>
        <time>2019-06-02T09:48:18Z</time>
      </trkpt>
      <trkpt lat="44.57771" lon="6.29743">
        <ele>1479.1999512</ele>
        <time>2019-06-02T09:48:19Z</time>
      </trkpt>
      <trkpt lat="44.57772" lon="6.29746">
        <ele>1479.1999512</ele>
        <time>2019-06-02T09:48:20Z</time>
      </trkpt>
      <trkpt lat="44.57773" lon="6.29748">
        <ele>1479.4000244</ele>
        <time>2019-06-02T09:48:21Z</time>
      </trkpt>
      <trkpt lat="44.57792" lon="6.29782">
        <ele>1482.8000488</ele>
        <time>2019-06-02T09:48:36Z</time>
      </trkpt>
      <trkpt lat="44.57787" lon="6.29816">
        <ele>1485.1999512</ele>
        <time>2019-06-02T09:48:50Z</time>
      </trkpt>
      <trkpt lat="44.57765" lon="6.29856">
        <ele>1487.8000488</ele>
        <time>2019-06-02T09:49:07Z</time>
      </trkpt>
      <trkpt lat="44.57744" lon="6.29893">
        <ele>1489.5999756</ele>
        <time>2019-06-02T09:49:23Z</time>
      </trkpt>
      <trkpt lat="44.57745" lon="6.29937">
        <ele>1492.8000488</ele>
        <time>2019-06-02T09:49:38Z</time>
      </trkpt>
      <trkpt lat="44.57752" lon="6.29962">
        <ele>1495.8000488</ele>
        <time>2019-06-02T09:49:48Z</time>
      </trkpt>
      <trkpt lat="44.57768" lon="6.29982">
        <ele>1498.8000488</ele>
        <time>2019-06-02T09:50:01Z</time>
      </trkpt>
      <trkpt lat="44.57771" lon="6.29986">
        <ele>1500.5999756</ele>
        <time>2019-06-02T09:50:16Z</time>
      </trkpt>
      <trkpt lat="44.57771" lon="6.29988">
        <ele>1500.5999756</ele>
        <time>2019-06-02T09:50:17Z</time>
      </trkpt>
      <trkpt lat="44.57772" lon="6.29993">
        <ele>1500.5999756</ele>
        <time>2019-06-02T09:50:19Z</time>
      </trkpt>
      <trkpt lat="44.57771" lon="6.30008">
        <ele>1500.5999756</ele>
        <time>2019-06-02T09:50:22Z</time>
      </trkpt>
      <trkpt lat="44.57769" lon="6.30014">
        <ele>1500.5999756</ele>
        <time>2019-06-02T09:50:23Z</time>
      </trkpt>
      <trkpt lat="44.57766" lon="6.30019">
        <ele>1500.5999756</ele>
        <time>2019-06-02T09:50:24Z</time>
      </trkpt>
      <trkpt lat="44.57763" lon="6.30024">
        <ele>1500.4000244</ele>
        <time>2019-06-02T09:50:25Z</time>
      </trkpt>
      <trkpt lat="44.57759" lon="6.30028">
        <ele>1500.4000244</ele>
        <time>2019-06-02T09:50:26Z</time>
      </trkpt>
      <trkpt lat="44.57756" lon="6.30032">
        <ele>1500.4000244</ele>
        <time>2019-06-02T09:50:27Z</time>
      </trkpt>
      <trkpt lat="44.57753" lon="6.30037">
        <ele>1500.4000244</ele>
        <time>2019-06-02T09:50:28Z</time>
      </trkpt>
      <trkpt lat="44.57725" lon="6.30086">
        <ele>1497.1999512</ele>
        <time>2019-06-02T09:50:36Z</time>
      </trkpt>
      <trkpt lat="44.57695" lon="6.30108">
        <ele>1495.4000244</ele>
        <time>2019-06-02T09:50:46Z</time>
      </trkpt>
      <trkpt lat="44.57663" lon="6.30109">
        <ele>1497.4000244</ele>
        <time>2019-06-02T09:50:59Z</time>
      </trkpt>
      <trkpt lat="44.57632" lon="6.3013">
        <ele>1497.8000488</ele>
        <time>2019-06-02T09:51:13Z</time>
      </trkpt>
      <trkpt lat="44.57612" lon="6.30149">
        <ele>1497.8000488</ele>
        <time>2019-06-02T09:51:24Z</time>
      </trkpt>
      <trkpt lat="44.57589" lon="6.30154">
        <ele>1498</ele>
        <time>2019-06-02T09:51:33Z</time>
      </trkpt>
      <trkpt lat="44.57561" lon="6.30168">
        <ele>1497.5999756</ele>
        <time>2019-06-02T09:51:44Z</time>
      </trkpt>
      <trkpt lat="44.57529" lon="6.30174">
        <ele>1498.4000244</ele>
        <time>2019-06-02T09:51:55Z</time>
      </trkpt>
      <trkpt lat="44.57501" lon="6.30189">
        <ele>1499</ele>
        <time>2019-06-02T09:52:06Z</time>
      </trkpt>
      <trkpt lat="44.57475" lon="6.30199">
        <ele>1499</ele>
        <time>2019-06-02T09:52:16Z</time>
      </trkpt>
      <trkpt lat="44.57444" lon="6.30235">
        <ele>1499.5999756</ele>
        <time>2019-06-02T09:52:30Z</time>
      </trkpt>
      <trkpt lat="44.57432" lon="6.30249">
        <ele>1499.5999756</ele>
        <time>2019-06-02T09:52:34Z</time>
      </trkpt>
      <trkpt lat="44.57425" lon="6.30258">
        <ele>1499.5999756</ele>
        <time>2019-06-02T09:52:36Z</time>
      </trkpt>
      <trkpt lat="44.57396" lon="6.30302">
        <ele>1498.1999512</ele>
        <time>2019-06-02T09:52:45Z</time>
      </trkpt>
      <trkpt lat="44.57392" lon="6.30306">
        <ele>1497.8000488</ele>
        <time>2019-06-02T09:52:46Z</time>
      </trkpt>
      <trkpt lat="44.57389" lon="6.3031">
        <ele>1497.1999512</ele>
        <time>2019-06-02T09:52:47Z</time>
      </trkpt>
      <trkpt lat="44.57387" lon="6.30315">
        <ele>1497</ele>
        <time>2019-06-02T09:52:48Z</time>
      </trkpt>
      <trkpt lat="44.57385" lon="6.30319">
        <ele>1496.5999756</ele>
        <time>2019-06-02T09:52:49Z</time>
      </trkpt>
      <trkpt lat="44.57383" lon="6.30323">
        <ele>1496.4000244</ele>
        <time>2019-06-02T09:52:50Z</time>
      </trkpt>
      <trkpt lat="44.5738" lon="6.30328">
        <ele>1496</ele>
        <time>2019-06-02T09:52:51Z</time>
      </trkpt>
      <trkpt lat="44.57357" lon="6.30356">
        <ele>1493.8000488</ele>
        <time>2019-06-02T09:53:00Z</time>
      </trkpt>
      <trkpt lat="44.57321" lon="6.3038">
        <ele>1490.8000488</ele>
        <time>2019-06-02T09:53:10Z</time>
      </trkpt>
      <trkpt lat="44.57294" lon="6.30395">
        <ele>1487.4000244</ele>
        <time>2019-06-02T09:53:18Z</time>
      </trkpt>
      <trkpt lat="44.57275" lon="6.30417">
        <ele>1484.4000244</ele>
        <time>2019-06-02T09:53:27Z</time>
      </trkpt>
      <trkpt lat="44.57245" lon="6.30421">
        <ele>1481.1999512</ele>
        <time>2019-06-02T09:53:36Z</time>
      </trkpt>
      <trkpt lat="44.57223" lon="6.30433">
        <ele>1479</ele>
        <time>2019-06-02T09:53:42Z</time>
      </trkpt>
      <trkpt lat="44.57218" lon="6.30435">
        <ele>1478.5999756</ele>
        <time>2019-06-02T09:53:43Z</time>
      </trkpt>
      <trkpt lat="44.57199" lon="6.30447">
        <ele>1475</ele>
        <time>2019-06-02T09:53:49Z</time>
      </trkpt>
      <trkpt lat="44.57188" lon="6.30458">
        <ele>1472</ele>
        <time>2019-06-02T09:53:54Z</time>
      </trkpt>
      <trkpt lat="44.57168" lon="6.30487">
        <ele>1469</ele>
        <time>2019-06-02T09:54:03Z</time>
      </trkpt>
      <trkpt lat="44.57139" lon="6.30514">
        <ele>1466</ele>
        <time>2019-06-02T09:54:14Z</time>
      </trkpt>
      <trkpt lat="44.57126" lon="6.30528">
        <ele>1463</ele>
        <time>2019-06-02T09:54:20Z</time>
      </trkpt>
      <trkpt lat="44.57103" lon="6.30569">
        <ele>1460.5999756</ele>
        <time>2019-06-02T09:54:31Z</time>
      </trkpt>
      <trkpt lat="44.571" lon="6.30572">
        <ele>1460.1999512</ele>
        <time>2019-06-02T09:54:32Z</time>
      </trkpt>
      <trkpt lat="44.57096" lon="6.30575">
        <ele>1460</ele>
        <time>2019-06-02T09:54:33Z</time>
      </trkpt>
      <trkpt lat="44.57091" lon="6.30576">
        <ele>1459.5999756</ele>
        <time>2019-06-02T09:54:34Z</time>
      </trkpt>
      <trkpt lat="44.57087" lon="6.30577">
        <ele>1459.4000244</ele>
        <time>2019-06-02T09:54:35Z</time>
      </trkpt>
      <trkpt lat="44.57083" lon="6.30577">
        <ele>1459</ele>
        <time>2019-06-02T09:54:36Z</time>
      </trkpt>
      <trkpt lat="44.57067" lon="6.30581">
        <ele>1455.8000488</ele>
        <time>2019-06-02T09:54:41Z</time>
      </trkpt>
      <trkpt lat="44.57055" lon="6.30589">
        <ele>1453</ele>
        <time>2019-06-02T09:54:54Z</time>
      </trkpt>
      <trkpt lat="44.57056" lon="6.30584">
        <ele>1452.4000244</ele>
        <time>2019-06-02T09:55:38Z</time>
      </trkpt>
      <trkpt lat="44.57058" lon="6.30583">
        <ele>1452.5999756</ele>
        <time>2019-06-02T09:56:13Z</time>
      </trkpt>
      <trkpt lat="44.57063" lon="6.30583">
        <ele>1453</ele>
        <time>2019-06-02T09:58:10Z</time>
      </trkpt>
      <trkpt lat="44.57061" lon="6.3059">
        <ele>1453</ele>
        <time>2019-06-02T09:58:32Z</time>
      </trkpt>
      <trkpt lat="44.57061" lon="6.30594">
        <ele>1452.8000488</ele>
        <time>2019-06-02T09:58:46Z</time>
      </trkpt>
      <trkpt lat="44.57061" lon="6.30597">
        <ele>1452.8000488</ele>
        <time>2019-06-02T09:58:47Z</time>
      </trkpt>
      <trkpt lat="44.57061" lon="6.30601">
        <ele>1452.8000488</ele>
        <time>2019-06-02T09:58:48Z</time>
      </trkpt>
      <trkpt lat="44.57062" lon="6.30605">
        <ele>1452.8000488</ele>
        <time>2019-06-02T09:58:49Z</time>
      </trkpt>
      <trkpt lat="44.57063" lon="6.3061">
        <ele>1452.8000488</ele>
        <time>2019-06-02T09:58:50Z</time>
      </trkpt>
      <trkpt lat="44.57071" lon="6.30647">
        <ele>1452</ele>
        <time>2019-06-02T09:58:57Z</time>
      </trkpt>
      <trkpt lat="44.57073" lon="6.30654">
        <ele>1451.8000488</ele>
        <time>2019-06-02T09:58:58Z</time>
      </trkpt>
      <trkpt lat="44.57081" lon="6.30701">
        <ele>1449.1999512</ele>
        <time>2019-06-02T09:59:06Z</time>
      </trkpt>
      <trkpt lat="44.57081" lon="6.30707">
        <ele>1449</ele>
        <time>2019-06-02T09:59:07Z</time>
      </trkpt>
      <trkpt lat="44.57081" lon="6.30712">
        <ele>1448.4000244</ele>
        <time>2019-06-02T09:59:08Z</time>
      </trkpt>
      <trkpt lat="44.5708" lon="6.30718">
        <ele>1447.8000488</ele>
        <time>2019-06-02T09:59:09Z</time>
      </trkpt>
      <trkpt lat="44.57078" lon="6.30723">
        <ele>1447.4000244</ele>
        <time>2019-06-02T09:59:10Z</time>
      </trkpt>
      <trkpt lat="44.57076" lon="6.30727">
        <ele>1447</ele>
        <time>2019-06-02T09:59:11Z</time>
      </trkpt>
      <trkpt lat="44.57073" lon="6.30732">
        <ele>1446.5999756</ele>
        <time>2019-06-02T09:59:12Z</time>
      </trkpt>
      <trkpt lat="44.5707" lon="6.30736">
        <ele>1446.4000244</ele>
        <time>2019-06-02T09:59:13Z</time>
      </trkpt>
      <trkpt lat="44.57067" lon="6.30741">
        <ele>1446.1999512</ele>
        <time>2019-06-02T09:59:14Z</time>
      </trkpt>
      <trkpt lat="44.57057" lon="6.30755">
        <ele>1444.5999756</ele>
        <time>2019-06-02T09:59:17Z</time>
      </trkpt>
      <trkpt lat="44.57054" lon="6.30759">
        <ele>1444.1999512</ele>
        <time>2019-06-02T09:59:18Z</time>
      </trkpt>
      <trkpt lat="44.57053" lon="6.30764">
        <ele>1444</ele>
        <time>2019-06-02T09:59:19Z</time>
      </trkpt>
      <trkpt lat="44.57051" lon="6.30769">
        <ele>1443.8000488</ele>
        <time>2019-06-02T09:59:20Z</time>
      </trkpt>
      <trkpt lat="44.5705" lon="6.30774">
        <ele>1443.4000244</ele>
        <time>2019-06-02T09:59:21Z</time>
      </trkpt>
      <trkpt lat="44.57049" lon="6.3078">
        <ele>1443</ele>
        <time>2019-06-02T09:59:22Z</time>
      </trkpt>
      <trkpt lat="44.57049" lon="6.30785">
        <ele>1442.5999756</ele>
        <time>2019-06-02T09:59:23Z</time>
      </trkpt>
      <trkpt lat="44.57049" lon="6.30791">
        <ele>1442</ele>
        <time>2019-06-02T09:59:24Z</time>
      </trkpt>
      <trkpt lat="44.5705" lon="6.30796">
        <ele>1441.5999756</ele>
        <time>2019-06-02T09:59:25Z</time>
      </trkpt>
      <trkpt lat="44.5705" lon="6.30803">
        <ele>1441.4000244</ele>
        <time>2019-06-02T09:59:26Z</time>
      </trkpt>
      <trkpt lat="44.5705" lon="6.30809">
        <ele>1441.1999512</ele>
        <time>2019-06-02T09:59:27Z</time>
      </trkpt>
      <trkpt lat="44.5705" lon="6.30816">
        <ele>1441.1999512</ele>
        <time>2019-06-02T09:59:28Z</time>
      </trkpt>
      <trkpt lat="44.5705" lon="6.30845">
        <ele>1440.5999756</ele>
        <time>2019-06-02T09:59:32Z</time>
      </trkpt>
      <trkpt lat="44.57049" lon="6.30852">
        <ele>1440.1999512</ele>
        <time>2019-06-02T09:59:33Z</time>
      </trkpt>
      <trkpt lat="44.57038" lon="6.30893">
        <ele>1436.8000488</ele>
        <time>2019-06-02T09:59:39Z</time>
      </trkpt>
      <trkpt lat="44.5703" lon="6.30913">
        <ele>1435</ele>
        <time>2019-06-02T09:59:42Z</time>
      </trkpt>
      <trkpt lat="44.57027" lon="6.30919">
        <ele>1434.1999512</ele>
        <time>2019-06-02T09:59:43Z</time>
      </trkpt>
      <trkpt lat="44.57025" lon="6.30925">
        <ele>1433.5999756</ele>
        <time>2019-06-02T09:59:44Z</time>
      </trkpt>
      <trkpt lat="44.57012" lon="6.30955">
        <ele>1430.4000244</ele>
        <time>2019-06-02T09:59:50Z</time>
      </trkpt>
      <trkpt lat="44.56999" lon="6.30999">
        <ele>1428.5999756</ele>
        <time>2019-06-02T09:59:57Z</time>
      </trkpt>
      <trkpt lat="44.56996" lon="6.31005">
        <ele>1428.1999512</ele>
        <time>2019-06-02T09:59:58Z</time>
      </trkpt>
      <trkpt lat="44.56994" lon="6.31009">
        <ele>1428</ele>
        <time>2019-06-02T09:59:59Z</time>
      </trkpt>
      <trkpt lat="44.56991" lon="6.31014">
        <ele>1427.5999756</ele>
        <time>2019-06-02T10:00:00Z</time>
      </trkpt>
      <trkpt lat="44.56988" lon="6.31017">
        <ele>1426.8000488</ele>
        <time>2019-06-02T10:00:01Z</time>
      </trkpt>
      <trkpt lat="44.56985" lon="6.31021">
        <ele>1426.5999756</ele>
        <time>2019-06-02T10:00:02Z</time>
      </trkpt>
      <trkpt lat="44.56974" lon="6.3105">
        <ele>1424.4000244</ele>
        <time>2019-06-02T10:00:08Z</time>
      </trkpt>
      <trkpt lat="44.56974" lon="6.31062">
        <ele>1423.8000488</ele>
        <time>2019-06-02T10:00:10Z</time>
      </trkpt>
      <trkpt lat="44.56981" lon="6.31108">
        <ele>1420.8000488</ele>
        <time>2019-06-02T10:00:20Z</time>
      </trkpt>
      <trkpt lat="44.56985" lon="6.31142">
        <ele>1418.5999756</ele>
        <time>2019-06-02T10:00:27Z</time>
      </trkpt>
      <trkpt lat="44.56985" lon="6.31148">
        <ele>1418.1999512</ele>
        <time>2019-06-02T10:00:28Z</time>
      </trkpt>
      <trkpt lat="44.56983" lon="6.31153">
        <ele>1418</ele>
        <time>2019-06-02T10:00:29Z</time>
      </trkpt>
      <trkpt lat="44.56982" lon="6.31157">
        <ele>1417.8000488</ele>
        <time>2019-06-02T10:00:30Z</time>
      </trkpt>
      <trkpt lat="44.5698" lon="6.31161">
        <ele>1417.4000244</ele>
        <time>2019-06-02T10:00:31Z</time>
      </trkpt>
      <trkpt lat="44.5695" lon="6.31182">
        <ele>1414.8000488</ele>
        <time>2019-06-02T10:00:42Z</time>
      </trkpt>
      <trkpt lat="44.56927" lon="6.31207">
        <ele>1411</ele>
        <time>2019-06-02T10:00:49Z</time>
      </trkpt>
      <trkpt lat="44.56917" lon="6.31219">
        <ele>1409.8000488</ele>
        <time>2019-06-02T10:00:52Z</time>
      </trkpt>
      <trkpt lat="44.56913" lon="6.31221">
        <ele>1409.1999512</ele>
        <time>2019-06-02T10:00:53Z</time>
      </trkpt>
      <trkpt lat="44.56909" lon="6.31223">
        <ele>1408.8000488</ele>
        <time>2019-06-02T10:00:54Z</time>
      </trkpt>
      <trkpt lat="44.56899" lon="6.31224">
        <ele>1407.8000488</ele>
        <time>2019-06-02T10:00:56Z</time>
      </trkpt>
      <trkpt lat="44.56894" lon="6.31224">
        <ele>1407.1999512</ele>
        <time>2019-06-02T10:00:57Z</time>
      </trkpt>
      <trkpt lat="44.56867" lon="6.31224">
        <ele>1403.8000488</ele>
        <time>2019-06-02T10:01:04Z</time>
      </trkpt>
      <trkpt lat="44.56835" lon="6.31232">
        <ele>1400.8000488</ele>
        <time>2019-06-02T10:01:12Z</time>
      </trkpt>
      <trkpt lat="44.56819" lon="6.31238">
        <ele>1398.4000244</ele>
        <time>2019-06-02T10:01:16Z</time>
      </trkpt>
      <trkpt lat="44.56814" lon="6.31238">
        <ele>1398</ele>
        <time>2019-06-02T10:01:17Z</time>
      </trkpt>
      <trkpt lat="44.56809" lon="6.31238">
        <ele>1397.5999756</ele>
        <time>2019-06-02T10:01:18Z</time>
      </trkpt>
      <trkpt lat="44.56804" lon="6.31237">
        <ele>1397</ele>
        <time>2019-06-02T10:01:19Z</time>
      </trkpt>
      <trkpt lat="44.56799" lon="6.31235">
        <ele>1396.4000244</ele>
        <time>2019-06-02T10:01:20Z</time>
      </trkpt>
      <trkpt lat="44.5678" lon="6.3123">
        <ele>1393.1999512</ele>
        <time>2019-06-02T10:01:25Z</time>
      </trkpt>
      <trkpt lat="44.5677" lon="6.3123">
        <ele>1391.5999756</ele>
        <time>2019-06-02T10:01:28Z</time>
      </trkpt>
      <trkpt lat="44.56746" lon="6.31231">
        <ele>1388.4000244</ele>
        <time>2019-06-02T10:01:36Z</time>
      </trkpt>
      <trkpt lat="44.56724" lon="6.31258">
        <ele>1385.4000244</ele>
        <time>2019-06-02T10:01:46Z</time>
      </trkpt>
      <trkpt lat="44.56707" lon="6.3129">
        <ele>1382.4000244</ele>
        <time>2019-06-02T10:01:55Z</time>
      </trkpt>
      <trkpt lat="44.56693" lon="6.31315">
        <ele>1379.4000244</ele>
        <time>2019-06-02T10:02:04Z</time>
      </trkpt>
      <trkpt lat="44.56685" lon="6.31317">
        <ele>1378.4000244</ele>
        <time>2019-06-02T10:02:08Z</time>
      </trkpt>
      <trkpt lat="44.56683" lon="6.31315">
        <ele>1378</ele>
        <time>2019-06-02T10:02:09Z</time>
      </trkpt>
      <trkpt lat="44.56682" lon="6.31312">
        <ele>1377.5999756</ele>
        <time>2019-06-02T10:02:10Z</time>
      </trkpt>
      <trkpt lat="44.5668" lon="6.3131">
        <ele>1377.1999512</ele>
        <time>2019-06-02T10:02:11Z</time>
      </trkpt>
      <trkpt lat="44.56679" lon="6.31307">
        <ele>1377</ele>
        <time>2019-06-02T10:02:12Z</time>
      </trkpt>
      <trkpt lat="44.56679" lon="6.31303">
        <ele>1377</ele>
        <time>2019-06-02T10:02:13Z</time>
      </trkpt>
      <trkpt lat="44.56679" lon="6.31301">
        <ele>1376.8000488</ele>
        <time>2019-06-02T10:02:14Z</time>
      </trkpt>
      <trkpt lat="44.5668" lon="6.31298">
        <ele>1376.5999756</ele>
        <time>2019-06-02T10:02:15Z</time>
      </trkpt>
      <trkpt lat="44.56681" lon="6.31296">
        <ele>1376.1999512</ele>
        <time>2019-06-02T10:02:16Z</time>
      </trkpt>
      <trkpt lat="44.56682" lon="6.31293">
        <ele>1375.8000488</ele>
        <time>2019-06-02T10:02:17Z</time>
      </trkpt>
      <trkpt lat="44.56694" lon="6.31249">
        <ele>1373</ele>
        <time>2019-06-02T10:02:26Z</time>
      </trkpt>
      <trkpt lat="44.56693" lon="6.31237">
        <ele>1372.4000244</ele>
        <time>2019-06-02T10:02:28Z</time>
      </trkpt>
      <trkpt lat="44.56692" lon="6.31231">
        <ele>1371.8000488</ele>
        <time>2019-06-02T10:02:29Z</time>
      </trkpt>
      <trkpt lat="44.5669" lon="6.31226">
        <ele>1371.4000244</ele>
        <time>2019-06-02T10:02:30Z</time>
      </trkpt>
      <trkpt lat="44.56688" lon="6.31221">
        <ele>1371</ele>
        <time>2019-06-02T10:02:31Z</time>
      </trkpt>
      <trkpt lat="44.56686" lon="6.31216">
        <ele>1370.5999756</ele>
        <time>2019-06-02T10:02:32Z</time>
      </trkpt>
      <trkpt lat="44.56684" lon="6.31211">
        <ele>1370.1999512</ele>
        <time>2019-06-02T10:02:33Z</time>
      </trkpt>
      <trkpt lat="44.56662" lon="6.31188">
        <ele>1367.4000244</ele>
        <time>2019-06-02T10:02:43Z</time>
      </trkpt>
      <trkpt lat="44.56638" lon="6.31212">
        <ele>1364</ele>
        <time>2019-06-02T10:02:53Z</time>
      </trkpt>
      <trkpt lat="44.5663" lon="6.31228">
        <ele>1362</ele>
        <time>2019-06-02T10:02:57Z</time>
      </trkpt>
      <trkpt lat="44.56611" lon="6.31257">
        <ele>1358.8000488</ele>
        <time>2019-06-02T10:03:04Z</time>
      </trkpt>
      <trkpt lat="44.566" lon="6.31266">
        <ele>1357.4000244</ele>
        <time>2019-06-02T10:03:07Z</time>
      </trkpt>
      <trkpt lat="44.56563" lon="6.31266">
        <ele>1354.1999512</ele>
        <time>2019-06-02T10:03:18Z</time>
      </trkpt>
      <trkpt lat="44.56546" lon="6.31292">
        <ele>1352.8000488</ele>
        <time>2019-06-02T10:03:27Z</time>
      </trkpt>
      <trkpt lat="44.56547" lon="6.31295">
        <ele>1349.8000488</ele>
        <time>2019-06-02T10:03:35Z</time>
      </trkpt>
      <trkpt lat="44.56547" lon="6.313">
        <ele>1349.5999756</ele>
        <time>2019-06-02T10:05:10Z</time>
      </trkpt>
      <trkpt lat="44.56547" lon="6.31303">
        <ele>1349.5999756</ele>
        <time>2019-06-02T10:05:11Z</time>
      </trkpt>
      <trkpt lat="44.56558" lon="6.31349">
        <ele>1347.5999756</ele>
        <time>2019-06-02T10:05:22Z</time>
      </trkpt>
      <trkpt lat="44.56571" lon="6.31384">
        <ele>1344.5999756</ele>
        <time>2019-06-02T10:05:32Z</time>
      </trkpt>
      <trkpt lat="44.56578" lon="6.31419">
        <ele>1341.5999756</ele>
        <time>2019-06-02T10:05:39Z</time>
      </trkpt>
      <trkpt lat="44.56575" lon="6.3145">
        <ele>1338.1999512</ele>
        <time>2019-06-02T10:05:46Z</time>
      </trkpt>
      <trkpt lat="44.56574" lon="6.31454">
        <ele>1337.8000488</ele>
        <time>2019-06-02T10:05:47Z</time>
      </trkpt>
      <trkpt lat="44.56549" lon="6.31492">
        <ele>1334.8000488</ele>
        <time>2019-06-02T10:05:58Z</time>
      </trkpt>
      <trkpt lat="44.56519" lon="6.31498">
        <ele>1332.5999756</ele>
        <time>2019-06-02T10:06:09Z</time>
      </trkpt>
      <trkpt lat="44.56481" lon="6.31539">
        <ele>1332.1999512</ele>
        <time>2019-06-02T10:06:22Z</time>
      </trkpt>
      <trkpt lat="44.56481" lon="6.3157">
        <ele>1331.4000244</ele>
        <time>2019-06-02T10:06:31Z</time>
      </trkpt>
      <trkpt lat="44.56503" lon="6.31608">
        <ele>1332.1999512</ele>
        <time>2019-06-02T10:06:44Z</time>
      </trkpt>
      <trkpt lat="44.56511" lon="6.31642">
        <ele>1334</ele>
        <time>2019-06-02T10:06:54Z</time>
      </trkpt>
      <trkpt lat="44.56515" lon="6.31675">
        <ele>1336.5999756</ele>
        <time>2019-06-02T10:07:05Z</time>
      </trkpt>
      <trkpt lat="44.56505" lon="6.31712">
        <ele>1339.5999756</ele>
        <time>2019-06-02T10:07:18Z</time>
      </trkpt>
      <trkpt lat="44.56496" lon="6.31747">
        <ele>1341.8000488</ele>
        <time>2019-06-02T10:07:30Z</time>
      </trkpt>
      <trkpt lat="44.56473" lon="6.31772">
        <ele>1342.4000244</ele>
        <time>2019-06-02T10:07:42Z</time>
      </trkpt>
      <trkpt lat="44.56448" lon="6.3178">
        <ele>1344.8000488</ele>
        <time>2019-06-02T10:07:53Z</time>
      </trkpt>
      <trkpt lat="44.56419" lon="6.31778">
        <ele>1346.4000244</ele>
        <time>2019-06-02T10:08:06Z</time>
      </trkpt>
      <trkpt lat="44.56389" lon="6.31776">
        <ele>1348.1999512</ele>
        <time>2019-06-02T10:08:20Z</time>
      </trkpt>
      <trkpt lat="44.56366" lon="6.31785">
        <ele>1349.4000244</ele>
        <time>2019-06-02T10:08:31Z</time>
      </trkpt>
      <trkpt lat="44.5634" lon="6.31826">
        <ele>1352.4000244</ele>
        <time>2019-06-02T10:08:46Z</time>
      </trkpt>
      <trkpt lat="44.5633" lon="6.3186">
        <ele>1355.5999756</ele>
        <time>2019-06-02T10:08:56Z</time>
      </trkpt>
      <trkpt lat="44.56331" lon="6.31904">
        <ele>1358.5999756</ele>
        <time>2019-06-02T10:09:09Z</time>
      </trkpt>
      <trkpt lat="44.5634" lon="6.31957">
        <ele>1362</ele>
        <time>2019-06-02T10:09:25Z</time>
      </trkpt>
      <trkpt lat="44.56352" lon="6.32007">
        <ele>1365.1999512</ele>
        <time>2019-06-02T10:09:40Z</time>
      </trkpt>
      <trkpt lat="44.56354" lon="6.32041">
        <ele>1368.1999512</ele>
        <time>2019-06-02T10:09:50Z</time>
      </trkpt>
      <trkpt lat="44.5636" lon="6.32086">
        <ele>1371.4000244</ele>
        <time>2019-06-02T10:10:03Z</time>
      </trkpt>
      <trkpt lat="44.56368" lon="6.32137">
        <ele>1374.4000244</ele>
        <time>2019-06-02T10:10:18Z</time>
      </trkpt>
      <trkpt lat="44.56361" lon="6.32179">
        <ele>1377.5999756</ele>
        <time>2019-06-02T10:10:31Z</time>
      </trkpt>
      <trkpt lat="44.56357" lon="6.32217">
        <ele>1380.8000488</ele>
        <time>2019-06-02T10:10:42Z</time>
      </trkpt>
      <trkpt lat="44.56349" lon="6.32261">
        <ele>1384</ele>
        <time>2019-06-02T10:10:55Z</time>
      </trkpt>
      <trkpt lat="44.56348" lon="6.32296">
        <ele>1387</ele>
        <time>2019-06-02T10:11:05Z</time>
      </trkpt>
      <trkpt lat="44.56345" lon="6.32332">
        <ele>1390</ele>
        <time>2019-06-02T10:11:16Z</time>
      </trkpt>
      <trkpt lat="44.56348" lon="6.32376">
        <ele>1393.4000244</ele>
        <time>2019-06-02T10:11:29Z</time>
      </trkpt>
      <trkpt lat="44.5634" lon="6.32422">
        <ele>1396.5999756</ele>
        <time>2019-06-02T10:11:43Z</time>
      </trkpt>
      <trkpt lat="44.56329" lon="6.32469">
        <ele>1399.5999756</ele>
        <time>2019-06-02T10:11:58Z</time>
      </trkpt>
      <trkpt lat="44.5633" lon="6.3251">
        <ele>1402.1999512</ele>
        <time>2019-06-02T10:12:10Z</time>
      </trkpt>
      <trkpt lat="44.56334" lon="6.32536">
        <ele>1404.8000488</ele>
        <time>2019-06-02T10:12:18Z</time>
      </trkpt>
      <trkpt lat="44.56336" lon="6.32548">
        <ele>1405.8000488</ele>
        <time>2019-06-02T10:12:22Z</time>
      </trkpt>
      <trkpt lat="44.56337" lon="6.32551">
        <ele>1406</ele>
        <time>2019-06-02T10:12:23Z</time>
      </trkpt>
      <trkpt lat="44.56338" lon="6.32554">
        <ele>1406.4000244</ele>
        <time>2019-06-02T10:12:24Z</time>
      </trkpt>
      <trkpt lat="44.56343" lon="6.32587">
        <ele>1409.4000244</ele>
        <time>2019-06-02T10:12:34Z</time>
      </trkpt>
      <trkpt lat="44.56347" lon="6.32637">
        <ele>1412.8000488</ele>
        <time>2019-06-02T10:12:49Z</time>
      </trkpt>
      <trkpt lat="44.56352" lon="6.32684">
        <ele>1416</ele>
        <time>2019-06-02T10:13:03Z</time>
      </trkpt>
      <trkpt lat="44.56348" lon="6.32724">
        <ele>1419</ele>
        <time>2019-06-02T10:13:15Z</time>
      </trkpt>
      <trkpt lat="44.56355" lon="6.32763">
        <ele>1421.5999756</ele>
        <time>2019-06-02T10:13:28Z</time>
      </trkpt>
      <trkpt lat="44.56374" lon="6.32776">
        <ele>1425</ele>
        <time>2019-06-02T10:13:39Z</time>
      </trkpt>
      <trkpt lat="44.56375" lon="6.32777">
        <ele>1427.1999512</ele>
        <time>2019-06-02T10:14:13Z</time>
      </trkpt>
      <trkpt lat="44.56376" lon="6.32777">
        <ele>1426.8000488</ele>
        <time>2019-06-02T10:15:28Z</time>
      </trkpt>
      <trkpt lat="44.56377" lon="6.32779">
        <ele>1426.8000488</ele>
        <time>2019-06-02T10:15:32Z</time>
      </trkpt>
      <trkpt lat="44.56378" lon="6.3278">
        <ele>1426.8000488</ele>
        <time>2019-06-02T10:15:33Z</time>
      </trkpt>
      <trkpt lat="44.56379" lon="6.32783">
        <ele>1426.8000488</ele>
        <time>2019-06-02T10:15:34Z</time>
      </trkpt>
      <trkpt lat="44.5638" lon="6.32786">
        <ele>1426.8000488</ele>
        <time>2019-06-02T10:15:35Z</time>
      </trkpt>
      <trkpt lat="44.56381" lon="6.32789">
        <ele>1426.8000488</ele>
        <time>2019-06-02T10:15:36Z</time>
      </trkpt>
      <trkpt lat="44.56382" lon="6.32791">
        <ele>1426.8000488</ele>
        <time>2019-06-02T10:15:37Z</time>
      </trkpt>
      <trkpt lat="44.56382" lon="6.32794">
        <ele>1426.8000488</ele>
        <time>2019-06-02T10:15:38Z</time>
      </trkpt>
      <trkpt lat="44.564" lon="6.32835">
        <ele>1427.8000488</ele>
        <time>2019-06-02T10:15:53Z</time>
      </trkpt>
      <trkpt lat="44.56406" lon="6.32837">
        <ele>1429.4000244</ele>
        <time>2019-06-02T10:15:56Z</time>
      </trkpt>
      <trkpt lat="44.5643" lon="6.32852">
        <ele>1432.4000244</ele>
        <time>2019-06-02T10:16:08Z</time>
      </trkpt>
      <trkpt lat="44.56455" lon="6.3287">
        <ele>1435.5999756</ele>
        <time>2019-06-02T10:16:22Z</time>
      </trkpt>
      <trkpt lat="44.56475" lon="6.329">
        <ele>1437.5999756</ele>
        <time>2019-06-02T10:16:35Z</time>
      </trkpt>
      <trkpt lat="44.56473" lon="6.32935">
        <ele>1439.4000244</ele>
        <time>2019-06-02T10:16:47Z</time>
      </trkpt>
      <trkpt lat="44.56471" lon="6.32973">
        <ele>1442.4000244</ele>
        <time>2019-06-02T10:17:00Z</time>
      </trkpt>
      <trkpt lat="44.56481" lon="6.32996">
        <ele>1444.8000488</ele>
        <time>2019-06-02T10:17:10Z</time>
      </trkpt>
      <trkpt lat="44.56482" lon="6.32999">
        <ele>1445.4000244</ele>
        <time>2019-06-02T10:17:11Z</time>
      </trkpt>
      <trkpt lat="44.56483" lon="6.33001">
        <ele>1445.4000244</ele>
        <time>2019-06-02T10:17:12Z</time>
      </trkpt>
      <trkpt lat="44.56484" lon="6.33003">
        <ele>1445.8000488</ele>
        <time>2019-06-02T10:17:13Z</time>
      </trkpt>
      <trkpt lat="44.56485" lon="6.33005">
        <ele>1446</ele>
        <time>2019-06-02T10:17:14Z</time>
      </trkpt>
      <trkpt lat="44.56485" lon="6.33008">
        <ele>1446.4000244</ele>
        <time>2019-06-02T10:17:15Z</time>
      </trkpt>
      <trkpt lat="44.56486" lon="6.3301">
        <ele>1446.5999756</ele>
        <time>2019-06-02T10:17:16Z</time>
      </trkpt>
      <trkpt lat="44.56486" lon="6.33012">
        <ele>1446.8000488</ele>
        <time>2019-06-02T10:17:17Z</time>
      </trkpt>
      <trkpt lat="44.56487" lon="6.33015">
        <ele>1447</ele>
        <time>2019-06-02T10:17:18Z</time>
      </trkpt>
      <trkpt lat="44.56487" lon="6.33017">
        <ele>1447.1999512</ele>
        <time>2019-06-02T10:17:19Z</time>
      </trkpt>
      <trkpt lat="44.56488" lon="6.33019">
        <ele>1447.1999512</ele>
        <time>2019-06-02T10:17:20Z</time>
      </trkpt>
      <trkpt lat="44.56487" lon="6.33046">
        <ele>1449.5999756</ele>
        <time>2019-06-02T10:17:31Z</time>
      </trkpt>
      <trkpt lat="44.56479" lon="6.33072">
        <ele>1452.5999756</ele>
        <time>2019-06-02T10:17:43Z</time>
      </trkpt>
      <trkpt lat="44.56476" lon="6.331">
        <ele>1454.4000244</ele>
        <time>2019-06-02T10:17:53Z</time>
      </trkpt>
      <trkpt lat="44.56481" lon="6.33133">
        <ele>1457.8000488</ele>
        <time>2019-06-02T10:18:06Z</time>
      </trkpt>
      <trkpt lat="44.56481" lon="6.33143">
        <ele>1458.4000244</ele>
        <time>2019-06-02T10:18:10Z</time>
      </trkpt>
      <trkpt lat="44.56475" lon="6.33173">
        <ele>1460.8000488</ele>
        <time>2019-06-02T10:18:22Z</time>
      </trkpt>
      <trkpt lat="44.56474" lon="6.33175">
        <ele>1461.1999512</ele>
        <time>2019-06-02T10:18:23Z</time>
      </trkpt>
      <trkpt lat="44.56473" lon="6.33177">
        <ele>1461.1999512</ele>
        <time>2019-06-02T10:18:24Z</time>
      </trkpt>
      <trkpt lat="44.56472" lon="6.33179">
        <ele>1461.5999756</ele>
        <time>2019-06-02T10:18:25Z</time>
      </trkpt>
      <trkpt lat="44.56471" lon="6.33181">
        <ele>1461.8000488</ele>
        <time>2019-06-02T10:18:26Z</time>
      </trkpt>
      <trkpt lat="44.56471" lon="6.33183">
        <ele>1462</ele>
        <time>2019-06-02T10:18:27Z</time>
      </trkpt>
      <trkpt lat="44.5645" lon="6.33205">
        <ele>1464.8000488</ele>
        <time>2019-06-02T10:18:42Z</time>
      </trkpt>
      <trkpt lat="44.56435" lon="6.33227">
        <ele>1467.5999756</ele>
        <time>2019-06-02T10:18:54Z</time>
      </trkpt>
      <trkpt lat="44.56429" lon="6.3324">
        <ele>1469</ele>
        <time>2019-06-02T10:19:01Z</time>
      </trkpt>
      <trkpt lat="44.56413" lon="6.3327">
        <ele>1472</ele>
        <time>2019-06-02T10:19:15Z</time>
      </trkpt>
      <trkpt lat="44.56389" lon="6.333">
        <ele>1475.4000244</ele>
        <time>2019-06-02T10:19:31Z</time>
      </trkpt>
      <trkpt lat="44.56373" lon="6.33335">
        <ele>1478.1999512</ele>
        <time>2019-06-02T10:19:47Z</time>
      </trkpt>
      <trkpt lat="44.56359" lon="6.33364">
        <ele>1480.4000244</ele>
        <time>2019-06-02T10:20:01Z</time>
      </trkpt>
      <trkpt lat="44.5636" lon="6.33381">
        <ele>1481.5999756</ele>
        <time>2019-06-02T10:20:08Z</time>
      </trkpt>
      <trkpt lat="44.56362" lon="6.33382">
        <ele>1481.8000488</ele>
        <time>2019-06-02T10:20:09Z</time>
      </trkpt>
      <trkpt lat="44.56364" lon="6.33382">
        <ele>1482</ele>
        <time>2019-06-02T10:20:10Z</time>
      </trkpt>
      <trkpt lat="44.56366" lon="6.33381">
        <ele>1482.1999512</ele>
        <time>2019-06-02T10:20:11Z</time>
      </trkpt>
      <trkpt lat="44.56368" lon="6.3338">
        <ele>1482.4000244</ele>
        <time>2019-06-02T10:20:12Z</time>
      </trkpt>
      <trkpt lat="44.56369" lon="6.33379">
        <ele>1482.5999756</ele>
        <time>2019-06-02T10:20:13Z</time>
      </trkpt>
      <trkpt lat="44.56371" lon="6.33377">
        <ele>1482.8000488</ele>
        <time>2019-06-02T10:20:14Z</time>
      </trkpt>
      <trkpt lat="44.56372" lon="6.33375">
        <ele>1483</ele>
        <time>2019-06-02T10:20:15Z</time>
      </trkpt>
      <trkpt lat="44.56374" lon="6.33374">
        <ele>1483.1999512</ele>
        <time>2019-06-02T10:20:16Z</time>
      </trkpt>
      <trkpt lat="44.56396" lon="6.33353">
        <ele>1486.4000244</ele>
        <time>2019-06-02T10:20:30Z</time>
      </trkpt>
      <trkpt lat="44.56419" lon="6.33353">
        <ele>1489.1999512</ele>
        <time>2019-06-02T10:20:43Z</time>
      </trkpt>
      <trkpt lat="44.56443" lon="6.33344">
        <ele>1491.8000488</ele>
        <time>2019-06-02T10:20:58Z</time>
      </trkpt>
      <trkpt lat="44.5646" lon="6.3332">
        <ele>1494.1999512</ele>
        <time>2019-06-02T10:21:11Z</time>
      </trkpt>
      <trkpt lat="44.56471" lon="6.33319">
        <ele>1495.1999512</ele>
        <time>2019-06-02T10:21:18Z</time>
      </trkpt>
      <trkpt lat="44.56472" lon="6.33321">
        <ele>1495.4000244</ele>
        <time>2019-06-02T10:21:19Z</time>
      </trkpt>
      <trkpt lat="44.56472" lon="6.33324">
        <ele>1495.5999756</ele>
        <time>2019-06-02T10:21:20Z</time>
      </trkpt>
      <trkpt lat="44.56472" lon="6.33327">
        <ele>1495.8000488</ele>
        <time>2019-06-02T10:21:21Z</time>
      </trkpt>
      <trkpt lat="44.56472" lon="6.3333">
        <ele>1496</ele>
        <time>2019-06-02T10:21:22Z</time>
      </trkpt>
      <trkpt lat="44.56472" lon="6.33332">
        <ele>1496.1999512</ele>
        <time>2019-06-02T10:21:23Z</time>
      </trkpt>
      <trkpt lat="44.56472" lon="6.33335">
        <ele>1496.5999756</ele>
        <time>2019-06-02T10:21:24Z</time>
      </trkpt>
      <trkpt lat="44.56459" lon="6.33364">
        <ele>1499.1999512</ele>
        <time>2019-06-02T10:21:37Z</time>
      </trkpt>
      <trkpt lat="44.5645" lon="6.33395">
        <ele>1502.4000244</ele>
        <time>2019-06-02T10:21:49Z</time>
      </trkpt>
      <trkpt lat="44.5644" lon="6.33435">
        <ele>1505.1999512</ele>
        <time>2019-06-02T10:22:04Z</time>
      </trkpt>
      <trkpt lat="44.56425" lon="6.33468">
        <ele>1508.4000244</ele>
        <time>2019-06-02T10:22:19Z</time>
      </trkpt>
      <trkpt lat="44.56415" lon="6.33505">
        <ele>1511.4000244</ele>
        <time>2019-06-02T10:22:34Z</time>
      </trkpt>
      <trkpt lat="44.56416" lon="6.33508">
        <ele>1511.5999756</ele>
        <time>2019-06-02T10:22:35Z</time>
      </trkpt>
      <trkpt lat="44.56417" lon="6.3351">
        <ele>1511.8000488</ele>
        <time>2019-06-02T10:22:36Z</time>
      </trkpt>
      <trkpt lat="44.56418" lon="6.33512">
        <ele>1512</ele>
        <time>2019-06-02T10:22:37Z</time>
      </trkpt>
      <trkpt lat="44.5642" lon="6.33514">
        <ele>1512.1999512</ele>
        <time>2019-06-02T10:22:38Z</time>
      </trkpt>
      <trkpt lat="44.56421" lon="6.33516">
        <ele>1512.5999756</ele>
        <time>2019-06-02T10:22:39Z</time>
      </trkpt>
      <trkpt lat="44.56423" lon="6.33518">
        <ele>1512.5999756</ele>
        <time>2019-06-02T10:22:40Z</time>
      </trkpt>
      <trkpt lat="44.56424" lon="6.33519">
        <ele>1512.8000488</ele>
        <time>2019-06-02T10:22:41Z</time>
      </trkpt>
      <trkpt lat="44.56426" lon="6.3352">
        <ele>1513.1999512</ele>
        <time>2019-06-02T10:22:42Z</time>
      </trkpt>
      <trkpt lat="44.56428" lon="6.33521">
        <ele>1513.5999756</ele>
        <time>2019-06-02T10:22:43Z</time>
      </trkpt>
      <trkpt lat="44.56429" lon="6.33523">
        <ele>1513.8000488</ele>
        <time>2019-06-02T10:22:44Z</time>
      </trkpt>
      <trkpt lat="44.56431" lon="6.33524">
        <ele>1514</ele>
        <time>2019-06-02T10:22:45Z</time>
      </trkpt>
      <trkpt lat="44.56453" lon="6.33545">
        <ele>1516.5999756</ele>
        <time>2019-06-02T10:23:00Z</time>
      </trkpt>
      <trkpt lat="44.56471" lon="6.33571">
        <ele>1519.4000244</ele>
        <time>2019-06-02T10:23:15Z</time>
      </trkpt>
      <trkpt lat="44.56484" lon="6.33603">
        <ele>1522.4000244</ele>
        <time>2019-06-02T10:23:30Z</time>
      </trkpt>
      <trkpt lat="44.56486" lon="6.33634">
        <ele>1525.4000244</ele>
        <time>2019-06-02T10:23:43Z</time>
      </trkpt>
      <trkpt lat="44.56499" lon="6.33659">
        <ele>1527.8000488</ele>
        <time>2019-06-02T10:23:57Z</time>
      </trkpt>
      <trkpt lat="44.56514" lon="6.33668">
        <ele>1529.1999512</ele>
        <time>2019-06-02T10:24:06Z</time>
      </trkpt>
      <trkpt lat="44.56515" lon="6.33668">
        <ele>1529.8000488</ele>
        <time>2019-06-02T10:24:07Z</time>
      </trkpt>
      <trkpt lat="44.56533" lon="6.33685">
        <ele>1531.5999756</ele>
        <time>2019-06-02T10:24:19Z</time>
      </trkpt>
      <trkpt lat="44.56539" lon="6.3372">
        <ele>1533.8000488</ele>
        <time>2019-06-02T10:24:33Z</time>
      </trkpt>
      <trkpt lat="44.56544" lon="6.33755">
        <ele>1535.4000244</ele>
        <time>2019-06-02T10:24:47Z</time>
      </trkpt>
      <trkpt lat="44.56544" lon="6.33788">
        <ele>1537.5999756</ele>
        <time>2019-06-02T10:25:00Z</time>
      </trkpt>
      <trkpt lat="44.56547" lon="6.33797">
        <ele>1539</ele>
        <time>2019-06-02T10:25:04Z</time>
      </trkpt>
      <trkpt lat="44.56549" lon="6.33799">
        <ele>1539.4000244</ele>
        <time>2019-06-02T10:25:05Z</time>
      </trkpt>
      <trkpt lat="44.56549" lon="6.33802">
        <ele>1539.8000488</ele>
        <time>2019-06-02T10:25:06Z</time>
      </trkpt>
      <trkpt lat="44.5655" lon="6.33804">
        <ele>1540.1999512</ele>
        <time>2019-06-02T10:25:07Z</time>
      </trkpt>
      <trkpt lat="44.56551" lon="6.33806">
        <ele>1540.8000488</ele>
        <time>2019-06-02T10:25:08Z</time>
      </trkpt>
      <trkpt lat="44.56552" lon="6.33808">
        <ele>1541</ele>
        <time>2019-06-02T10:25:09Z</time>
      </trkpt>
      <trkpt lat="44.56553" lon="6.3381">
        <ele>1541.4000244</ele>
        <time>2019-06-02T10:25:10Z</time>
      </trkpt>
      <trkpt lat="44.56556" lon="6.33816">
        <ele>1542.1999512</ele>
        <time>2019-06-02T10:25:13Z</time>
      </trkpt>
      <trkpt lat="44.56557" lon="6.33818">
        <ele>1542.4000244</ele>
        <time>2019-06-02T10:25:14Z</time>
      </trkpt>
      <trkpt lat="44.56558" lon="6.3382">
        <ele>1542.5999756</ele>
        <time>2019-06-02T10:25:15Z</time>
      </trkpt>
      <trkpt lat="44.56559" lon="6.33822">
        <ele>1542.8000488</ele>
        <time>2019-06-02T10:25:16Z</time>
      </trkpt>
      <trkpt lat="44.5656" lon="6.33824">
        <ele>1542.8000488</ele>
        <time>2019-06-02T10:25:17Z</time>
      </trkpt>
      <trkpt lat="44.56562" lon="6.33826">
        <ele>1543</ele>
        <time>2019-06-02T10:25:18Z</time>
      </trkpt>
      <trkpt lat="44.56563" lon="6.33828">
        <ele>1543.1999512</ele>
        <time>2019-06-02T10:25:19Z</time>
      </trkpt>
      <trkpt lat="44.56564" lon="6.3383">
        <ele>1543.1999512</ele>
        <time>2019-06-02T10:25:20Z</time>
      </trkpt>
      <trkpt lat="44.56574" lon="6.33861">
        <ele>1546.4000244</ele>
        <time>2019-06-02T10:25:34Z</time>
      </trkpt>
      <trkpt lat="44.56591" lon="6.33879">
        <ele>1549.4000244</ele>
        <time>2019-06-02T10:25:46Z</time>
      </trkpt>
      <trkpt lat="44.56594" lon="6.33881">
        <ele>1549.8000488</ele>
        <time>2019-06-02T10:25:48Z</time>
      </trkpt>
      <trkpt lat="44.56595" lon="6.33883">
        <ele>1550</ele>
        <time>2019-06-02T10:25:49Z</time>
      </trkpt>
      <trkpt lat="44.56607" lon="6.3389">
        <ele>1551.4000244</ele>
        <time>2019-06-02T10:25:55Z</time>
      </trkpt>
      <trkpt lat="44.5661" lon="6.33891">
        <ele>1551.4000244</ele>
        <time>2019-06-02T10:25:56Z</time>
      </trkpt>
      <trkpt lat="44.56626" lon="6.33912">
        <ele>1552.8000488</ele>
        <time>2019-06-02T10:26:08Z</time>
      </trkpt>
      <trkpt lat="44.56628" lon="6.33912">
        <ele>1553.4000244</ele>
        <time>2019-06-02T10:26:09Z</time>
      </trkpt>
      <trkpt lat="44.5663" lon="6.33912">
        <ele>1553.8000488</ele>
        <time>2019-06-02T10:26:10Z</time>
      </trkpt>
      <trkpt lat="44.56632" lon="6.3391">
        <ele>1554</ele>
        <time>2019-06-02T10:26:11Z</time>
      </trkpt>
      <trkpt lat="44.56634" lon="6.33909">
        <ele>1554.4000244</ele>
        <time>2019-06-02T10:26:12Z</time>
      </trkpt>
      <trkpt lat="44.56636" lon="6.33907">
        <ele>1554.8000488</ele>
        <time>2019-06-02T10:26:13Z</time>
      </trkpt>
      <trkpt lat="44.56636" lon="6.33904">
        <ele>1555</ele>
        <time>2019-06-02T10:26:14Z</time>
      </trkpt>
      <trkpt lat="44.56636" lon="6.33901">
        <ele>1555.1999512</ele>
        <time>2019-06-02T10:26:15Z</time>
      </trkpt>
      <trkpt lat="44.56636" lon="6.33899">
        <ele>1555.4000244</ele>
        <time>2019-06-02T10:26:16Z</time>
      </trkpt>
      <trkpt lat="44.56636" lon="6.33896">
        <ele>1555.5999756</ele>
        <time>2019-06-02T10:26:17Z</time>
      </trkpt>
      <trkpt lat="44.56635" lon="6.33894">
        <ele>1555.8000488</ele>
        <time>2019-06-02T10:26:18Z</time>
      </trkpt>
      <trkpt lat="44.56626" lon="6.33867">
        <ele>1558.5999756</ele>
        <time>2019-06-02T10:26:29Z</time>
      </trkpt>
      <trkpt lat="44.56625" lon="6.33865">
        <ele>1558.8000488</ele>
        <time>2019-06-02T10:26:30Z</time>
      </trkpt>
      <trkpt lat="44.56619" lon="6.33836">
        <ele>1561.4000244</ele>
        <time>2019-06-02T10:26:42Z</time>
      </trkpt>
      <trkpt lat="44.56624" lon="6.3383">
        <ele>1562</ele>
        <time>2019-06-02T10:26:46Z</time>
      </trkpt>
      <trkpt lat="44.56626" lon="6.3383">
        <ele>1562</ele>
        <time>2019-06-02T10:26:47Z</time>
      </trkpt>
      <trkpt lat="44.56627" lon="6.33831">
        <ele>1562.1999512</ele>
        <time>2019-06-02T10:26:48Z</time>
      </trkpt>
      <trkpt lat="44.56628" lon="6.33833">
        <ele>1562.1999512</ele>
        <time>2019-06-02T10:26:49Z</time>
      </trkpt>
      <trkpt lat="44.5663" lon="6.33834">
        <ele>1562.4000244</ele>
        <time>2019-06-02T10:26:50Z</time>
      </trkpt>
      <trkpt lat="44.56631" lon="6.33836">
        <ele>1562.5999756</ele>
        <time>2019-06-02T10:26:51Z</time>
      </trkpt>
      <trkpt lat="44.56633" lon="6.33838">
        <ele>1562.8000488</ele>
        <time>2019-06-02T10:26:52Z</time>
      </trkpt>
      <trkpt lat="44.56636" lon="6.3384">
        <ele>1563</ele>
        <time>2019-06-02T10:26:53Z</time>
      </trkpt>
      <trkpt lat="44.56654" lon="6.3386">
        <ele>1566.1999512</ele>
        <time>2019-06-02T10:27:04Z</time>
      </trkpt>
      <trkpt lat="44.56655" lon="6.33862">
        <ele>1566.4000244</ele>
        <time>2019-06-02T10:27:05Z</time>
      </trkpt>
      <trkpt lat="44.56656" lon="6.33864">
        <ele>1566.8000488</ele>
        <time>2019-06-02T10:27:06Z</time>
      </trkpt>
      <trkpt lat="44.56658" lon="6.33866">
        <ele>1567</ele>
        <time>2019-06-02T10:27:07Z</time>
      </trkpt>
      <trkpt lat="44.56659" lon="6.33868">
        <ele>1567.4000244</ele>
        <time>2019-06-02T10:27:08Z</time>
      </trkpt>
      <trkpt lat="44.5666" lon="6.33871">
        <ele>1567.5999756</ele>
        <time>2019-06-02T10:27:09Z</time>
      </trkpt>
      <trkpt lat="44.5667" lon="6.33907">
        <ele>1570.5999756</ele>
        <time>2019-06-02T10:27:22Z</time>
      </trkpt>
      <trkpt lat="44.56673" lon="6.33916">
        <ele>1571.4000244</ele>
        <time>2019-06-02T10:27:26Z</time>
      </trkpt>
      <trkpt lat="44.56674" lon="6.33919">
        <ele>1571.4000244</ele>
        <time>2019-06-02T10:27:27Z</time>
      </trkpt>
      <trkpt lat="44.56675" lon="6.33921">
        <ele>1571.5999756</ele>
        <time>2019-06-02T10:27:28Z</time>
      </trkpt>
      <trkpt lat="44.56676" lon="6.33924">
        <ele>1572</ele>
        <time>2019-06-02T10:27:29Z</time>
      </trkpt>
      <trkpt lat="44.56677" lon="6.33927">
        <ele>1572.4000244</ele>
        <time>2019-06-02T10:27:30Z</time>
      </trkpt>
      <trkpt lat="44.56678" lon="6.3393">
        <ele>1572.5999756</ele>
        <time>2019-06-02T10:27:31Z</time>
      </trkpt>
      <trkpt lat="44.56679" lon="6.33932">
        <ele>1572.8000488</ele>
        <time>2019-06-02T10:27:32Z</time>
      </trkpt>
      <trkpt lat="44.5668" lon="6.33935">
        <ele>1573.1999512</ele>
        <time>2019-06-02T10:27:33Z</time>
      </trkpt>
      <trkpt lat="44.56681" lon="6.33937">
        <ele>1573.4000244</ele>
        <time>2019-06-02T10:27:34Z</time>
      </trkpt>
      <trkpt lat="44.56681" lon="6.3394">
        <ele>1573.8000488</ele>
        <time>2019-06-02T10:27:35Z</time>
      </trkpt>
      <trkpt lat="44.56682" lon="6.33943">
        <ele>1574</ele>
        <time>2019-06-02T10:27:36Z</time>
      </trkpt>
      <trkpt lat="44.56682" lon="6.33945">
        <ele>1574.1999512</ele>
        <time>2019-06-02T10:27:37Z</time>
      </trkpt>
      <trkpt lat="44.56686" lon="6.33978">
        <ele>1577.4000244</ele>
        <time>2019-06-02T10:27:49Z</time>
      </trkpt>
      <trkpt lat="44.56685" lon="6.34001">
        <ele>1579.4000244</ele>
        <time>2019-06-02T10:27:58Z</time>
      </trkpt>
      <trkpt lat="44.56685" lon="6.34004">
        <ele>1579.5999756</ele>
        <time>2019-06-02T10:27:59Z</time>
      </trkpt>
      <trkpt lat="44.56684" lon="6.34007">
        <ele>1579.8000488</ele>
        <time>2019-06-02T10:28:00Z</time>
      </trkpt>
      <trkpt lat="44.56683" lon="6.3401">
        <ele>1580</ele>
        <time>2019-06-02T10:28:01Z</time>
      </trkpt>
      <trkpt lat="44.56683" lon="6.34013">
        <ele>1580.1999512</ele>
        <time>2019-06-02T10:28:02Z</time>
      </trkpt>
      <trkpt lat="44.56682" lon="6.34016">
        <ele>1580.4000244</ele>
        <time>2019-06-02T10:28:03Z</time>
      </trkpt>
      <trkpt lat="44.56682" lon="6.34019">
        <ele>1580.5999756</ele>
        <time>2019-06-02T10:28:04Z</time>
      </trkpt>
      <trkpt lat="44.56682" lon="6.34021">
        <ele>1580.8000488</ele>
        <time>2019-06-02T10:28:05Z</time>
      </trkpt>
      <trkpt lat="44.56681" lon="6.34058">
        <ele>1583.4000244</ele>
        <time>2019-06-02T10:28:18Z</time>
      </trkpt>
      <trkpt lat="44.56684" lon="6.34074">
        <ele>1585</ele>
        <time>2019-06-02T10:28:26Z</time>
      </trkpt>
      <trkpt lat="44.56685" lon="6.34075">
        <ele>1585</ele>
        <time>2019-06-02T10:28:29Z</time>
      </trkpt>
      <trkpt lat="44.56685" lon="6.34078">
        <ele>1585.4000244</ele>
        <time>2019-06-02T10:28:45Z</time>
      </trkpt>
      <trkpt lat="44.56682" lon="6.34076">
        <ele>1585.1999512</ele>
        <time>2019-06-02T10:29:02Z</time>
      </trkpt>
      <trkpt lat="44.56683" lon="6.34073">
        <ele>1584.5999756</ele>
        <time>2019-06-02T10:31:24Z</time>
      </trkpt>
      <trkpt lat="44.5668" lon="6.34076">
        <ele>1585.5999756</ele>
        <time>2019-06-02T10:32:30Z</time>
      </trkpt>
      <trkpt lat="44.56683" lon="6.34071">
        <ele>1585.8000488</ele>
        <time>2019-06-02T10:33:36Z</time>
      </trkpt>
      <trkpt lat="44.56689" lon="6.34073">
        <ele>1585.8000488</ele>
        <time>2019-06-02T10:33:43Z</time>
      </trkpt>
      <trkpt lat="44.5669" lon="6.34074">
        <ele>1585.8000488</ele>
        <time>2019-06-02T10:33:44Z</time>
      </trkpt>
      <trkpt lat="44.56691" lon="6.34076">
        <ele>1585.8000488</ele>
        <time>2019-06-02T10:33:45Z</time>
      </trkpt>
      <trkpt lat="44.567" lon="6.3409">
        <ele>1586.8000488</ele>
        <time>2019-06-02T10:34:00Z</time>
      </trkpt>
      <trkpt lat="44.56709" lon="6.34109">
        <ele>1587.1999512</ele>
        <time>2019-06-02T10:34:21Z</time>
      </trkpt>
      <trkpt lat="44.56712" lon="6.34112">
        <ele>1587.1999512</ele>
        <time>2019-06-02T10:34:29Z</time>
      </trkpt>
      <trkpt lat="44.56713" lon="6.34114">
        <ele>1587.1999512</ele>
        <time>2019-06-02T10:34:30Z</time>
      </trkpt>
      <trkpt lat="44.56714" lon="6.34117">
        <ele>1587.1999512</ele>
        <time>2019-06-02T10:34:31Z</time>
      </trkpt>
      <trkpt lat="44.56742" lon="6.34159">
        <ele>1586</ele>
        <time>2019-06-02T10:34:43Z</time>
      </trkpt>
      <trkpt lat="44.56775" lon="6.34179">
        <ele>1584.5999756</ele>
        <time>2019-06-02T10:34:52Z</time>
      </trkpt>
      <trkpt lat="44.5679" lon="6.34182">
        <ele>1584.4000244</ele>
        <time>2019-06-02T10:34:55Z</time>
      </trkpt>
      <trkpt lat="44.56794" lon="6.34182">
        <ele>1584.4000244</ele>
        <time>2019-06-02T10:34:56Z</time>
      </trkpt>
      <trkpt lat="44.56803" lon="6.34182">
        <ele>1583.5999756</ele>
        <time>2019-06-02T10:34:58Z</time>
      </trkpt>
      <trkpt lat="44.56807" lon="6.34183">
        <ele>1583.1999512</ele>
        <time>2019-06-02T10:34:59Z</time>
      </trkpt>
      <trkpt lat="44.56812" lon="6.34185">
        <ele>1583.1999512</ele>
        <time>2019-06-02T10:35:00Z</time>
      </trkpt>
      <trkpt lat="44.56816" lon="6.34188">
        <ele>1583</ele>
        <time>2019-06-02T10:35:01Z</time>
      </trkpt>
      <trkpt lat="44.56819" lon="6.34192">
        <ele>1582.5999756</ele>
        <time>2019-06-02T10:35:02Z</time>
      </trkpt>
      <trkpt lat="44.56823" lon="6.34197">
        <ele>1582.1999512</ele>
        <time>2019-06-02T10:35:03Z</time>
      </trkpt>
      <trkpt lat="44.56825" lon="6.34203">
        <ele>1582</ele>
        <time>2019-06-02T10:35:04Z</time>
      </trkpt>
      <trkpt lat="44.56828" lon="6.34209">
        <ele>1581.8000488</ele>
        <time>2019-06-02T10:35:05Z</time>
      </trkpt>
      <trkpt lat="44.5683" lon="6.34216">
        <ele>1581.5999756</ele>
        <time>2019-06-02T10:35:06Z</time>
      </trkpt>
      <trkpt lat="44.56832" lon="6.34223">
        <ele>1581</ele>
        <time>2019-06-02T10:35:07Z</time>
      </trkpt>
      <trkpt lat="44.56835" lon="6.34238">
        <ele>1580.1999512</ele>
        <time>2019-06-02T10:35:09Z</time>
      </trkpt>
      <trkpt lat="44.56841" lon="6.34261">
        <ele>1579.4000244</ele>
        <time>2019-06-02T10:35:12Z</time>
      </trkpt>
      <trkpt lat="44.56844" lon="6.34269">
        <ele>1579</ele>
        <time>2019-06-02T10:35:13Z</time>
      </trkpt>
      <trkpt lat="44.56852" lon="6.34302">
        <ele>1577.4000244</ele>
        <time>2019-06-02T10:35:17Z</time>
      </trkpt>
      <trkpt lat="44.56853" lon="6.34309">
        <ele>1577.1999512</ele>
        <time>2019-06-02T10:35:18Z</time>
      </trkpt>
      <trkpt lat="44.56855" lon="6.34322">
        <ele>1576.5999756</ele>
        <time>2019-06-02T10:35:20Z</time>
      </trkpt>
      <trkpt lat="44.56856" lon="6.34335">
        <ele>1576</ele>
        <time>2019-06-02T10:35:22Z</time>
      </trkpt>
      <trkpt lat="44.56855" lon="6.34341">
        <ele>1575.5999756</ele>
        <time>2019-06-02T10:35:23Z</time>
      </trkpt>
      <trkpt lat="44.56853" lon="6.34348">
        <ele>1575.4000244</ele>
        <time>2019-06-02T10:35:24Z</time>
      </trkpt>
      <trkpt lat="44.5685" lon="6.34354">
        <ele>1575</ele>
        <time>2019-06-02T10:35:25Z</time>
      </trkpt>
      <trkpt lat="44.56847" lon="6.34359">
        <ele>1574.5999756</ele>
        <time>2019-06-02T10:35:26Z</time>
      </trkpt>
      <trkpt lat="44.56843" lon="6.34365">
        <ele>1574.1999512</ele>
        <time>2019-06-02T10:35:27Z</time>
      </trkpt>
      <trkpt lat="44.56836" lon="6.34377">
        <ele>1573.8000488</ele>
        <time>2019-06-02T10:35:29Z</time>
      </trkpt>
      <trkpt lat="44.56833" lon="6.34383">
        <ele>1573.1999512</ele>
        <time>2019-06-02T10:35:30Z</time>
      </trkpt>
      <trkpt lat="44.5683" lon="6.3439">
        <ele>1572.1999512</ele>
        <time>2019-06-02T10:35:31Z</time>
      </trkpt>
      <trkpt lat="44.56827" lon="6.34396">
        <ele>1572.1999512</ele>
        <time>2019-06-02T10:35:32Z</time>
      </trkpt>
      <trkpt lat="44.56824" lon="6.34403">
        <ele>1570.8000488</ele>
        <time>2019-06-02T10:35:33Z</time>
      </trkpt>
      <trkpt lat="44.56811" lon="6.34447">
        <ele>1567.5999756</ele>
        <time>2019-06-02T10:35:39Z</time>
      </trkpt>
      <trkpt lat="44.56807" lon="6.3446">
        <ele>1566.8000488</ele>
        <time>2019-06-02T10:35:41Z</time>
      </trkpt>
      <trkpt lat="44.56805" lon="6.34467">
        <ele>1566.4000244</ele>
        <time>2019-06-02T10:35:42Z</time>
      </trkpt>
      <trkpt lat="44.568" lon="6.34479">
        <ele>1565.1999512</ele>
        <time>2019-06-02T10:35:44Z</time>
      </trkpt>
      <trkpt lat="44.56798" lon="6.34487">
        <ele>1564.8000488</ele>
        <time>2019-06-02T10:35:45Z</time>
      </trkpt>
      <trkpt lat="44.56796" lon="6.34494">
        <ele>1564.4000244</ele>
        <time>2019-06-02T10:35:46Z</time>
      </trkpt>
      <trkpt lat="44.56788" lon="6.34542">
        <ele>1563</ele>
        <time>2019-06-02T10:35:52Z</time>
      </trkpt>
      <trkpt lat="44.5679" lon="6.34568">
        <ele>1562.8000488</ele>
        <time>2019-06-02T10:35:56Z</time>
      </trkpt>
      <trkpt lat="44.5679" lon="6.34574">
        <ele>1562.1999512</ele>
        <time>2019-06-02T10:35:57Z</time>
      </trkpt>
      <trkpt lat="44.5679" lon="6.34579">
        <ele>1561.5999756</ele>
        <time>2019-06-02T10:35:58Z</time>
      </trkpt>
      <trkpt lat="44.56789" lon="6.34585">
        <ele>1561.4000244</ele>
        <time>2019-06-02T10:35:59Z</time>
      </trkpt>
      <trkpt lat="44.56786" lon="6.34589">
        <ele>1560.8000488</ele>
        <time>2019-06-02T10:36:00Z</time>
      </trkpt>
      <trkpt lat="44.56783" lon="6.34594">
        <ele>1560.4000244</ele>
        <time>2019-06-02T10:36:01Z</time>
      </trkpt>
      <trkpt lat="44.56779" lon="6.34597">
        <ele>1560</ele>
        <time>2019-06-02T10:36:02Z</time>
      </trkpt>
      <trkpt lat="44.56775" lon="6.34598">
        <ele>1559.8000488</ele>
        <time>2019-06-02T10:36:03Z</time>
      </trkpt>
      <trkpt lat="44.56771" lon="6.34601">
        <ele>1559.5999756</ele>
        <time>2019-06-02T10:36:04Z</time>
      </trkpt>
      <trkpt lat="44.56767" lon="6.34604">
        <ele>1559.4000244</ele>
        <time>2019-06-02T10:36:05Z</time>
      </trkpt>
      <trkpt lat="44.56763" lon="6.34608">
        <ele>1559</ele>
        <time>2019-06-02T10:36:06Z</time>
      </trkpt>
      <trkpt lat="44.56759" lon="6.34612">
        <ele>1558.4000244</ele>
        <time>2019-06-02T10:36:07Z</time>
      </trkpt>
      <trkpt lat="44.56736" lon="6.34641">
        <ele>1555.1999512</ele>
        <time>2019-06-02T10:36:15Z</time>
      </trkpt>
      <trkpt lat="44.56714" lon="6.34661">
        <ele>1552</ele>
        <time>2019-06-02T10:36:23Z</time>
      </trkpt>
      <trkpt lat="44.567" lon="6.34677">
        <ele>1550.5999756</ele>
        <time>2019-06-02T10:36:28Z</time>
      </trkpt>
      <trkpt lat="44.56699" lon="6.34682">
        <ele>1550.4000244</ele>
        <time>2019-06-02T10:36:29Z</time>
      </trkpt>
      <trkpt lat="44.56698" lon="6.34686">
        <ele>1550.4000244</ele>
        <time>2019-06-02T10:36:30Z</time>
      </trkpt>
      <trkpt lat="44.56699" lon="6.34724">
        <ele>1548.8000488</ele>
        <time>2019-06-02T10:36:37Z</time>
      </trkpt>
      <trkpt lat="44.56701" lon="6.34729">
        <ele>1548.8000488</ele>
        <time>2019-06-02T10:36:38Z</time>
      </trkpt>
      <trkpt lat="44.56703" lon="6.34735">
        <ele>1548.5999756</ele>
        <time>2019-06-02T10:36:39Z</time>
      </trkpt>
      <trkpt lat="44.56705" lon="6.3474">
        <ele>1548.1999512</ele>
        <time>2019-06-02T10:36:40Z</time>
      </trkpt>
      <trkpt lat="44.56705" lon="6.34745">
        <ele>1547.8000488</ele>
        <time>2019-06-02T10:36:41Z</time>
      </trkpt>
      <trkpt lat="44.56706" lon="6.34749">
        <ele>1547</ele>
        <time>2019-06-02T10:36:42Z</time>
      </trkpt>
      <trkpt lat="44.56706" lon="6.34755">
        <ele>1546.1999512</ele>
        <time>2019-06-02T10:36:44Z</time>
      </trkpt>
      <trkpt lat="44.56706" lon="6.34762">
        <ele>1545</ele>
        <time>2019-06-02T10:36:46Z</time>
      </trkpt>
      <trkpt lat="44.56706" lon="6.34766">
        <ele>1544.4000244</ele>
        <time>2019-06-02T10:36:48Z</time>
      </trkpt>
      <trkpt lat="44.56701" lon="6.34784">
        <ele>1544</ele>
        <time>2019-06-02T10:36:52Z</time>
      </trkpt>
      <trkpt lat="44.56701" lon="6.34789">
        <ele>1543.8000488</ele>
        <time>2019-06-02T10:36:53Z</time>
      </trkpt>
      <trkpt lat="44.56701" lon="6.348">
        <ele>1543.8000488</ele>
        <time>2019-06-02T10:36:55Z</time>
      </trkpt>
      <trkpt lat="44.56702" lon="6.34806">
        <ele>1543.8000488</ele>
        <time>2019-06-02T10:36:56Z</time>
      </trkpt>
      <trkpt lat="44.56704" lon="6.34812">
        <ele>1543.8000488</ele>
        <time>2019-06-02T10:36:57Z</time>
      </trkpt>
      <trkpt lat="44.56708" lon="6.34817">
        <ele>1543.8000488</ele>
        <time>2019-06-02T10:36:58Z</time>
      </trkpt>
      <trkpt lat="44.56712" lon="6.34823">
        <ele>1543.5999756</ele>
        <time>2019-06-02T10:36:59Z</time>
      </trkpt>
      <trkpt lat="44.56744" lon="6.34866">
        <ele>1540.5999756</ele>
        <time>2019-06-02T10:37:07Z</time>
      </trkpt>
      <trkpt lat="44.56758" lon="6.34878">
        <ele>1538.5999756</ele>
        <time>2019-06-02T10:37:10Z</time>
      </trkpt>
      <trkpt lat="44.56762" lon="6.34883">
        <ele>1537.5999756</ele>
        <time>2019-06-02T10:37:11Z</time>
      </trkpt>
      <trkpt lat="44.56766" lon="6.34889">
        <ele>1537.1999512</ele>
        <time>2019-06-02T10:37:12Z</time>
      </trkpt>
      <trkpt lat="44.56773" lon="6.349">
        <ele>1536.4000244</ele>
        <time>2019-06-02T10:37:14Z</time>
      </trkpt>
      <trkpt lat="44.56775" lon="6.34906">
        <ele>1536</ele>
        <time>2019-06-02T10:37:15Z</time>
      </trkpt>
      <trkpt lat="44.56778" lon="6.34912">
        <ele>1535.4000244</ele>
        <time>2019-06-02T10:37:16Z</time>
      </trkpt>
      <trkpt lat="44.56779" lon="6.34918">
        <ele>1534.8000488</ele>
        <time>2019-06-02T10:37:17Z</time>
      </trkpt>
      <trkpt lat="44.56781" lon="6.34925">
        <ele>1534</ele>
        <time>2019-06-02T10:37:18Z</time>
      </trkpt>
      <trkpt lat="44.56782" lon="6.34931">
        <ele>1533.1999512</ele>
        <time>2019-06-02T10:37:19Z</time>
      </trkpt>
      <trkpt lat="44.56782" lon="6.34937">
        <ele>1532.5999756</ele>
        <time>2019-06-02T10:37:20Z</time>
      </trkpt>
      <trkpt lat="44.5678" lon="6.34943">
        <ele>1532</ele>
        <time>2019-06-02T10:37:21Z</time>
      </trkpt>
      <trkpt lat="44.56777" lon="6.34949">
        <ele>1531.4000244</ele>
        <time>2019-06-02T10:37:22Z</time>
      </trkpt>
      <trkpt lat="44.56774" lon="6.34954">
        <ele>1531</ele>
        <time>2019-06-02T10:37:23Z</time>
      </trkpt>
      <trkpt lat="44.56761" lon="6.34975">
        <ele>1528.5999756</ele>
        <time>2019-06-02T10:37:27Z</time>
      </trkpt>
      <trkpt lat="44.56751" lon="6.34992">
        <ele>1526.5999756</ele>
        <time>2019-06-02T10:37:30Z</time>
      </trkpt>
      <trkpt lat="44.56736" lon="6.35011">
        <ele>1525.5999756</ele>
        <time>2019-06-02T10:37:34Z</time>
      </trkpt>
      <trkpt lat="44.56729" lon="6.35022">
        <ele>1525.1999512</ele>
        <time>2019-06-02T10:37:36Z</time>
      </trkpt>
      <trkpt lat="44.56725" lon="6.35027">
        <ele>1525</ele>
        <time>2019-06-02T10:37:37Z</time>
      </trkpt>
      <trkpt lat="44.56721" lon="6.35031">
        <ele>1524.8000488</ele>
        <time>2019-06-02T10:37:38Z</time>
      </trkpt>
      <trkpt lat="44.56712" lon="6.35038">
        <ele>1524.5999756</ele>
        <time>2019-06-02T10:37:40Z</time>
      </trkpt>
      <trkpt lat="44.56709" lon="6.35041">
        <ele>1524.5999756</ele>
        <time>2019-06-02T10:37:41Z</time>
      </trkpt>
      <trkpt lat="44.56702" lon="6.35049">
        <ele>1524.4000244</ele>
        <time>2019-06-02T10:37:43Z</time>
      </trkpt>
      <trkpt lat="44.56698" lon="6.35053">
        <ele>1524.4000244</ele>
        <time>2019-06-02T10:37:44Z</time>
      </trkpt>
      <trkpt lat="44.56681" lon="6.3507">
        <ele>1523.5999756</ele>
        <time>2019-06-02T10:37:49Z</time>
      </trkpt>
      <trkpt lat="44.5668" lon="6.35074">
        <ele>1523.4000244</ele>
        <time>2019-06-02T10:37:50Z</time>
      </trkpt>
      <trkpt lat="44.56679" lon="6.35079">
        <ele>1523.4000244</ele>
        <time>2019-06-02T10:37:51Z</time>
      </trkpt>
      <trkpt lat="44.56679" lon="6.35084">
        <ele>1523.1999512</ele>
        <time>2019-06-02T10:37:52Z</time>
      </trkpt>
      <trkpt lat="44.56679" lon="6.35089">
        <ele>1523</ele>
        <time>2019-06-02T10:37:53Z</time>
      </trkpt>
      <trkpt lat="44.5668" lon="6.35093">
        <ele>1522.8000488</ele>
        <time>2019-06-02T10:37:54Z</time>
      </trkpt>
      <trkpt lat="44.56681" lon="6.35098">
        <ele>1522.5999756</ele>
        <time>2019-06-02T10:37:55Z</time>
      </trkpt>
      <trkpt lat="44.56682" lon="6.35102">
        <ele>1522.5999756</ele>
        <time>2019-06-02T10:37:56Z</time>
      </trkpt>
      <trkpt lat="44.56682" lon="6.35107">
        <ele>1522.4000244</ele>
        <time>2019-06-02T10:37:57Z</time>
      </trkpt>
      <trkpt lat="44.56683" lon="6.35112">
        <ele>1522.4000244</ele>
        <time>2019-06-02T10:37:58Z</time>
      </trkpt>
      <trkpt lat="44.56685" lon="6.35145">
        <ele>1522.1999512</ele>
        <time>2019-06-02T10:38:04Z</time>
      </trkpt>
      <trkpt lat="44.56678" lon="6.35173">
        <ele>1522</ele>
        <time>2019-06-02T10:38:09Z</time>
      </trkpt>
      <trkpt lat="44.56675" lon="6.3518">
        <ele>1522</ele>
        <time>2019-06-02T10:38:10Z</time>
      </trkpt>
      <trkpt lat="44.56668" lon="6.35195">
        <ele>1521.5999756</ele>
        <time>2019-06-02T10:38:12Z</time>
      </trkpt>
      <trkpt lat="44.56664" lon="6.35202">
        <ele>1521.4000244</ele>
        <time>2019-06-02T10:38:13Z</time>
      </trkpt>
      <trkpt lat="44.5666" lon="6.35207">
        <ele>1521</ele>
        <time>2019-06-02T10:38:14Z</time>
      </trkpt>
      <trkpt lat="44.56656" lon="6.35211">
        <ele>1520.5999756</ele>
        <time>2019-06-02T10:38:15Z</time>
      </trkpt>
      <trkpt lat="44.56651" lon="6.35214">
        <ele>1520.1999512</ele>
        <time>2019-06-02T10:38:16Z</time>
      </trkpt>
      <trkpt lat="44.56647" lon="6.35216">
        <ele>1519.8000488</ele>
        <time>2019-06-02T10:38:17Z</time>
      </trkpt>
      <trkpt lat="44.56643" lon="6.35218">
        <ele>1519.4000244</ele>
        <time>2019-06-02T10:38:18Z</time>
      </trkpt>
      <trkpt lat="44.56639" lon="6.3522">
        <ele>1518.4000244</ele>
        <time>2019-06-02T10:38:19Z</time>
      </trkpt>
      <trkpt lat="44.56635" lon="6.35223">
        <ele>1517.4000244</ele>
        <time>2019-06-02T10:38:20Z</time>
      </trkpt>
      <trkpt lat="44.56631" lon="6.35227">
        <ele>1517</ele>
        <time>2019-06-02T10:38:21Z</time>
      </trkpt>
      <trkpt lat="44.56628" lon="6.35231">
        <ele>1516.8000488</ele>
        <time>2019-06-02T10:38:22Z</time>
      </trkpt>
      <trkpt lat="44.56625" lon="6.35236">
        <ele>1516.5999756</ele>
        <time>2019-06-02T10:38:23Z</time>
      </trkpt>
      <trkpt lat="44.56622" lon="6.35241">
        <ele>1516.4000244</ele>
        <time>2019-06-02T10:38:24Z</time>
      </trkpt>
      <trkpt lat="44.5662" lon="6.35247">
        <ele>1516.4000244</ele>
        <time>2019-06-02T10:38:25Z</time>
      </trkpt>
      <trkpt lat="44.56618" lon="6.35253">
        <ele>1516.1999512</ele>
        <time>2019-06-02T10:38:26Z</time>
      </trkpt>
      <trkpt lat="44.56616" lon="6.3526">
        <ele>1516.1999512</ele>
        <time>2019-06-02T10:38:27Z</time>
      </trkpt>
      <trkpt lat="44.56615" lon="6.35272">
        <ele>1516.1999512</ele>
        <time>2019-06-02T10:38:29Z</time>
      </trkpt>
      <trkpt lat="44.56615" lon="6.35285">
        <ele>1516.1999512</ele>
        <time>2019-06-02T10:38:31Z</time>
      </trkpt>
      <trkpt lat="44.56614" lon="6.35292">
        <ele>1516.1999512</ele>
        <time>2019-06-02T10:38:32Z</time>
      </trkpt>
      <trkpt lat="44.56613" lon="6.35299">
        <ele>1515.8000488</ele>
        <time>2019-06-02T10:38:33Z</time>
      </trkpt>
      <trkpt lat="44.56582" lon="6.35394">
        <ele>1513.4000244</ele>
        <time>2019-06-02T10:38:47Z</time>
      </trkpt>
      <trkpt lat="44.56565" lon="6.3544">
        <ele>1512</ele>
        <time>2019-06-02T10:38:53Z</time>
      </trkpt>
      <trkpt lat="44.56552" lon="6.3547">
        <ele>1509.8000488</ele>
        <time>2019-06-02T10:38:58Z</time>
      </trkpt>
      <trkpt lat="44.56552" lon="6.35477">
        <ele>1509.4000244</ele>
        <time>2019-06-02T10:38:59Z</time>
      </trkpt>
      <trkpt lat="44.56552" lon="6.35484">
        <ele>1509.4000244</ele>
        <time>2019-06-02T10:39:00Z</time>
      </trkpt>
      <trkpt lat="44.56554" lon="6.35515">
        <ele>1509</ele>
        <time>2019-06-02T10:39:04Z</time>
      </trkpt>
      <trkpt lat="44.56554" lon="6.35524">
        <ele>1509</ele>
        <time>2019-06-02T10:39:05Z</time>
      </trkpt>
      <trkpt lat="44.56553" lon="6.35531">
        <ele>1508.8000488</ele>
        <time>2019-06-02T10:39:06Z</time>
      </trkpt>
      <trkpt lat="44.56552" lon="6.35538">
        <ele>1508.8000488</ele>
        <time>2019-06-02T10:39:07Z</time>
      </trkpt>
      <trkpt lat="44.5655" lon="6.35545">
        <ele>1508.5999756</ele>
        <time>2019-06-02T10:39:08Z</time>
      </trkpt>
      <trkpt lat="44.56529" lon="6.35607">
        <ele>1507.5999756</ele>
        <time>2019-06-02T10:39:20Z</time>
      </trkpt>
      <trkpt lat="44.56531" lon="6.35662">
        <ele>1508</ele>
        <time>2019-06-02T10:39:30Z</time>
      </trkpt>
      <trkpt lat="44.56535" lon="6.3568">
        <ele>1508</ele>
        <time>2019-06-02T10:39:33Z</time>
      </trkpt>
      <trkpt lat="44.56536" lon="6.35686">
        <ele>1508</ele>
        <time>2019-06-02T10:39:34Z</time>
      </trkpt>
      <trkpt lat="44.56538" lon="6.35706">
        <ele>1508</ele>
        <time>2019-06-02T10:39:37Z</time>
      </trkpt>
      <trkpt lat="44.56534" lon="6.35748">
        <ele>1506.8000488</ele>
        <time>2019-06-02T10:39:44Z</time>
      </trkpt>
      <trkpt lat="44.56514" lon="6.35818">
        <ele>1506.5999756</ele>
        <time>2019-06-02T10:39:58Z</time>
      </trkpt>
      <trkpt lat="44.56499" lon="6.35878">
        <ele>1506.5999756</ele>
        <time>2019-06-02T10:40:11Z</time>
      </trkpt>
      <trkpt lat="44.56504" lon="6.35933">
        <ele>1506.5999756</ele>
        <time>2019-06-02T10:40:21Z</time>
      </trkpt>
      <trkpt lat="44.56502" lon="6.36017">
        <ele>1507.5999756</ele>
        <time>2019-06-02T10:40:36Z</time>
      </trkpt>
      <trkpt lat="44.56504" lon="6.36023">
        <ele>1507.5999756</ele>
        <time>2019-06-02T10:40:37Z</time>
      </trkpt>
      <trkpt lat="44.56505" lon="6.36029">
        <ele>1507.5999756</ele>
        <time>2019-06-02T10:40:38Z</time>
      </trkpt>
      <trkpt lat="44.56508" lon="6.36047">
        <ele>1507.5999756</ele>
        <time>2019-06-02T10:40:41Z</time>
      </trkpt>
      <trkpt lat="44.56527" lon="6.36109">
        <ele>1507.1999512</ele>
        <time>2019-06-02T10:40:53Z</time>
      </trkpt>
      <trkpt lat="44.56548" lon="6.36149">
        <ele>1507.4000244</ele>
        <time>2019-06-02T10:41:02Z</time>
      </trkpt>
      <trkpt lat="44.56561" lon="6.36165">
        <ele>1507.4000244</ele>
        <time>2019-06-02T10:41:06Z</time>
      </trkpt>
      <trkpt lat="44.56564" lon="6.36169">
        <ele>1507.4000244</ele>
        <time>2019-06-02T10:41:07Z</time>
      </trkpt>
      <trkpt lat="44.56605" lon="6.3622">
        <ele>1507.1999512</ele>
        <time>2019-06-02T10:41:21Z</time>
      </trkpt>
      <trkpt lat="44.56637" lon="6.36246">
        <ele>1507.5999756</ele>
        <time>2019-06-02T10:41:33Z</time>
      </trkpt>
      <trkpt lat="44.56665" lon="6.36251">
        <ele>1508.5999756</ele>
        <time>2019-06-02T10:41:46Z</time>
      </trkpt>
      <trkpt lat="44.56687" lon="6.3626">
        <ele>1508.5999756</ele>
        <time>2019-06-02T10:41:52Z</time>
      </trkpt>
      <trkpt lat="44.56724" lon="6.36281">
        <ele>1507</ele>
        <time>2019-06-02T10:42:04Z</time>
      </trkpt>
      <trkpt lat="44.56775" lon="6.36347">
        <ele>1504.1999512</ele>
        <time>2019-06-02T10:42:20Z</time>
      </trkpt>
      <trkpt lat="44.56795" lon="6.36374">
        <ele>1503</ele>
        <time>2019-06-02T10:42:26Z</time>
      </trkpt>
      <trkpt lat="44.5684" lon="6.36406">
        <ele>1501</ele>
        <time>2019-06-02T10:42:40Z</time>
      </trkpt>
      <trkpt lat="44.56851" lon="6.36416">
        <ele>1500.8000488</ele>
        <time>2019-06-02T10:42:43Z</time>
      </trkpt>
      <trkpt lat="44.56858" lon="6.36423">
        <ele>1500.5999756</ele>
        <time>2019-06-02T10:42:45Z</time>
      </trkpt>
      <trkpt lat="44.56902" lon="6.36456">
        <ele>1499.5999756</ele>
        <time>2019-06-02T10:42:58Z</time>
      </trkpt>
      <trkpt lat="44.56933" lon="6.3647">
        <ele>1500.4000244</ele>
        <time>2019-06-02T10:43:09Z</time>
      </trkpt>
      <trkpt lat="44.56969" lon="6.36494">
        <ele>1501.1999512</ele>
        <time>2019-06-02T10:43:21Z</time>
      </trkpt>
      <trkpt lat="44.57001" lon="6.36508">
        <ele>1501.8000488</ele>
        <time>2019-06-02T10:43:34Z</time>
      </trkpt>
      <trkpt lat="44.57038" lon="6.36508">
        <ele>1503.1999512</ele>
        <time>2019-06-02T10:43:47Z</time>
      </trkpt>
      <trkpt lat="44.57073" lon="6.36511">
        <ele>1503.8000488</ele>
        <time>2019-06-02T10:44:00Z</time>
      </trkpt>
      <trkpt lat="44.57104" lon="6.36509">
        <ele>1506</ele>
        <time>2019-06-02T10:44:13Z</time>
      </trkpt>
      <trkpt lat="44.5714" lon="6.36496">
        <ele>1506.5999756</ele>
        <time>2019-06-02T10:44:27Z</time>
      </trkpt>
      <trkpt lat="44.57165" lon="6.36482">
        <ele>1505.4000244</ele>
        <time>2019-06-02T10:44:34Z</time>
      </trkpt>
      <trkpt lat="44.57201" lon="6.36459">
        <ele>1503.1999512</ele>
        <time>2019-06-02T10:44:44Z</time>
      </trkpt>
      <trkpt lat="44.57216" lon="6.36429">
        <ele>1501.8000488</ele>
        <time>2019-06-02T10:44:54Z</time>
      </trkpt>
      <trkpt lat="44.57245" lon="6.36407">
        <ele>1499.8000488</ele>
        <time>2019-06-02T10:45:04Z</time>
      </trkpt>
      <trkpt lat="44.57275" lon="6.36395">
        <ele>1497.1999512</ele>
        <time>2019-06-02T10:45:13Z</time>
      </trkpt>
      <trkpt lat="44.57299" lon="6.36377">
        <ele>1495.4000244</ele>
        <time>2019-06-02T10:45:21Z</time>
      </trkpt>
      <trkpt lat="44.57301" lon="6.36372">
        <ele>1495.1999512</ele>
        <time>2019-06-02T10:45:22Z</time>
      </trkpt>
      <trkpt lat="44.57303" lon="6.36368">
        <ele>1494.8000488</ele>
        <time>2019-06-02T10:45:23Z</time>
      </trkpt>
      <trkpt lat="44.57306" lon="6.36365">
        <ele>1494.5999756</ele>
        <time>2019-06-02T10:45:24Z</time>
      </trkpt>
      <trkpt lat="44.5731" lon="6.36363">
        <ele>1494.4000244</ele>
        <time>2019-06-02T10:45:25Z</time>
      </trkpt>
      <trkpt lat="44.57313" lon="6.36363">
        <ele>1494.1999512</ele>
        <time>2019-06-02T10:45:26Z</time>
      </trkpt>
      <trkpt lat="44.57317" lon="6.36363">
        <ele>1494.1999512</ele>
        <time>2019-06-02T10:45:27Z</time>
      </trkpt>
      <trkpt lat="44.57322" lon="6.36364">
        <ele>1494</ele>
        <time>2019-06-02T10:45:28Z</time>
      </trkpt>
      <trkpt lat="44.57352" lon="6.36357">
        <ele>1491.5999756</ele>
        <time>2019-06-02T10:45:38Z</time>
      </trkpt>
      <trkpt lat="44.57382" lon="6.36318">
        <ele>1489</ele>
        <time>2019-06-02T10:45:46Z</time>
      </trkpt>
      <trkpt lat="44.57386" lon="6.36315">
        <ele>1488.4000244</ele>
        <time>2019-06-02T10:45:47Z</time>
      </trkpt>
      <trkpt lat="44.57393" lon="6.36307">
        <ele>1486.5999756</ele>
        <time>2019-06-02T10:45:49Z</time>
      </trkpt>
      <trkpt lat="44.57397" lon="6.36303">
        <ele>1486</ele>
        <time>2019-06-02T10:45:50Z</time>
      </trkpt>
      <trkpt lat="44.57399" lon="6.36299">
        <ele>1485.5999756</ele>
        <time>2019-06-02T10:45:51Z</time>
      </trkpt>
      <trkpt lat="44.57402" lon="6.36295">
        <ele>1485.4000244</ele>
        <time>2019-06-02T10:45:52Z</time>
      </trkpt>
      <trkpt lat="44.57405" lon="6.3629">
        <ele>1485.1999512</ele>
        <time>2019-06-02T10:45:53Z</time>
      </trkpt>
      <trkpt lat="44.57408" lon="6.36285">
        <ele>1485</ele>
        <time>2019-06-02T10:45:54Z</time>
      </trkpt>
      <trkpt lat="44.57411" lon="6.36278">
        <ele>1484.8000488</ele>
        <time>2019-06-02T10:45:55Z</time>
      </trkpt>
      <trkpt lat="44.57418" lon="6.36259">
        <ele>1484.4000244</ele>
        <time>2019-06-02T10:45:58Z</time>
      </trkpt>
      <trkpt lat="44.5742" lon="6.36252">
        <ele>1484</ele>
        <time>2019-06-02T10:45:59Z</time>
      </trkpt>
      <trkpt lat="44.57428" lon="6.36229">
        <ele>1483.1999512</ele>
        <time>2019-06-02T10:46:03Z</time>
      </trkpt>
      <trkpt lat="44.57431" lon="6.36223">
        <ele>1483</ele>
        <time>2019-06-02T10:46:04Z</time>
      </trkpt>
      <trkpt lat="44.57439" lon="6.36212">
        <ele>1482.4000244</ele>
        <time>2019-06-02T10:46:06Z</time>
      </trkpt>
      <trkpt lat="44.57447" lon="6.36203">
        <ele>1481.4000244</ele>
        <time>2019-06-02T10:46:08Z</time>
      </trkpt>
      <trkpt lat="44.57455" lon="6.36191">
        <ele>1480.1999512</ele>
        <time>2019-06-02T10:46:11Z</time>
      </trkpt>
      <trkpt lat="44.57458" lon="6.36187">
        <ele>1479.8000488</ele>
        <time>2019-06-02T10:46:12Z</time>
      </trkpt>
      <trkpt lat="44.57465" lon="6.36172">
        <ele>1479.5999756</ele>
        <time>2019-06-02T10:46:15Z</time>
      </trkpt>
      <trkpt lat="44.57475" lon="6.36162">
        <ele>1479.4000244</ele>
        <time>2019-06-02T10:46:18Z</time>
      </trkpt>
      <trkpt lat="44.57479" lon="6.36159">
        <ele>1479.1999512</ele>
        <time>2019-06-02T10:46:19Z</time>
      </trkpt>
      <trkpt lat="44.5749" lon="6.3615">
        <ele>1478.5999756</ele>
        <time>2019-06-02T10:46:22Z</time>
      </trkpt>
      <trkpt lat="44.57494" lon="6.36146">
        <ele>1478.1999512</ele>
        <time>2019-06-02T10:46:23Z</time>
      </trkpt>
      <trkpt lat="44.5752" lon="6.36114">
        <ele>1475.1999512</ele>
        <time>2019-06-02T10:46:31Z</time>
      </trkpt>
      <trkpt lat="44.5753" lon="6.36099">
        <ele>1474.8000488</ele>
        <time>2019-06-02T10:46:34Z</time>
      </trkpt>
      <trkpt lat="44.57534" lon="6.36094">
        <ele>1474.5999756</ele>
        <time>2019-06-02T10:46:35Z</time>
      </trkpt>
      <trkpt lat="44.57566" lon="6.36052">
        <ele>1472</ele>
        <time>2019-06-02T10:46:47Z</time>
      </trkpt>
      <trkpt lat="44.57569" lon="6.36051">
        <ele>1471.8000488</ele>
        <time>2019-06-02T10:46:48Z</time>
      </trkpt>
      <trkpt lat="44.57572" lon="6.36051">
        <ele>1471.8000488</ele>
        <time>2019-06-02T10:46:49Z</time>
      </trkpt>
      <trkpt lat="44.57574" lon="6.36053">
        <ele>1471.5999756</ele>
        <time>2019-06-02T10:46:50Z</time>
      </trkpt>
      <trkpt lat="44.57576" lon="6.36056">
        <ele>1471.4000244</ele>
        <time>2019-06-02T10:46:51Z</time>
      </trkpt>
      <trkpt lat="44.57577" lon="6.36059">
        <ele>1471.4000244</ele>
        <time>2019-06-02T10:46:52Z</time>
      </trkpt>
      <trkpt lat="44.57578" lon="6.36062">
        <ele>1471.4000244</ele>
        <time>2019-06-02T10:46:53Z</time>
      </trkpt>
      <trkpt lat="44.57579" lon="6.36065">
        <ele>1470.8000488</ele>
        <time>2019-06-02T10:46:54Z</time>
      </trkpt>
      <trkpt lat="44.57578" lon="6.36068">
        <ele>1470</ele>
        <time>2019-06-02T10:46:55Z</time>
      </trkpt>
      <trkpt lat="44.57577" lon="6.36071">
        <ele>1470</ele>
        <time>2019-06-02T10:46:56Z</time>
      </trkpt>
      <trkpt lat="44.57574" lon="6.36073">
        <ele>1469.5999756</ele>
        <time>2019-06-02T10:46:57Z</time>
      </trkpt>
      <trkpt lat="44.57571" lon="6.36075">
        <ele>1469.4000244</ele>
        <time>2019-06-02T10:46:58Z</time>
      </trkpt>
      <trkpt lat="44.57568" lon="6.36079">
        <ele>1469.4000244</ele>
        <time>2019-06-02T10:46:59Z</time>
      </trkpt>
      <trkpt lat="44.57566" lon="6.36083">
        <ele>1469.1999512</ele>
        <time>2019-06-02T10:47:00Z</time>
      </trkpt>
      <trkpt lat="44.57563" lon="6.36088">
        <ele>1469</ele>
        <time>2019-06-02T10:47:01Z</time>
      </trkpt>
      <trkpt lat="44.57562" lon="6.36093">
        <ele>1469</ele>
        <time>2019-06-02T10:47:02Z</time>
      </trkpt>
      <trkpt lat="44.57561" lon="6.36098">
        <ele>1468.8000488</ele>
        <time>2019-06-02T10:47:03Z</time>
      </trkpt>
      <trkpt lat="44.57561" lon="6.36125">
        <ele>1467.5999756</ele>
        <time>2019-06-02T10:47:08Z</time>
      </trkpt>
      <trkpt lat="44.57561" lon="6.36131">
        <ele>1467.4000244</ele>
        <time>2019-06-02T10:47:09Z</time>
      </trkpt>
      <trkpt lat="44.57561" lon="6.36137">
        <ele>1467</ele>
        <time>2019-06-02T10:47:10Z</time>
      </trkpt>
      <trkpt lat="44.57562" lon="6.36142">
        <ele>1466.4000244</ele>
        <time>2019-06-02T10:47:11Z</time>
      </trkpt>
      <trkpt lat="44.57562" lon="6.36147">
        <ele>1466</ele>
        <time>2019-06-02T10:47:12Z</time>
      </trkpt>
      <trkpt lat="44.57562" lon="6.36152">
        <ele>1465.8000488</ele>
        <time>2019-06-02T10:47:13Z</time>
      </trkpt>
      <trkpt lat="44.57563" lon="6.36157">
        <ele>1465.4000244</ele>
        <time>2019-06-02T10:47:14Z</time>
      </trkpt>
      <trkpt lat="44.57562" lon="6.36163">
        <ele>1465</ele>
        <time>2019-06-02T10:47:15Z</time>
      </trkpt>
      <trkpt lat="44.57562" lon="6.36169">
        <ele>1464.8000488</ele>
        <time>2019-06-02T10:47:16Z</time>
      </trkpt>
      <trkpt lat="44.57565" lon="6.36199">
        <ele>1461.5999756</ele>
        <time>2019-06-02T10:47:23Z</time>
      </trkpt>
      <trkpt lat="44.57572" lon="6.36217">
        <ele>1459.5999756</ele>
        <time>2019-06-02T10:47:28Z</time>
      </trkpt>
      <trkpt lat="44.57574" lon="6.36224">
        <ele>1457.4000244</ele>
        <time>2019-06-02T10:47:37Z</time>
      </trkpt>
      <trkpt lat="44.57574" lon="6.36225">
        <ele>1457.1999512</ele>
        <time>2019-06-02T10:47:47Z</time>
      </trkpt>
      <trkpt lat="44.57563" lon="6.36257">
        <ele>1457.1999512</ele>
        <time>2019-06-02T10:47:56Z</time>
      </trkpt>
      <trkpt lat="44.57555" lon="6.3627">
        <ele>1457.1999512</ele>
        <time>2019-06-02T10:47:59Z</time>
      </trkpt>
      <trkpt lat="44.57552" lon="6.36274">
        <ele>1457</ele>
        <time>2019-06-02T10:48:00Z</time>
      </trkpt>
      <trkpt lat="44.57517" lon="6.36323">
        <ele>1454.4000244</ele>
        <time>2019-06-02T10:48:13Z</time>
      </trkpt>
      <trkpt lat="44.57472" lon="6.36367">
        <ele>1452</ele>
        <time>2019-06-02T10:48:25Z</time>
      </trkpt>
      <trkpt lat="44.57466" lon="6.36374">
        <ele>1451.1999512</ele>
        <time>2019-06-02T10:48:27Z</time>
      </trkpt>
      <trkpt lat="44.57463" lon="6.36378">
        <ele>1451</ele>
        <time>2019-06-02T10:48:28Z</time>
      </trkpt>
      <trkpt lat="44.5746" lon="6.36384">
        <ele>1450.8000488</ele>
        <time>2019-06-02T10:48:29Z</time>
      </trkpt>
      <trkpt lat="44.57452" lon="6.36403">
        <ele>1450.4000244</ele>
        <time>2019-06-02T10:48:32Z</time>
      </trkpt>
      <trkpt lat="44.5745" lon="6.36409">
        <ele>1450.1999512</ele>
        <time>2019-06-02T10:48:33Z</time>
      </trkpt>
      <trkpt lat="44.57449" lon="6.36415">
        <ele>1450.1999512</ele>
        <time>2019-06-02T10:48:34Z</time>
      </trkpt>
      <trkpt lat="44.57449" lon="6.36421">
        <ele>1450</ele>
        <time>2019-06-02T10:48:35Z</time>
      </trkpt>
      <trkpt lat="44.57449" lon="6.36426">
        <ele>1449.4000244</ele>
        <time>2019-06-02T10:48:36Z</time>
      </trkpt>
      <trkpt lat="44.5745" lon="6.36472">
        <ele>1447.5999756</ele>
        <time>2019-06-02T10:48:46Z</time>
      </trkpt>
      <trkpt lat="44.57449" lon="6.36519">
        <ele>1447</ele>
        <time>2019-06-02T10:48:58Z</time>
      </trkpt>
      <trkpt lat="44.57412" lon="6.36565">
        <ele>1446.1999512</ele>
        <time>2019-06-02T10:49:10Z</time>
      </trkpt>
      <trkpt lat="44.57408" lon="6.36571">
        <ele>1446</ele>
        <time>2019-06-02T10:49:11Z</time>
      </trkpt>
      <trkpt lat="44.57405" lon="6.36577">
        <ele>1445.8000488</ele>
        <time>2019-06-02T10:49:12Z</time>
      </trkpt>
      <trkpt lat="44.57403" lon="6.36583">
        <ele>1445.5999756</ele>
        <time>2019-06-02T10:49:13Z</time>
      </trkpt>
      <trkpt lat="44.57401" lon="6.3659">
        <ele>1445.4000244</ele>
        <time>2019-06-02T10:49:14Z</time>
      </trkpt>
      <trkpt lat="44.57401" lon="6.36598">
        <ele>1445.1999512</ele>
        <time>2019-06-02T10:49:15Z</time>
      </trkpt>
      <trkpt lat="44.57402" lon="6.36605">
        <ele>1445</ele>
        <time>2019-06-02T10:49:16Z</time>
      </trkpt>
      <trkpt lat="44.57405" lon="6.36611">
        <ele>1444.5999756</ele>
        <time>2019-06-02T10:49:17Z</time>
      </trkpt>
      <trkpt lat="44.57408" lon="6.36617">
        <ele>1444.5999756</ele>
        <time>2019-06-02T10:49:18Z</time>
      </trkpt>
      <trkpt lat="44.57412" lon="6.36621">
        <ele>1444.4000244</ele>
        <time>2019-06-02T10:49:19Z</time>
      </trkpt>
      <trkpt lat="44.57416" lon="6.36624">
        <ele>1444</ele>
        <time>2019-06-02T10:49:20Z</time>
      </trkpt>
      <trkpt lat="44.57421" lon="6.36626">
        <ele>1443.8000488</ele>
        <time>2019-06-02T10:49:21Z</time>
      </trkpt>
      <trkpt lat="44.57426" lon="6.36627">
        <ele>1443.5999756</ele>
        <time>2019-06-02T10:49:22Z</time>
      </trkpt>
      <trkpt lat="44.57432" lon="6.36626">
        <ele>1443.1999512</ele>
        <time>2019-06-02T10:49:23Z</time>
      </trkpt>
      <trkpt lat="44.57437" lon="6.36623">
        <ele>1442.4000244</ele>
        <time>2019-06-02T10:49:24Z</time>
      </trkpt>
      <trkpt lat="44.57442" lon="6.3662">
        <ele>1442.1999512</ele>
        <time>2019-06-02T10:49:25Z</time>
      </trkpt>
      <trkpt lat="44.57448" lon="6.36616">
        <ele>1442</ele>
        <time>2019-06-02T10:49:26Z</time>
      </trkpt>
      <trkpt lat="44.57515" lon="6.36572">
        <ele>1438.5999756</ele>
        <time>2019-06-02T10:49:35Z</time>
      </trkpt>
      <trkpt lat="44.57523" lon="6.36569">
        <ele>1437.8000488</ele>
        <time>2019-06-02T10:49:36Z</time>
      </trkpt>
      <trkpt lat="44.57532" lon="6.36568">
        <ele>1436.8000488</ele>
        <time>2019-06-02T10:49:37Z</time>
      </trkpt>
      <trkpt lat="44.57541" lon="6.36568">
        <ele>1435.5999756</ele>
        <time>2019-06-02T10:49:38Z</time>
      </trkpt>
      <trkpt lat="44.5759" lon="6.36565">
        <ele>1432.4000244</ele>
        <time>2019-06-02T10:49:44Z</time>
      </trkpt>
      <trkpt lat="44.57614" lon="6.36555">
        <ele>1428.5999756</ele>
        <time>2019-06-02T10:49:47Z</time>
      </trkpt>
      <trkpt lat="44.57649" lon="6.36542">
        <ele>1426.4000244</ele>
        <time>2019-06-02T10:49:51Z</time>
      </trkpt>
      <trkpt lat="44.57671" lon="6.36539">
        <ele>1424.4000244</ele>
        <time>2019-06-02T10:49:54Z</time>
      </trkpt>
      <trkpt lat="44.57692" lon="6.36541">
        <ele>1421</ele>
        <time>2019-06-02T10:49:57Z</time>
      </trkpt>
      <trkpt lat="44.57699" lon="6.36542">
        <ele>1420.4000244</ele>
        <time>2019-06-02T10:49:58Z</time>
      </trkpt>
      <trkpt lat="44.57706" lon="6.36545">
        <ele>1419.8000488</ele>
        <time>2019-06-02T10:49:59Z</time>
      </trkpt>
      <trkpt lat="44.57711" lon="6.36549">
        <ele>1419.5999756</ele>
        <time>2019-06-02T10:50:00Z</time>
      </trkpt>
      <trkpt lat="44.57716" lon="6.36554">
        <ele>1419.4000244</ele>
        <time>2019-06-02T10:50:01Z</time>
      </trkpt>
      <trkpt lat="44.57719" lon="6.36561">
        <ele>1419.4000244</ele>
        <time>2019-06-02T10:50:02Z</time>
      </trkpt>
      <trkpt lat="44.57721" lon="6.36568">
        <ele>1419.1999512</ele>
        <time>2019-06-02T10:50:03Z</time>
      </trkpt>
      <trkpt lat="44.5772" lon="6.36576">
        <ele>1418.1999512</ele>
        <time>2019-06-02T10:50:04Z</time>
      </trkpt>
      <trkpt lat="44.57717" lon="6.36583">
        <ele>1417.4000244</ele>
        <time>2019-06-02T10:50:05Z</time>
      </trkpt>
      <trkpt lat="44.57713" lon="6.36589">
        <ele>1416.8000488</ele>
        <time>2019-06-02T10:50:06Z</time>
      </trkpt>
      <trkpt lat="44.57707" lon="6.36594">
        <ele>1416.5999756</ele>
        <time>2019-06-02T10:50:07Z</time>
      </trkpt>
      <trkpt lat="44.57701" lon="6.36598">
        <ele>1416.1999512</ele>
        <time>2019-06-02T10:50:08Z</time>
      </trkpt>
      <trkpt lat="44.57694" lon="6.36601">
        <ele>1415.8000488</ele>
        <time>2019-06-02T10:50:09Z</time>
      </trkpt>
      <trkpt lat="44.57687" lon="6.36605">
        <ele>1415.8000488</ele>
        <time>2019-06-02T10:50:10Z</time>
      </trkpt>
      <trkpt lat="44.5768" lon="6.3661">
        <ele>1415.5999756</ele>
        <time>2019-06-02T10:50:11Z</time>
      </trkpt>
      <trkpt lat="44.57673" lon="6.36616">
        <ele>1415.5999756</ele>
        <time>2019-06-02T10:50:12Z</time>
      </trkpt>
      <trkpt lat="44.57667" lon="6.36625">
        <ele>1415.4000244</ele>
        <time>2019-06-02T10:50:13Z</time>
      </trkpt>
      <trkpt lat="44.57661" lon="6.36634">
        <ele>1415</ele>
        <time>2019-06-02T10:50:14Z</time>
      </trkpt>
      <trkpt lat="44.57618" lon="6.36705">
        <ele>1411.5999756</ele>
        <time>2019-06-02T10:50:21Z</time>
      </trkpt>
      <trkpt lat="44.57598" lon="6.3673">
        <ele>1408.5999756</ele>
        <time>2019-06-02T10:50:24Z</time>
      </trkpt>
      <trkpt lat="44.57554" lon="6.36763">
        <ele>1405</ele>
        <time>2019-06-02T10:50:29Z</time>
      </trkpt>
      <trkpt lat="44.57513" lon="6.3679">
        <ele>1402</ele>
        <time>2019-06-02T10:50:33Z</time>
      </trkpt>
      <trkpt lat="44.57472" lon="6.36823">
        <ele>1397.4000244</ele>
        <time>2019-06-02T10:50:37Z</time>
      </trkpt>
      <trkpt lat="44.57441" lon="6.36848">
        <ele>1394.1999512</ele>
        <time>2019-06-02T10:50:40Z</time>
      </trkpt>
      <trkpt lat="44.57419" lon="6.36865">
        <ele>1391</ele>
        <time>2019-06-02T10:50:42Z</time>
      </trkpt>
      <trkpt lat="44.57398" lon="6.36883">
        <ele>1388</ele>
        <time>2019-06-02T10:50:44Z</time>
      </trkpt>
      <trkpt lat="44.5736" lon="6.36914">
        <ele>1384.5999756</ele>
        <time>2019-06-02T10:50:48Z</time>
      </trkpt>
      <trkpt lat="44.57334" lon="6.36935">
        <ele>1381</ele>
        <time>2019-06-02T10:50:51Z</time>
      </trkpt>
      <trkpt lat="44.573" lon="6.36961">
        <ele>1377.8000488</ele>
        <time>2019-06-02T10:50:55Z</time>
      </trkpt>
      <trkpt lat="44.57273" lon="6.36977">
        <ele>1374.8000488</ele>
        <time>2019-06-02T10:50:58Z</time>
      </trkpt>
      <trkpt lat="44.57239" lon="6.3699">
        <ele>1371.5999756</ele>
        <time>2019-06-02T10:51:02Z</time>
      </trkpt>
      <trkpt lat="44.57207" lon="6.37002">
        <ele>1368.1999512</ele>
        <time>2019-06-02T10:51:06Z</time>
      </trkpt>
      <trkpt lat="44.57168" lon="6.37015">
        <ele>1364.5999756</ele>
        <time>2019-06-02T10:51:11Z</time>
      </trkpt>
      <trkpt lat="44.57133" lon="6.37031">
        <ele>1361.4000244</ele>
        <time>2019-06-02T10:51:16Z</time>
      </trkpt>
      <trkpt lat="44.57129" lon="6.37035">
        <ele>1360.8000488</ele>
        <time>2019-06-02T10:51:17Z</time>
      </trkpt>
      <trkpt lat="44.57125" lon="6.3704">
        <ele>1360</ele>
        <time>2019-06-02T10:51:18Z</time>
      </trkpt>
      <trkpt lat="44.57116" lon="6.37055">
        <ele>1357.5999756</ele>
        <time>2019-06-02T10:51:21Z</time>
      </trkpt>
      <trkpt lat="44.57114" lon="6.3706">
        <ele>1357.1999512</ele>
        <time>2019-06-02T10:51:22Z</time>
      </trkpt>
      <trkpt lat="44.5711" lon="6.3707">
        <ele>1356.8000488</ele>
        <time>2019-06-02T10:51:25Z</time>
      </trkpt>
      <trkpt lat="44.57108" lon="6.37071">
        <ele>1356.5999756</ele>
        <time>2019-06-02T10:51:26Z</time>
      </trkpt>
      <trkpt lat="44.57106" lon="6.37073">
        <ele>1356.5999756</ele>
        <time>2019-06-02T10:51:27Z</time>
      </trkpt>
      <trkpt lat="44.57103" lon="6.37075">
        <ele>1356.5999756</ele>
        <time>2019-06-02T10:51:28Z</time>
      </trkpt>
      <trkpt lat="44.571" lon="6.37077">
        <ele>1356.5999756</ele>
        <time>2019-06-02T10:51:29Z</time>
      </trkpt>
      <trkpt lat="44.57067" lon="6.3708">
        <ele>1352.8000488</ele>
        <time>2019-06-02T10:51:39Z</time>
      </trkpt>
      <trkpt lat="44.57054" lon="6.37079">
        <ele>1351.4000244</ele>
        <time>2019-06-02T10:51:42Z</time>
      </trkpt>
      <trkpt lat="44.5705" lon="6.3708">
        <ele>1351</ele>
        <time>2019-06-02T10:51:43Z</time>
      </trkpt>
      <trkpt lat="44.57046" lon="6.37081">
        <ele>1350.8000488</ele>
        <time>2019-06-02T10:51:44Z</time>
      </trkpt>
      <trkpt lat="44.57018" lon="6.371">
        <ele>1347.5999756</ele>
        <time>2019-06-02T10:51:52Z</time>
      </trkpt>
      <trkpt lat="44.56994" lon="6.37116">
        <ele>1345.8000488</ele>
        <time>2019-06-02T10:51:59Z</time>
      </trkpt>
      <trkpt lat="44.5699" lon="6.37117">
        <ele>1345.4000244</ele>
        <time>2019-06-02T10:52:00Z</time>
      </trkpt>
      <trkpt lat="44.56986" lon="6.37117">
        <ele>1345.1999512</ele>
        <time>2019-06-02T10:52:01Z</time>
      </trkpt>
      <trkpt lat="44.56956" lon="6.37116">
        <ele>1341.8000488</ele>
        <time>2019-06-02T10:52:08Z</time>
      </trkpt>
      <trkpt lat="44.56952" lon="6.37117">
        <ele>1341.1999512</ele>
        <time>2019-06-02T10:52:09Z</time>
      </trkpt>
      <trkpt lat="44.5694" lon="6.37124">
        <ele>1340</ele>
        <time>2019-06-02T10:52:12Z</time>
      </trkpt>
      <trkpt lat="44.56936" lon="6.37127">
        <ele>1339.5999756</ele>
        <time>2019-06-02T10:52:13Z</time>
      </trkpt>
      <trkpt lat="44.56932" lon="6.37131">
        <ele>1339.5999756</ele>
        <time>2019-06-02T10:52:14Z</time>
      </trkpt>
      <trkpt lat="44.56929" lon="6.37134">
        <ele>1339</ele>
        <time>2019-06-02T10:52:15Z</time>
      </trkpt>
      <trkpt lat="44.56926" lon="6.37139">
        <ele>1338.8000488</ele>
        <time>2019-06-02T10:52:16Z</time>
      </trkpt>
      <trkpt lat="44.56924" lon="6.37143">
        <ele>1338.5999756</ele>
        <time>2019-06-02T10:52:17Z</time>
      </trkpt>
      <trkpt lat="44.56888" lon="6.37195">
        <ele>1336.4000244</ele>
        <time>2019-06-02T10:52:31Z</time>
      </trkpt>
      <trkpt lat="44.56854" lon="6.37195">
        <ele>1333.8000488</ele>
        <time>2019-06-02T10:52:41Z</time>
      </trkpt>
      <trkpt lat="44.56837" lon="6.37172">
        <ele>1330.8000488</ele>
        <time>2019-06-02T10:52:48Z</time>
      </trkpt>
      <trkpt lat="44.56798" lon="6.37123">
        <ele>1328.5999756</ele>
        <time>2019-06-02T10:53:02Z</time>
      </trkpt>
      <trkpt lat="44.56743" lon="6.37097">
        <ele>1329.1999512</ele>
        <time>2019-06-02T10:53:19Z</time>
      </trkpt>
      <trkpt lat="44.56704" lon="6.37077">
        <ele>1330</ele>
        <time>2019-06-02T10:53:33Z</time>
      </trkpt>
      <trkpt lat="44.56658" lon="6.37022">
        <ele>1331</ele>
        <time>2019-06-02T10:53:52Z</time>
      </trkpt>
      <trkpt lat="44.56611" lon="6.36968">
        <ele>1331</ele>
        <time>2019-06-02T10:54:11Z</time>
      </trkpt>
      <trkpt lat="44.56592" lon="6.36945">
        <ele>1328.8000488</ele>
        <time>2019-06-02T10:54:21Z</time>
      </trkpt>
      <trkpt lat="44.56591" lon="6.36946">
        <ele>1328.4000244</ele>
        <time>2019-06-02T10:54:22Z</time>
      </trkpt>
      <trkpt lat="44.56589" lon="6.36948">
        <ele>1328.1999512</ele>
        <time>2019-06-02T10:54:23Z</time>
      </trkpt>
      <trkpt lat="44.56588" lon="6.3695">
        <ele>1327.8000488</ele>
        <time>2019-06-02T10:54:24Z</time>
      </trkpt>
      <trkpt lat="44.56588" lon="6.36953">
        <ele>1327.4000244</ele>
        <time>2019-06-02T10:54:25Z</time>
      </trkpt>
      <trkpt lat="44.56588" lon="6.36957">
        <ele>1327</ele>
        <time>2019-06-02T10:54:26Z</time>
      </trkpt>
      <trkpt lat="44.56589" lon="6.3696">
        <ele>1326.8000488</ele>
        <time>2019-06-02T10:54:27Z</time>
      </trkpt>
      <trkpt lat="44.56591" lon="6.36964">
        <ele>1326.8000488</ele>
        <time>2019-06-02T10:54:28Z</time>
      </trkpt>
      <trkpt lat="44.56592" lon="6.36968">
        <ele>1326.4000244</ele>
        <time>2019-06-02T10:54:29Z</time>
      </trkpt>
      <trkpt lat="44.56606" lon="6.37019">
        <ele>1323.4000244</ele>
        <time>2019-06-02T10:54:42Z</time>
      </trkpt>
      <trkpt lat="44.56612" lon="6.37052">
        <ele>1320.1999512</ele>
        <time>2019-06-02T10:54:51Z</time>
      </trkpt>
      <trkpt lat="44.56615" lon="6.37063">
        <ele>1318.8000488</ele>
        <time>2019-06-02T10:54:55Z</time>
      </trkpt>
      <trkpt lat="44.56614" lon="6.37065">
        <ele>1318.5999756</ele>
        <time>2019-06-02T10:54:56Z</time>
      </trkpt>
      <trkpt lat="44.56613" lon="6.37068">
        <ele>1318.4000244</ele>
        <time>2019-06-02T10:54:57Z</time>
      </trkpt>
      <trkpt lat="44.56611" lon="6.37069">
        <ele>1318.1999512</ele>
        <time>2019-06-02T10:54:58Z</time>
      </trkpt>
      <trkpt lat="44.56608" lon="6.3707">
        <ele>1318</ele>
        <time>2019-06-02T10:54:59Z</time>
      </trkpt>
      <trkpt lat="44.56606" lon="6.37069">
        <ele>1317.8000488</ele>
        <time>2019-06-02T10:55:00Z</time>
      </trkpt>
      <trkpt lat="44.56604" lon="6.37068">
        <ele>1317.4000244</ele>
        <time>2019-06-02T10:55:01Z</time>
      </trkpt>
      <trkpt lat="44.56602" lon="6.37066">
        <ele>1317</ele>
        <time>2019-06-02T10:55:02Z</time>
      </trkpt>
      <trkpt lat="44.566" lon="6.37064">
        <ele>1316.8000488</ele>
        <time>2019-06-02T10:55:03Z</time>
      </trkpt>
      <trkpt lat="44.56598" lon="6.37062">
        <ele>1316.5999756</ele>
        <time>2019-06-02T10:55:04Z</time>
      </trkpt>
      <trkpt lat="44.56597" lon="6.37059">
        <ele>1316.5999756</ele>
        <time>2019-06-02T10:55:05Z</time>
      </trkpt>
      <trkpt lat="44.56586" lon="6.37038">
        <ele>1313.8000488</ele>
        <time>2019-06-02T10:55:13Z</time>
      </trkpt>
      <trkpt lat="44.56574" lon="6.37021">
        <ele>1310.4000244</ele>
        <time>2019-06-02T10:55:20Z</time>
      </trkpt>
      <trkpt lat="44.56553" lon="6.36997">
        <ele>1307.1999512</ele>
        <time>2019-06-02T10:55:31Z</time>
      </trkpt>
      <trkpt lat="44.5655" lon="6.36996">
        <ele>1307</ele>
        <time>2019-06-02T10:55:32Z</time>
      </trkpt>
      <trkpt lat="44.56535" lon="6.36987">
        <ele>1304</ele>
        <time>2019-06-02T10:55:39Z</time>
      </trkpt>
      <trkpt lat="44.56511" lon="6.36978">
        <ele>1301</ele>
        <time>2019-06-02T10:55:48Z</time>
      </trkpt>
      <trkpt lat="44.56503" lon="6.36975">
        <ele>1297.8000488</ele>
        <time>2019-06-02T10:55:52Z</time>
      </trkpt>
      <trkpt lat="44.56488" lon="6.36969">
        <ele>1294.5999756</ele>
        <time>2019-06-02T10:56:00Z</time>
      </trkpt>
      <trkpt lat="44.56486" lon="6.3697">
        <ele>1294.4000244</ele>
        <time>2019-06-02T10:56:01Z</time>
      </trkpt>
      <trkpt lat="44.56464" lon="6.36978">
        <ele>1291</ele>
        <time>2019-06-02T10:56:12Z</time>
      </trkpt>
      <trkpt lat="44.56452" lon="6.36974">
        <ele>1289</ele>
        <time>2019-06-02T10:56:17Z</time>
      </trkpt>
      <trkpt lat="44.56444" lon="6.36972">
        <ele>1287.4000244</ele>
        <time>2019-06-02T10:56:20Z</time>
      </trkpt>
      <trkpt lat="44.56437" lon="6.36969">
        <ele>1286.1999512</ele>
        <time>2019-06-02T10:56:23Z</time>
      </trkpt>
      <trkpt lat="44.56424" lon="6.36963">
        <ele>1283</ele>
        <time>2019-06-02T10:56:29Z</time>
      </trkpt>
      <trkpt lat="44.56421" lon="6.36962">
        <ele>1282.5999756</ele>
        <time>2019-06-02T10:56:30Z</time>
      </trkpt>
      <trkpt lat="44.56396" lon="6.36947">
        <ele>1279.4000244</ele>
        <time>2019-06-02T10:56:39Z</time>
      </trkpt>
      <trkpt lat="44.56379" lon="6.3693">
        <ele>1276.1999512</ele>
        <time>2019-06-02T10:56:46Z</time>
      </trkpt>
      <trkpt lat="44.56363" lon="6.36925">
        <ele>1273.1999512</ele>
        <time>2019-06-02T10:56:53Z</time>
      </trkpt>
      <trkpt lat="44.56345" lon="6.36948">
        <ele>1270</ele>
        <time>2019-06-02T10:57:04Z</time>
      </trkpt>
      <trkpt lat="44.56339" lon="6.36957">
        <ele>1268.5999756</ele>
        <time>2019-06-02T10:57:08Z</time>
      </trkpt>
      <trkpt lat="44.5633" lon="6.36972">
        <ele>1265.4000244</ele>
        <time>2019-06-02T10:57:14Z</time>
      </trkpt>
      <trkpt lat="44.56321" lon="6.36985">
        <ele>1263.1999512</ele>
        <time>2019-06-02T10:57:18Z</time>
      </trkpt>
      <trkpt lat="44.56307" lon="6.37007">
        <ele>1260.1999512</ele>
        <time>2019-06-02T10:57:26Z</time>
      </trkpt>
      <trkpt lat="44.56297" lon="6.37028">
        <ele>1256.4000244</ele>
        <time>2019-06-02T10:57:33Z</time>
      </trkpt>
      <trkpt lat="44.56296" lon="6.37031">
        <ele>1256.1999512</ele>
        <time>2019-06-02T10:57:34Z</time>
      </trkpt>
      <trkpt lat="44.56291" lon="6.37041">
        <ele>1253.1999512</ele>
        <time>2019-06-02T10:57:42Z</time>
      </trkpt>
      <trkpt lat="44.56291" lon="6.37045">
        <ele>1253</ele>
        <time>2019-06-02T10:57:43Z</time>
      </trkpt>
      <trkpt lat="44.56291" lon="6.37052">
        <ele>1252.5999756</ele>
        <time>2019-06-02T10:57:45Z</time>
      </trkpt>
      <trkpt lat="44.56293" lon="6.37071">
        <ele>1251.8000488</ele>
        <time>2019-06-02T10:57:51Z</time>
      </trkpt>
      <trkpt lat="44.56292" lon="6.37074">
        <ele>1251.8000488</ele>
        <time>2019-06-02T10:57:52Z</time>
      </trkpt>
      <trkpt lat="44.5629" lon="6.37076">
        <ele>1251.5999756</ele>
        <time>2019-06-02T10:57:53Z</time>
      </trkpt>
      <trkpt lat="44.56288" lon="6.37078">
        <ele>1251.5999756</ele>
        <time>2019-06-02T10:57:54Z</time>
      </trkpt>
      <trkpt lat="44.56286" lon="6.37078">
        <ele>1251.4000244</ele>
        <time>2019-06-02T10:57:55Z</time>
      </trkpt>
      <trkpt lat="44.56284" lon="6.37079">
        <ele>1251</ele>
        <time>2019-06-02T10:57:56Z</time>
      </trkpt>
      <trkpt lat="44.56282" lon="6.37079">
        <ele>1250.8000488</ele>
        <time>2019-06-02T10:57:57Z</time>
      </trkpt>
      <trkpt lat="44.56279" lon="6.37078">
        <ele>1250.5999756</ele>
        <time>2019-06-02T10:57:58Z</time>
      </trkpt>
      <trkpt lat="44.56276" lon="6.37077">
        <ele>1250.1999512</ele>
        <time>2019-06-02T10:57:59Z</time>
      </trkpt>
      <trkpt lat="44.56274" lon="6.37076">
        <ele>1250</ele>
        <time>2019-06-02T10:58:00Z</time>
      </trkpt>
      <trkpt lat="44.56272" lon="6.37074">
        <ele>1249.8000488</ele>
        <time>2019-06-02T10:58:01Z</time>
      </trkpt>
      <trkpt lat="44.56259" lon="6.37054">
        <ele>1246.5999756</ele>
        <time>2019-06-02T10:58:09Z</time>
      </trkpt>
      <trkpt lat="44.56239" lon="6.3702">
        <ele>1243.5999756</ele>
        <time>2019-06-02T10:58:20Z</time>
      </trkpt>
      <trkpt lat="44.56225" lon="6.37012">
        <ele>1240.4000244</ele>
        <time>2019-06-02T10:58:25Z</time>
      </trkpt>
      <trkpt lat="44.56208" lon="6.37006">
        <ele>1237</ele>
        <time>2019-06-02T10:58:32Z</time>
      </trkpt>
      <trkpt lat="44.56184" lon="6.37005">
        <ele>1233.8000488</ele>
        <time>2019-06-02T10:58:41Z</time>
      </trkpt>
      <trkpt lat="44.56158" lon="6.36999">
        <ele>1230.8000488</ele>
        <time>2019-06-02T10:58:49Z</time>
      </trkpt>
      <trkpt lat="44.56142" lon="6.36993">
        <ele>1227.8000488</ele>
        <time>2019-06-02T10:58:55Z</time>
      </trkpt>
      <trkpt lat="44.56132" lon="6.36989">
        <ele>1225.4000244</ele>
        <time>2019-06-02T10:58:59Z</time>
      </trkpt>
      <trkpt lat="44.56114" lon="6.36981">
        <ele>1223</ele>
        <time>2019-06-02T10:59:05Z</time>
      </trkpt>
      <trkpt lat="44.56086" lon="6.36988">
        <ele>1220</ele>
        <time>2019-06-02T10:59:14Z</time>
      </trkpt>
      <trkpt lat="44.56063" lon="6.37009">
        <ele>1216.8000488</ele>
        <time>2019-06-02T10:59:23Z</time>
      </trkpt>
      <trkpt lat="44.56049" lon="6.37018">
        <ele>1215</ele>
        <time>2019-06-02T10:59:28Z</time>
      </trkpt>
      <trkpt lat="44.56035" lon="6.37008">
        <ele>1211.8000488</ele>
        <time>2019-06-02T10:59:35Z</time>
      </trkpt>
      <trkpt lat="44.56026" lon="6.36991">
        <ele>1208.5999756</ele>
        <time>2019-06-02T10:59:41Z</time>
      </trkpt>
      <trkpt lat="44.56005" lon="6.36958">
        <ele>1205.5999756</ele>
        <time>2019-06-02T10:59:51Z</time>
      </trkpt>
      <trkpt lat="44.55996" lon="6.3695">
        <ele>1204.1999512</ele>
        <time>2019-06-02T10:59:54Z</time>
      </trkpt>
      <trkpt lat="44.55988" lon="6.36939">
        <ele>1202.4000244</ele>
        <time>2019-06-02T10:59:58Z</time>
      </trkpt>
      <trkpt lat="44.55968" lon="6.36926">
        <ele>1199.4000244</ele>
        <time>2019-06-02T11:00:04Z</time>
      </trkpt>
      <trkpt lat="44.55944" lon="6.36908">
        <ele>1195.8000488</ele>
        <time>2019-06-02T11:00:12Z</time>
      </trkpt>
      <trkpt lat="44.55937" lon="6.36901">
        <ele>1193.5999756</ele>
        <time>2019-06-02T11:00:15Z</time>
      </trkpt>
      <trkpt lat="44.55935" lon="6.36901">
        <ele>1193</ele>
        <time>2019-06-02T11:00:16Z</time>
      </trkpt>
      <trkpt lat="44.55933" lon="6.36903">
        <ele>1192.5999756</ele>
        <time>2019-06-02T11:00:17Z</time>
      </trkpt>
      <trkpt lat="44.55931" lon="6.36906">
        <ele>1192.4000244</ele>
        <time>2019-06-02T11:00:18Z</time>
      </trkpt>
      <trkpt lat="44.5593" lon="6.36909">
        <ele>1192</ele>
        <time>2019-06-02T11:00:19Z</time>
      </trkpt>
      <trkpt lat="44.55929" lon="6.36913">
        <ele>1191.8000488</ele>
        <time>2019-06-02T11:00:20Z</time>
      </trkpt>
      <trkpt lat="44.55929" lon="6.36917">
        <ele>1191.4000244</ele>
        <time>2019-06-02T11:00:21Z</time>
      </trkpt>
      <trkpt lat="44.55929" lon="6.36921">
        <ele>1191.1999512</ele>
        <time>2019-06-02T11:00:22Z</time>
      </trkpt>
      <trkpt lat="44.55929" lon="6.36926">
        <ele>1191</ele>
        <time>2019-06-02T11:00:23Z</time>
      </trkpt>
      <trkpt lat="44.5593" lon="6.36931">
        <ele>1190.8000488</ele>
        <time>2019-06-02T11:00:24Z</time>
      </trkpt>
      <trkpt lat="44.55933" lon="6.3697">
        <ele>1187.5999756</ele>
        <time>2019-06-02T11:00:33Z</time>
      </trkpt>
      <trkpt lat="44.55932" lon="6.36974">
        <ele>1187.1999512</ele>
        <time>2019-06-02T11:00:34Z</time>
      </trkpt>
      <trkpt lat="44.55931" lon="6.36977">
        <ele>1186.5999756</ele>
        <time>2019-06-02T11:00:35Z</time>
      </trkpt>
      <trkpt lat="44.55929" lon="6.3698">
        <ele>1186.1999512</ele>
        <time>2019-06-02T11:00:36Z</time>
      </trkpt>
      <trkpt lat="44.55927" lon="6.36982">
        <ele>1185.8000488</ele>
        <time>2019-06-02T11:00:37Z</time>
      </trkpt>
      <trkpt lat="44.55925" lon="6.36985">
        <ele>1185.4000244</ele>
        <time>2019-06-02T11:00:38Z</time>
      </trkpt>
      <trkpt lat="44.55921" lon="6.36994">
        <ele>1184.1999512</ele>
        <time>2019-06-02T11:00:41Z</time>
      </trkpt>
      <trkpt lat="44.55923" lon="6.3702">
        <ele>1181.5999756</ele>
        <time>2019-06-02T11:00:48Z</time>
      </trkpt>
      <trkpt lat="44.55924" lon="6.37023">
        <ele>1180.8000488</ele>
        <time>2019-06-02T11:00:49Z</time>
      </trkpt>
      <trkpt lat="44.55925" lon="6.37026">
        <ele>1180.4000244</ele>
        <time>2019-06-02T11:00:50Z</time>
      </trkpt>
      <trkpt lat="44.55926" lon="6.3703">
        <ele>1180</ele>
        <time>2019-06-02T11:00:51Z</time>
      </trkpt>
      <trkpt lat="44.55928" lon="6.37035">
        <ele>1179.5999756</ele>
        <time>2019-06-02T11:00:52Z</time>
      </trkpt>
      <trkpt lat="44.55929" lon="6.37039">
        <ele>1179.1999512</ele>
        <time>2019-06-02T11:00:53Z</time>
      </trkpt>
      <trkpt lat="44.55929" lon="6.37043">
        <ele>1179</ele>
        <time>2019-06-02T11:00:54Z</time>
      </trkpt>
      <trkpt lat="44.55934" lon="6.37069">
        <ele>1176</ele>
        <time>2019-06-02T11:01:01Z</time>
      </trkpt>
      <trkpt lat="44.55951" lon="6.37089">
        <ele>1172.5999756</ele>
        <time>2019-06-02T11:01:09Z</time>
      </trkpt>
      <trkpt lat="44.55963" lon="6.37111">
        <ele>1169.4000244</ele>
        <time>2019-06-02T11:01:17Z</time>
      </trkpt>
      <trkpt lat="44.55967" lon="6.37123">
        <ele>1168.1999512</ele>
        <time>2019-06-02T11:01:21Z</time>
      </trkpt>
      <trkpt lat="44.55966" lon="6.37131">
        <ele>1165</ele>
        <time>2019-06-02T11:01:28Z</time>
      </trkpt>
      <trkpt lat="44.55963" lon="6.37129">
        <ele>1163</ele>
        <time>2019-06-02T11:01:43Z</time>
      </trkpt>
      <trkpt lat="44.55962" lon="6.37128">
        <ele>1163</ele>
        <time>2019-06-02T11:01:44Z</time>
      </trkpt>
      <trkpt lat="44.55958" lon="6.37122">
        <ele>1163</ele>
        <time>2019-06-02T11:01:47Z</time>
      </trkpt>
      <trkpt lat="44.55956" lon="6.37119">
        <ele>1163</ele>
        <time>2019-06-02T11:01:48Z</time>
      </trkpt>
      <trkpt lat="44.5592" lon="6.371">
        <ele>1163</ele>
        <time>2019-06-02T11:02:00Z</time>
      </trkpt>
      <trkpt lat="44.55873" lon="6.37097">
        <ele>1164.8000488</ele>
        <time>2019-06-02T11:02:15Z</time>
      </trkpt>
      <trkpt lat="44.55847" lon="6.37054">
        <ele>1165.1999512</ele>
        <time>2019-06-02T11:02:29Z</time>
      </trkpt>
      <trkpt lat="44.55836" lon="6.36984">
        <ele>1168.4000244</ele>
        <time>2019-06-02T11:02:46Z</time>
      </trkpt>
      <trkpt lat="44.55819" lon="6.36925">
        <ele>1171.1999512</ele>
        <time>2019-06-02T11:03:02Z</time>
      </trkpt>
      <trkpt lat="44.5579" lon="6.36882">
        <ele>1172.8000488</ele>
        <time>2019-06-02T11:03:17Z</time>
      </trkpt>
      <trkpt lat="44.55754" lon="6.36844">
        <ele>1174.1999512</ele>
        <time>2019-06-02T11:03:33Z</time>
      </trkpt>
      <trkpt lat="44.55702" lon="6.36804">
        <ele>1176.5999756</ele>
        <time>2019-06-02T11:03:54Z</time>
      </trkpt>
      <trkpt lat="44.5567" lon="6.36744">
        <ele>1179.4000244</ele>
        <time>2019-06-02T11:04:13Z</time>
      </trkpt>
      <trkpt lat="44.55653" lon="6.36677">
        <ele>1182.1999512</ele>
        <time>2019-06-02T11:04:31Z</time>
      </trkpt>
      <trkpt lat="44.55651" lon="6.36592">
        <ele>1184.1999512</ele>
        <time>2019-06-02T11:04:52Z</time>
      </trkpt>
      <trkpt lat="44.55678" lon="6.36553">
        <ele>1185.8000488</ele>
        <time>2019-06-02T11:05:05Z</time>
      </trkpt>
      <trkpt lat="44.55721" lon="6.36511">
        <ele>1188.5999756</ele>
        <time>2019-06-02T11:05:21Z</time>
      </trkpt>
      <trkpt lat="44.55725" lon="6.36497">
        <ele>1189.4000244</ele>
        <time>2019-06-02T11:05:24Z</time>
      </trkpt>
      <trkpt lat="44.55725" lon="6.36491">
        <ele>1189.5999756</ele>
        <time>2019-06-02T11:05:25Z</time>
      </trkpt>
      <trkpt lat="44.55724" lon="6.36486">
        <ele>1189.5999756</ele>
        <time>2019-06-02T11:05:26Z</time>
      </trkpt>
      <trkpt lat="44.55723" lon="6.3648">
        <ele>1189.5999756</ele>
        <time>2019-06-02T11:05:27Z</time>
      </trkpt>
      <trkpt lat="44.55721" lon="6.36476">
        <ele>1189.5999756</ele>
        <time>2019-06-02T11:05:28Z</time>
      </trkpt>
      <trkpt lat="44.55718" lon="6.36472">
        <ele>1189.5999756</ele>
        <time>2019-06-02T11:05:29Z</time>
      </trkpt>
      <trkpt lat="44.55715" lon="6.36468">
        <ele>1189.5999756</ele>
        <time>2019-06-02T11:05:30Z</time>
      </trkpt>
      <trkpt lat="44.55712" lon="6.36465">
        <ele>1189.5999756</ele>
        <time>2019-06-02T11:05:31Z</time>
      </trkpt>
      <trkpt lat="44.55709" lon="6.36462">
        <ele>1189.5999756</ele>
        <time>2019-06-02T11:05:32Z</time>
      </trkpt>
      <trkpt lat="44.55673" lon="6.36417">
        <ele>1189.1999512</ele>
        <time>2019-06-02T11:05:47Z</time>
      </trkpt>
      <trkpt lat="44.5566" lon="6.36355">
        <ele>1189.8000488</ele>
        <time>2019-06-02T11:06:01Z</time>
      </trkpt>
      <trkpt lat="44.55621" lon="6.36318">
        <ele>1191.4000244</ele>
        <time>2019-06-02T11:06:15Z</time>
      </trkpt>
      <trkpt lat="44.556" lon="6.3628">
        <ele>1193.4000244</ele>
        <time>2019-06-02T11:06:27Z</time>
      </trkpt>
      <trkpt lat="44.55574" lon="6.3625">
        <ele>1195.5999756</ele>
        <time>2019-06-02T11:06:40Z</time>
      </trkpt>
      <trkpt lat="44.55546" lon="6.36215">
        <ele>1197</ele>
        <time>2019-06-02T11:06:52Z</time>
      </trkpt>
      <trkpt lat="44.55535" lon="6.36181">
        <ele>1196.8000488</ele>
        <time>2019-06-02T11:06:59Z</time>
      </trkpt>
      <trkpt lat="44.55534" lon="6.36176">
        <ele>1196.8000488</ele>
        <time>2019-06-02T11:07:00Z</time>
      </trkpt>
      <trkpt lat="44.5554" lon="6.36105">
        <ele>1197.1999512</ele>
        <time>2019-06-02T11:07:16Z</time>
      </trkpt>
      <trkpt lat="44.5556" lon="6.36032">
        <ele>1199.1999512</ele>
        <time>2019-06-02T11:07:33Z</time>
      </trkpt>
      <trkpt lat="44.55573" lon="6.35963">
        <ele>1199.4000244</ele>
        <time>2019-06-02T11:07:46Z</time>
      </trkpt>
      <trkpt lat="44.55581" lon="6.35931">
        <ele>1199.1999512</ele>
        <time>2019-06-02T11:07:51Z</time>
      </trkpt>
      <trkpt lat="44.55583" lon="6.35925">
        <ele>1199</ele>
        <time>2019-06-02T11:07:52Z</time>
      </trkpt>
      <trkpt lat="44.55591" lon="6.35907">
        <ele>1198.4000244</ele>
        <time>2019-06-02T11:07:55Z</time>
      </trkpt>
      <trkpt lat="44.55594" lon="6.35901">
        <ele>1198.4000244</ele>
        <time>2019-06-02T11:07:56Z</time>
      </trkpt>
      <trkpt lat="44.55596" lon="6.35894">
        <ele>1198.1999512</ele>
        <time>2019-06-02T11:07:57Z</time>
      </trkpt>
      <trkpt lat="44.55598" lon="6.35886">
        <ele>1198</ele>
        <time>2019-06-02T11:07:58Z</time>
      </trkpt>
      <trkpt lat="44.55599" lon="6.35879">
        <ele>1197.8000488</ele>
        <time>2019-06-02T11:07:59Z</time>
      </trkpt>
      <trkpt lat="44.556" lon="6.3587">
        <ele>1197.8000488</ele>
        <time>2019-06-02T11:08:00Z</time>
      </trkpt>
      <trkpt lat="44.556" lon="6.35862">
        <ele>1197.5999756</ele>
        <time>2019-06-02T11:08:01Z</time>
      </trkpt>
      <trkpt lat="44.55599" lon="6.35853">
        <ele>1197.5999756</ele>
        <time>2019-06-02T11:08:02Z</time>
      </trkpt>
      <trkpt lat="44.55598" lon="6.35845">
        <ele>1197.5999756</ele>
        <time>2019-06-02T11:08:03Z</time>
      </trkpt>
      <trkpt lat="44.55595" lon="6.35836">
        <ele>1197.4000244</ele>
        <time>2019-06-02T11:08:04Z</time>
      </trkpt>
      <trkpt lat="44.5558" lon="6.35786">
        <ele>1194.8000488</ele>
        <time>2019-06-02T11:08:10Z</time>
      </trkpt>
      <trkpt lat="44.55577" lon="6.35771">
        <ele>1194.8000488</ele>
        <time>2019-06-02T11:08:12Z</time>
      </trkpt>
      <trkpt lat="44.55577" lon="6.35763">
        <ele>1194.5999756</ele>
        <time>2019-06-02T11:08:13Z</time>
      </trkpt>
      <trkpt lat="44.55576" lon="6.35756">
        <ele>1194.5999756</ele>
        <time>2019-06-02T11:08:14Z</time>
      </trkpt>
      <trkpt lat="44.55582" lon="6.35675">
        <ele>1195</ele>
        <time>2019-06-02T11:08:26Z</time>
      </trkpt>
      <trkpt lat="44.55581" lon="6.35662">
        <ele>1195.1999512</ele>
        <time>2019-06-02T11:08:28Z</time>
      </trkpt>
      <trkpt lat="44.5558" lon="6.35656">
        <ele>1195.4000244</ele>
        <time>2019-06-02T11:08:29Z</time>
      </trkpt>
      <trkpt lat="44.55579" lon="6.3565">
        <ele>1195.4000244</ele>
        <time>2019-06-02T11:08:30Z</time>
      </trkpt>
      <trkpt lat="44.55575" lon="6.35638">
        <ele>1195.4000244</ele>
        <time>2019-06-02T11:08:32Z</time>
      </trkpt>
      <trkpt lat="44.55549" lon="6.35543">
        <ele>1196.1999512</ele>
        <time>2019-06-02T11:08:49Z</time>
      </trkpt>
      <trkpt lat="44.55535" lon="6.35435">
        <ele>1196.8000488</ele>
        <time>2019-06-02T11:09:08Z</time>
      </trkpt>
      <trkpt lat="44.55532" lon="6.35329">
        <ele>1196.1999512</ele>
        <time>2019-06-02T11:09:28Z</time>
      </trkpt>
      <trkpt lat="44.55538" lon="6.35301">
        <ele>1196.1999512</ele>
        <time>2019-06-02T11:09:33Z</time>
      </trkpt>
      <trkpt lat="44.55555" lon="6.35261">
        <ele>1196</ele>
        <time>2019-06-02T11:09:41Z</time>
      </trkpt>
      <trkpt lat="44.55559" lon="6.35257">
        <ele>1196</ele>
        <time>2019-06-02T11:09:42Z</time>
      </trkpt>
      <trkpt lat="44.55593" lon="6.35217">
        <ele>1196.4000244</ele>
        <time>2019-06-02T11:09:52Z</time>
      </trkpt>
      <trkpt lat="44.55596" lon="6.35211">
        <ele>1196.4000244</ele>
        <time>2019-06-02T11:09:53Z</time>
      </trkpt>
      <trkpt lat="44.55599" lon="6.35204">
        <ele>1196.4000244</ele>
        <time>2019-06-02T11:09:54Z</time>
      </trkpt>
      <trkpt lat="44.556" lon="6.35195">
        <ele>1196.4000244</ele>
        <time>2019-06-02T11:09:55Z</time>
      </trkpt>
      <trkpt lat="44.556" lon="6.35186">
        <ele>1196.4000244</ele>
        <time>2019-06-02T11:09:56Z</time>
      </trkpt>
      <trkpt lat="44.55599" lon="6.35175">
        <ele>1196.1999512</ele>
        <time>2019-06-02T11:09:57Z</time>
      </trkpt>
      <trkpt lat="44.55597" lon="6.35162">
        <ele>1196.1999512</ele>
        <time>2019-06-02T11:09:58Z</time>
      </trkpt>
      <trkpt lat="44.55594" lon="6.35149">
        <ele>1196</ele>
        <time>2019-06-02T11:09:59Z</time>
      </trkpt>
      <trkpt lat="44.55589" lon="6.35137">
        <ele>1196</ele>
        <time>2019-06-02T11:10:00Z</time>
      </trkpt>
      <trkpt lat="44.55584" lon="6.35125">
        <ele>1195.8000488</ele>
        <time>2019-06-02T11:10:01Z</time>
      </trkpt>
      <trkpt lat="44.55577" lon="6.35115">
        <ele>1195.4000244</ele>
        <time>2019-06-02T11:10:02Z</time>
      </trkpt>
      <trkpt lat="44.5557" lon="6.35104">
        <ele>1194.8000488</ele>
        <time>2019-06-02T11:10:03Z</time>
      </trkpt>
      <trkpt lat="44.55543" lon="6.35064">
        <ele>1190.8000488</ele>
        <time>2019-06-02T11:10:07Z</time>
      </trkpt>
      <trkpt lat="44.55533" lon="6.35047">
        <ele>1187.1999512</ele>
        <time>2019-06-02T11:10:09Z</time>
      </trkpt>
      <trkpt lat="44.55475" lon="6.3497">
        <ele>1185.1999512</ele>
        <time>2019-06-02T11:10:21Z</time>
      </trkpt>
      <trkpt lat="44.5544" lon="6.34927">
        <ele>1185.1999512</ele>
        <time>2019-06-02T11:10:27Z</time>
      </trkpt>
      <trkpt lat="44.5543" lon="6.34906">
        <ele>1185.1999512</ele>
        <time>2019-06-02T11:10:29Z</time>
      </trkpt>
      <trkpt lat="44.55416" lon="6.34857">
        <ele>1184.1999512</ele>
        <time>2019-06-02T11:10:33Z</time>
      </trkpt>
      <trkpt lat="44.55415" lon="6.34843">
        <ele>1183.4000244</ele>
        <time>2019-06-02T11:10:34Z</time>
      </trkpt>
      <trkpt lat="44.55415" lon="6.34829">
        <ele>1182.4000244</ele>
        <time>2019-06-02T11:10:35Z</time>
      </trkpt>
      <trkpt lat="44.55416" lon="6.34814">
        <ele>1181.8000488</ele>
        <time>2019-06-02T11:10:36Z</time>
      </trkpt>
      <trkpt lat="44.55417" lon="6.348">
        <ele>1180.1999512</ele>
        <time>2019-06-02T11:10:37Z</time>
      </trkpt>
      <trkpt lat="44.55428" lon="6.34727">
        <ele>1176.8000488</ele>
        <time>2019-06-02T11:10:42Z</time>
      </trkpt>
      <trkpt lat="44.55442" lon="6.34649">
        <ele>1173.1999512</ele>
        <time>2019-06-02T11:10:47Z</time>
      </trkpt>
      <trkpt lat="44.55452" lon="6.34586">
        <ele>1169.4000244</ele>
        <time>2019-06-02T11:10:51Z</time>
      </trkpt>
      <trkpt lat="44.55455" lon="6.34556">
        <ele>1166.1999512</ele>
        <time>2019-06-02T11:10:53Z</time>
      </trkpt>
      <trkpt lat="44.55456" lon="6.34527">
        <ele>1162.8000488</ele>
        <time>2019-06-02T11:10:55Z</time>
      </trkpt>
      <trkpt lat="44.55456" lon="6.34482">
        <ele>1160.5999756</ele>
        <time>2019-06-02T11:10:58Z</time>
      </trkpt>
      <trkpt lat="44.5546" lon="6.34375">
        <ele>1157.5999756</ele>
        <time>2019-06-02T11:11:05Z</time>
      </trkpt>
      <trkpt lat="44.55466" lon="6.34334">
        <ele>1154</ele>
        <time>2019-06-02T11:11:08Z</time>
      </trkpt>
      <trkpt lat="44.55472" lon="6.34311">
        <ele>1152.5999756</ele>
        <time>2019-06-02T11:11:10Z</time>
      </trkpt>
      <trkpt lat="44.55476" lon="6.34301">
        <ele>1151.8000488</ele>
        <time>2019-06-02T11:11:11Z</time>
      </trkpt>
      <trkpt lat="44.55481" lon="6.34293">
        <ele>1151.1999512</ele>
        <time>2019-06-02T11:11:12Z</time>
      </trkpt>
      <trkpt lat="44.55485" lon="6.34285">
        <ele>1150.8000488</ele>
        <time>2019-06-02T11:11:13Z</time>
      </trkpt>
      <trkpt lat="44.5549" lon="6.34276">
        <ele>1150.4000244</ele>
        <time>2019-06-02T11:11:14Z</time>
      </trkpt>
      <trkpt lat="44.55493" lon="6.34268">
        <ele>1150.4000244</ele>
        <time>2019-06-02T11:11:15Z</time>
      </trkpt>
      <trkpt lat="44.55494" lon="6.34258">
        <ele>1150.1999512</ele>
        <time>2019-06-02T11:11:16Z</time>
      </trkpt>
      <trkpt lat="44.55493" lon="6.34249">
        <ele>1150.1999512</ele>
        <time>2019-06-02T11:11:17Z</time>
      </trkpt>
      <trkpt lat="44.5549" lon="6.34241">
        <ele>1150.1999512</ele>
        <time>2019-06-02T11:11:18Z</time>
      </trkpt>
      <trkpt lat="44.55485" lon="6.34233">
        <ele>1150.1999512</ele>
        <time>2019-06-02T11:11:19Z</time>
      </trkpt>
      <trkpt lat="44.55479" lon="6.34227">
        <ele>1150.1999512</ele>
        <time>2019-06-02T11:11:20Z</time>
      </trkpt>
      <trkpt lat="44.55473" lon="6.34222">
        <ele>1150</ele>
        <time>2019-06-02T11:11:21Z</time>
      </trkpt>
      <trkpt lat="44.55466" lon="6.34216">
        <ele>1150</ele>
        <time>2019-06-02T11:11:22Z</time>
      </trkpt>
      <trkpt lat="44.55461" lon="6.34209">
        <ele>1149.8000488</ele>
        <time>2019-06-02T11:11:23Z</time>
      </trkpt>
      <trkpt lat="44.55457" lon="6.342">
        <ele>1149.8000488</ele>
        <time>2019-06-02T11:11:24Z</time>
      </trkpt>
      <trkpt lat="44.55454" lon="6.34189">
        <ele>1149</ele>
        <time>2019-06-02T11:11:25Z</time>
      </trkpt>
      <trkpt lat="44.55451" lon="6.34178">
        <ele>1149</ele>
        <time>2019-06-02T11:11:26Z</time>
      </trkpt>
      <trkpt lat="44.55438" lon="6.34116">
        <ele>1147</ele>
        <time>2019-06-02T11:11:31Z</time>
      </trkpt>
      <trkpt lat="44.55434" lon="6.34059">
        <ele>1144.1999512</ele>
        <time>2019-06-02T11:11:35Z</time>
      </trkpt>
      <trkpt lat="44.55432" lon="6.34046">
        <ele>1143</ele>
        <time>2019-06-02T11:11:36Z</time>
      </trkpt>
      <trkpt lat="44.55422" lon="6.33993">
        <ele>1139.5999756</ele>
        <time>2019-06-02T11:11:40Z</time>
      </trkpt>
      <trkpt lat="44.55421" lon="6.33981">
        <ele>1138.8000488</ele>
        <time>2019-06-02T11:11:41Z</time>
      </trkpt>
      <trkpt lat="44.55421" lon="6.33968">
        <ele>1138</ele>
        <time>2019-06-02T11:11:42Z</time>
      </trkpt>
      <trkpt lat="44.55421" lon="6.33956">
        <ele>1137.5999756</ele>
        <time>2019-06-02T11:11:43Z</time>
      </trkpt>
      <trkpt lat="44.55422" lon="6.33945">
        <ele>1137.1999512</ele>
        <time>2019-06-02T11:11:44Z</time>
      </trkpt>
      <trkpt lat="44.55425" lon="6.33935">
        <ele>1136.5999756</ele>
        <time>2019-06-02T11:11:45Z</time>
      </trkpt>
      <trkpt lat="44.55427" lon="6.33925">
        <ele>1136.1999512</ele>
        <time>2019-06-02T11:11:46Z</time>
      </trkpt>
      <trkpt lat="44.55429" lon="6.33915">
        <ele>1136.1999512</ele>
        <time>2019-06-02T11:11:47Z</time>
      </trkpt>
      <trkpt lat="44.55443" lon="6.33819">
        <ele>1135</ele>
        <time>2019-06-02T11:11:57Z</time>
      </trkpt>
      <trkpt lat="44.55446" lon="6.33812">
        <ele>1135</ele>
        <time>2019-06-02T11:11:58Z</time>
      </trkpt>
      <trkpt lat="44.55449" lon="6.33804">
        <ele>1135</ele>
        <time>2019-06-02T11:11:59Z</time>
      </trkpt>
      <trkpt lat="44.55451" lon="6.33797">
        <ele>1135</ele>
        <time>2019-06-02T11:12:00Z</time>
      </trkpt>
      <trkpt lat="44.55452" lon="6.33789">
        <ele>1134.8000488</ele>
        <time>2019-06-02T11:12:01Z</time>
      </trkpt>
      <trkpt lat="44.55453" lon="6.33781">
        <ele>1134.8000488</ele>
        <time>2019-06-02T11:12:02Z</time>
      </trkpt>
      <trkpt lat="44.55452" lon="6.33773">
        <ele>1134.5999756</ele>
        <time>2019-06-02T11:12:03Z</time>
      </trkpt>
      <trkpt lat="44.55451" lon="6.33765">
        <ele>1134.5999756</ele>
        <time>2019-06-02T11:12:04Z</time>
      </trkpt>
      <trkpt lat="44.55447" lon="6.33726">
        <ele>1133.8000488</ele>
        <time>2019-06-02T11:12:09Z</time>
      </trkpt>
      <trkpt lat="44.55447" lon="6.33718">
        <ele>1133.5999756</ele>
        <time>2019-06-02T11:12:10Z</time>
      </trkpt>
      <trkpt lat="44.55448" lon="6.33711">
        <ele>1133.5999756</ele>
        <time>2019-06-02T11:12:11Z</time>
      </trkpt>
      <trkpt lat="44.5545" lon="6.33703">
        <ele>1133.4000244</ele>
        <time>2019-06-02T11:12:12Z</time>
      </trkpt>
      <trkpt lat="44.55453" lon="6.33697">
        <ele>1133.4000244</ele>
        <time>2019-06-02T11:12:13Z</time>
      </trkpt>
      <trkpt lat="44.55457" lon="6.3369">
        <ele>1133.4000244</ele>
        <time>2019-06-02T11:12:14Z</time>
      </trkpt>
      <trkpt lat="44.55461" lon="6.33685">
        <ele>1133.4000244</ele>
        <time>2019-06-02T11:12:15Z</time>
      </trkpt>
      <trkpt lat="44.55466" lon="6.33681">
        <ele>1133.1999512</ele>
        <time>2019-06-02T11:12:16Z</time>
      </trkpt>
      <trkpt lat="44.55471" lon="6.33677">
        <ele>1133.1999512</ele>
        <time>2019-06-02T11:12:17Z</time>
      </trkpt>
      <trkpt lat="44.55476" lon="6.33674">
        <ele>1133.1999512</ele>
        <time>2019-06-02T11:12:18Z</time>
      </trkpt>
      <trkpt lat="44.55481" lon="6.3367">
        <ele>1133.1999512</ele>
        <time>2019-06-02T11:12:19Z</time>
      </trkpt>
      <trkpt lat="44.55485" lon="6.33665">
        <ele>1133.1999512</ele>
        <time>2019-06-02T11:12:20Z</time>
      </trkpt>
      <trkpt lat="44.55487" lon="6.33658">
        <ele>1133.1999512</ele>
        <time>2019-06-02T11:12:21Z</time>
      </trkpt>
      <trkpt lat="44.55487" lon="6.33651">
        <ele>1133.1999512</ele>
        <time>2019-06-02T11:12:22Z</time>
      </trkpt>
      <trkpt lat="44.55488" lon="6.33644">
        <ele>1133.1999512</ele>
        <time>2019-06-02T11:12:23Z</time>
      </trkpt>
      <trkpt lat="44.55488" lon="6.33636">
        <ele>1133.1999512</ele>
        <time>2019-06-02T11:12:24Z</time>
      </trkpt>
      <trkpt lat="44.55487" lon="6.33629">
        <ele>1133.1999512</ele>
        <time>2019-06-02T11:12:25Z</time>
      </trkpt>
      <trkpt lat="44.55485" lon="6.33623">
        <ele>1133.1999512</ele>
        <time>2019-06-02T11:12:26Z</time>
      </trkpt>
      <trkpt lat="44.55482" lon="6.33619">
        <ele>1133.1999512</ele>
        <time>2019-06-02T11:12:27Z</time>
      </trkpt>
      <trkpt lat="44.55477" lon="6.33616">
        <ele>1133.1999512</ele>
        <time>2019-06-02T11:12:28Z</time>
      </trkpt>
      <trkpt lat="44.55471" lon="6.33615">
        <ele>1133.1999512</ele>
        <time>2019-06-02T11:12:29Z</time>
      </trkpt>
      <trkpt lat="44.55466" lon="6.33615">
        <ele>1133.1999512</ele>
        <time>2019-06-02T11:12:30Z</time>
      </trkpt>
      <trkpt lat="44.55461" lon="6.33614">
        <ele>1133.1999512</ele>
        <time>2019-06-02T11:12:31Z</time>
      </trkpt>
      <trkpt lat="44.5544" lon="6.33611">
        <ele>1133.1999512</ele>
        <time>2019-06-02T11:12:35Z</time>
      </trkpt>
      <trkpt lat="44.55394" lon="6.33587">
        <ele>1131.4000244</ele>
        <time>2019-06-02T11:12:44Z</time>
      </trkpt>
      <trkpt lat="44.55358" lon="6.33548">
        <ele>1130.5999756</ele>
        <time>2019-06-02T11:12:52Z</time>
      </trkpt>
      <trkpt lat="44.55355" lon="6.33541">
        <ele>1130.5999756</ele>
        <time>2019-06-02T11:12:53Z</time>
      </trkpt>
      <trkpt lat="44.55352" lon="6.33533">
        <ele>1130.5999756</ele>
        <time>2019-06-02T11:12:54Z</time>
      </trkpt>
      <trkpt lat="44.5535" lon="6.33525">
        <ele>1130.5999756</ele>
        <time>2019-06-02T11:12:55Z</time>
      </trkpt>
      <trkpt lat="44.55348" lon="6.33517">
        <ele>1130.4000244</ele>
        <time>2019-06-02T11:12:56Z</time>
      </trkpt>
      <trkpt lat="44.55347" lon="6.33508">
        <ele>1130.4000244</ele>
        <time>2019-06-02T11:12:57Z</time>
      </trkpt>
      <trkpt lat="44.55346" lon="6.33499">
        <ele>1130.1999512</ele>
        <time>2019-06-02T11:12:58Z</time>
      </trkpt>
      <trkpt lat="44.55344" lon="6.33419">
        <ele>1127.5999756</ele>
        <time>2019-06-02T11:13:07Z</time>
      </trkpt>
      <trkpt lat="44.55345" lon="6.3341">
        <ele>1127.4000244</ele>
        <time>2019-06-02T11:13:08Z</time>
      </trkpt>
      <trkpt lat="44.55352" lon="6.33385">
        <ele>1126.4000244</ele>
        <time>2019-06-02T11:13:11Z</time>
      </trkpt>
      <trkpt lat="44.55356" lon="6.33377">
        <ele>1126</ele>
        <time>2019-06-02T11:13:12Z</time>
      </trkpt>
      <trkpt lat="44.5536" lon="6.3337">
        <ele>1125.5999756</ele>
        <time>2019-06-02T11:13:13Z</time>
      </trkpt>
      <trkpt lat="44.55364" lon="6.33363">
        <ele>1125.1999512</ele>
        <time>2019-06-02T11:13:14Z</time>
      </trkpt>
      <trkpt lat="44.55369" lon="6.33356">
        <ele>1125.1999512</ele>
        <time>2019-06-02T11:13:15Z</time>
      </trkpt>
      <trkpt lat="44.55373" lon="6.33348">
        <ele>1125</ele>
        <time>2019-06-02T11:13:16Z</time>
      </trkpt>
      <trkpt lat="44.55376" lon="6.33339">
        <ele>1124.8000488</ele>
        <time>2019-06-02T11:13:17Z</time>
      </trkpt>
      <trkpt lat="44.55378" lon="6.3333">
        <ele>1124.5999756</ele>
        <time>2019-06-02T11:13:18Z</time>
      </trkpt>
      <trkpt lat="44.55379" lon="6.33321">
        <ele>1124.1999512</ele>
        <time>2019-06-02T11:13:19Z</time>
      </trkpt>
      <trkpt lat="44.55382" lon="6.33294">
        <ele>1123.5999756</ele>
        <time>2019-06-02T11:13:22Z</time>
      </trkpt>
      <trkpt lat="44.55382" lon="6.33285">
        <ele>1123.5999756</ele>
        <time>2019-06-02T11:13:23Z</time>
      </trkpt>
      <trkpt lat="44.55381" lon="6.33275">
        <ele>1123.4000244</ele>
        <time>2019-06-02T11:13:24Z</time>
      </trkpt>
      <trkpt lat="44.55379" lon="6.33266">
        <ele>1123.4000244</ele>
        <time>2019-06-02T11:13:25Z</time>
      </trkpt>
      <trkpt lat="44.55375" lon="6.33258">
        <ele>1123.1999512</ele>
        <time>2019-06-02T11:13:26Z</time>
      </trkpt>
      <trkpt lat="44.5537" lon="6.33252">
        <ele>1123</ele>
        <time>2019-06-02T11:13:27Z</time>
      </trkpt>
      <trkpt lat="44.55363" lon="6.33248">
        <ele>1122.5999756</ele>
        <time>2019-06-02T11:13:28Z</time>
      </trkpt>
      <trkpt lat="44.55355" lon="6.33247">
        <ele>1122.4000244</ele>
        <time>2019-06-02T11:13:29Z</time>
      </trkpt>
      <trkpt lat="44.55348" lon="6.33249">
        <ele>1122.1999512</ele>
        <time>2019-06-02T11:13:30Z</time>
      </trkpt>
      <trkpt lat="44.5534" lon="6.33253">
        <ele>1122</ele>
        <time>2019-06-02T11:13:31Z</time>
      </trkpt>
      <trkpt lat="44.55253" lon="6.33283">
        <ele>1119.8000488</ele>
        <time>2019-06-02T11:13:42Z</time>
      </trkpt>
      <trkpt lat="44.55206" lon="6.33296">
        <ele>1117.8000488</ele>
        <time>2019-06-02T11:13:48Z</time>
      </trkpt>
      <trkpt lat="44.55198" lon="6.33296">
        <ele>1117.4000244</ele>
        <time>2019-06-02T11:13:49Z</time>
      </trkpt>
      <trkpt lat="44.5519" lon="6.33294">
        <ele>1116.8000488</ele>
        <time>2019-06-02T11:13:50Z</time>
      </trkpt>
      <trkpt lat="44.55183" lon="6.33291">
        <ele>1116.1999512</ele>
        <time>2019-06-02T11:13:51Z</time>
      </trkpt>
      <trkpt lat="44.55176" lon="6.33286">
        <ele>1115.8000488</ele>
        <time>2019-06-02T11:13:52Z</time>
      </trkpt>
      <trkpt lat="44.5517" lon="6.33281">
        <ele>1115.5999756</ele>
        <time>2019-06-02T11:13:53Z</time>
      </trkpt>
      <trkpt lat="44.55165" lon="6.33275">
        <ele>1115.4000244</ele>
        <time>2019-06-02T11:13:54Z</time>
      </trkpt>
      <trkpt lat="44.5516" lon="6.33269">
        <ele>1115.1999512</ele>
        <time>2019-06-02T11:13:55Z</time>
      </trkpt>
      <trkpt lat="44.55154" lon="6.33263">
        <ele>1115.1999512</ele>
        <time>2019-06-02T11:13:56Z</time>
      </trkpt>
      <trkpt lat="44.55149" lon="6.33258">
        <ele>1115</ele>
        <time>2019-06-02T11:13:57Z</time>
      </trkpt>
      <trkpt lat="44.55101" lon="6.332">
        <ele>1113.5999756</ele>
        <time>2019-06-02T11:14:09Z</time>
      </trkpt>
      <trkpt lat="44.55099" lon="6.33195">
        <ele>1113.5999756</ele>
        <time>2019-06-02T11:14:10Z</time>
      </trkpt>
      <trkpt lat="44.55096" lon="6.33189">
        <ele>1113.4000244</ele>
        <time>2019-06-02T11:14:11Z</time>
      </trkpt>
      <trkpt lat="44.55094" lon="6.33182">
        <ele>1113.4000244</ele>
        <time>2019-06-02T11:14:12Z</time>
      </trkpt>
      <trkpt lat="44.55092" lon="6.33175">
        <ele>1113.4000244</ele>
        <time>2019-06-02T11:14:13Z</time>
      </trkpt>
      <trkpt lat="44.55066" lon="6.33104">
        <ele>1112</ele>
        <time>2019-06-02T11:14:22Z</time>
      </trkpt>
      <trkpt lat="44.55045" lon="6.33073">
        <ele>1109.8000488</ele>
        <time>2019-06-02T11:14:26Z</time>
      </trkpt>
      <trkpt lat="44.55038" lon="6.33066">
        <ele>1109.4000244</ele>
        <time>2019-06-02T11:14:27Z</time>
      </trkpt>
      <trkpt lat="44.55032" lon="6.33058">
        <ele>1108.8000488</ele>
        <time>2019-06-02T11:14:28Z</time>
      </trkpt>
      <trkpt lat="44.55026" lon="6.3305">
        <ele>1108.1999512</ele>
        <time>2019-06-02T11:14:29Z</time>
      </trkpt>
      <trkpt lat="44.55021" lon="6.3304">
        <ele>1107.8000488</ele>
        <time>2019-06-02T11:14:30Z</time>
      </trkpt>
      <trkpt lat="44.54984" lon="6.32965">
        <ele>1104.4000244</ele>
        <time>2019-06-02T11:14:37Z</time>
      </trkpt>
      <trkpt lat="44.54957" lon="6.32912">
        <ele>1101</ele>
        <time>2019-06-02T11:14:42Z</time>
      </trkpt>
      <trkpt lat="44.5495" lon="6.32892">
        <ele>1098.1999512</ele>
        <time>2019-06-02T11:14:44Z</time>
      </trkpt>
      <trkpt lat="44.54948" lon="6.32881">
        <ele>1097.5999756</ele>
        <time>2019-06-02T11:14:45Z</time>
      </trkpt>
      <trkpt lat="44.54947" lon="6.32869">
        <ele>1097</ele>
        <time>2019-06-02T11:14:46Z</time>
      </trkpt>
      <trkpt lat="44.54947" lon="6.32857">
        <ele>1096.1999512</ele>
        <time>2019-06-02T11:14:47Z</time>
      </trkpt>
      <trkpt lat="44.54947" lon="6.32845">
        <ele>1095.4000244</ele>
        <time>2019-06-02T11:14:48Z</time>
      </trkpt>
      <trkpt lat="44.54953" lon="6.32777">
        <ele>1092.1999512</ele>
        <time>2019-06-02T11:14:53Z</time>
      </trkpt>
      <trkpt lat="44.54962" lon="6.32702">
        <ele>1088.1999512</ele>
        <time>2019-06-02T11:14:58Z</time>
      </trkpt>
      <trkpt lat="44.54968" lon="6.32654">
        <ele>1084.1999512</ele>
        <time>2019-06-02T11:15:01Z</time>
      </trkpt>
      <trkpt lat="44.54973" lon="6.32606">
        <ele>1080.8000488</ele>
        <time>2019-06-02T11:15:04Z</time>
      </trkpt>
      <trkpt lat="44.54982" lon="6.3255">
        <ele>1077.1999512</ele>
        <time>2019-06-02T11:15:08Z</time>
      </trkpt>
      <trkpt lat="44.54989" lon="6.32513">
        <ele>1073.8000488</ele>
        <time>2019-06-02T11:15:11Z</time>
      </trkpt>
      <trkpt lat="44.54994" lon="6.32492">
        <ele>1073.1999512</ele>
        <time>2019-06-02T11:15:13Z</time>
      </trkpt>
      <trkpt lat="44.54995" lon="6.32483">
        <ele>1072.8000488</ele>
        <time>2019-06-02T11:15:14Z</time>
      </trkpt>
      <trkpt lat="44.54996" lon="6.32474">
        <ele>1072.4000244</ele>
        <time>2019-06-02T11:15:15Z</time>
      </trkpt>
      <trkpt lat="44.54995" lon="6.32466">
        <ele>1071.8000488</ele>
        <time>2019-06-02T11:15:16Z</time>
      </trkpt>
      <trkpt lat="44.54991" lon="6.32459">
        <ele>1070.8000488</ele>
        <time>2019-06-02T11:15:17Z</time>
      </trkpt>
      <trkpt lat="44.54986" lon="6.32452">
        <ele>1070.1999512</ele>
        <time>2019-06-02T11:15:18Z</time>
      </trkpt>
      <trkpt lat="44.54979" lon="6.32446">
        <ele>1069.8000488</ele>
        <time>2019-06-02T11:15:19Z</time>
      </trkpt>
      <trkpt lat="44.54973" lon="6.3244">
        <ele>1069.5999756</ele>
        <time>2019-06-02T11:15:20Z</time>
      </trkpt>
      <trkpt lat="44.54952" lon="6.3242">
        <ele>1068.8000488</ele>
        <time>2019-06-02T11:15:23Z</time>
      </trkpt>
      <trkpt lat="44.54945" lon="6.32411">
        <ele>1068.4000244</ele>
        <time>2019-06-02T11:15:24Z</time>
      </trkpt>
      <trkpt lat="44.54939" lon="6.324">
        <ele>1068.4000244</ele>
        <time>2019-06-02T11:15:25Z</time>
      </trkpt>
      <trkpt lat="44.54934" lon="6.32388">
        <ele>1068</ele>
        <time>2019-06-02T11:15:26Z</time>
      </trkpt>
      <trkpt lat="44.54929" lon="6.32376">
        <ele>1067.8000488</ele>
        <time>2019-06-02T11:15:27Z</time>
      </trkpt>
      <trkpt lat="44.54916" lon="6.32322">
        <ele>1062.5999756</ele>
        <time>2019-06-02T11:15:31Z</time>
      </trkpt>
      <trkpt lat="44.54913" lon="6.32275">
        <ele>1059.4000244</ele>
        <time>2019-06-02T11:15:34Z</time>
      </trkpt>
      <trkpt lat="44.54911" lon="6.32213">
        <ele>1055.5999756</ele>
        <time>2019-06-02T11:15:38Z</time>
      </trkpt>
      <trkpt lat="44.54912" lon="6.32164">
        <ele>1051.8000488</ele>
        <time>2019-06-02T11:15:41Z</time>
      </trkpt>
      <trkpt lat="44.54914" lon="6.32113">
        <ele>1048.1999512</ele>
        <time>2019-06-02T11:15:44Z</time>
      </trkpt>
      <trkpt lat="44.54918" lon="6.32062">
        <ele>1044.8000488</ele>
        <time>2019-06-02T11:15:47Z</time>
      </trkpt>
      <trkpt lat="44.54925" lon="6.31994">
        <ele>1041.4000244</ele>
        <time>2019-06-02T11:15:51Z</time>
      </trkpt>
      <trkpt lat="44.54932" lon="6.31943">
        <ele>1037.5999756</ele>
        <time>2019-06-02T11:15:54Z</time>
      </trkpt>
      <trkpt lat="44.54938" lon="6.31899">
        <ele>1034.1999512</ele>
        <time>2019-06-02T11:15:57Z</time>
      </trkpt>
      <trkpt lat="44.54946" lon="6.31858">
        <ele>1030</ele>
        <time>2019-06-02T11:16:00Z</time>
      </trkpt>
      <trkpt lat="44.54958" lon="6.31815">
        <ele>1026.8000488</ele>
        <time>2019-06-02T11:16:03Z</time>
      </trkpt>
      <trkpt lat="44.54971" lon="6.31743">
        <ele>1023.7999878</ele>
        <time>2019-06-02T11:16:08Z</time>
      </trkpt>
      <trkpt lat="44.54973" lon="6.3173">
        <ele>1023</ele>
        <time>2019-06-02T11:16:09Z</time>
      </trkpt>
      <trkpt lat="44.54976" lon="6.31718">
        <ele>1022.2000122</ele>
        <time>2019-06-02T11:16:10Z</time>
      </trkpt>
      <trkpt lat="44.5498" lon="6.31706">
        <ele>1021.5999756</ele>
        <time>2019-06-02T11:16:11Z</time>
      </trkpt>
      <trkpt lat="44.54984" lon="6.31695">
        <ele>1020.5999756</ele>
        <time>2019-06-02T11:16:12Z</time>
      </trkpt>
      <trkpt lat="44.54989" lon="6.31685">
        <ele>1019.4000244</ele>
        <time>2019-06-02T11:16:13Z</time>
      </trkpt>
      <trkpt lat="44.54993" lon="6.31675">
        <ele>1018.2000122</ele>
        <time>2019-06-02T11:16:14Z</time>
      </trkpt>
      <trkpt lat="44.54995" lon="6.31665">
        <ele>1017.5999756</ele>
        <time>2019-06-02T11:16:15Z</time>
      </trkpt>
      <trkpt lat="44.54996" lon="6.31655">
        <ele>1017</ele>
        <time>2019-06-02T11:16:16Z</time>
      </trkpt>
      <trkpt lat="44.54995" lon="6.31644">
        <ele>1016.7999878</ele>
        <time>2019-06-02T11:16:17Z</time>
      </trkpt>
      <trkpt lat="44.54992" lon="6.31633">
        <ele>1016.4000244</ele>
        <time>2019-06-02T11:16:18Z</time>
      </trkpt>
      <trkpt lat="44.54989" lon="6.31622">
        <ele>1014.5999756</ele>
        <time>2019-06-02T11:16:19Z</time>
      </trkpt>
      <trkpt lat="44.54984" lon="6.31611">
        <ele>1014.5999756</ele>
        <time>2019-06-02T11:16:20Z</time>
      </trkpt>
      <trkpt lat="44.54979" lon="6.31602">
        <ele>1013.7999878</ele>
        <time>2019-06-02T11:16:21Z</time>
      </trkpt>
      <trkpt lat="44.54973" lon="6.31593">
        <ele>1013.5999756</ele>
        <time>2019-06-02T11:16:22Z</time>
      </trkpt>
      <trkpt lat="44.54968" lon="6.31583">
        <ele>1013.2000122</ele>
        <time>2019-06-02T11:16:23Z</time>
      </trkpt>
      <trkpt lat="44.54965" lon="6.31572">
        <ele>1013</ele>
        <time>2019-06-02T11:16:24Z</time>
      </trkpt>
      <trkpt lat="44.54962" lon="6.31559">
        <ele>1012</ele>
        <time>2019-06-02T11:16:25Z</time>
      </trkpt>
      <trkpt lat="44.5496" lon="6.31546">
        <ele>1011.2000122</ele>
        <time>2019-06-02T11:16:26Z</time>
      </trkpt>
      <trkpt lat="44.54958" lon="6.31532">
        <ele>1010.4000244</ele>
        <time>2019-06-02T11:16:27Z</time>
      </trkpt>
      <trkpt lat="44.54958" lon="6.31518">
        <ele>1009.4000244</ele>
        <time>2019-06-02T11:16:28Z</time>
      </trkpt>
      <trkpt lat="44.54955" lon="6.31457">
        <ele>1006.2000122</ele>
        <time>2019-06-02T11:16:32Z</time>
      </trkpt>
      <trkpt lat="44.54953" lon="6.31411">
        <ele>1002.5999756</ele>
        <time>2019-06-02T11:16:35Z</time>
      </trkpt>
      <trkpt lat="44.54952" lon="6.31368">
        <ele>999</ele>
        <time>2019-06-02T11:16:38Z</time>
      </trkpt>
      <trkpt lat="44.54953" lon="6.31343">
        <ele>997.2000122</ele>
        <time>2019-06-02T11:16:40Z</time>
      </trkpt>
      <trkpt lat="44.54954" lon="6.31331">
        <ele>996.2000122</ele>
        <time>2019-06-02T11:16:41Z</time>
      </trkpt>
      <trkpt lat="44.54957" lon="6.31319">
        <ele>995.4000244</ele>
        <time>2019-06-02T11:16:42Z</time>
      </trkpt>
      <trkpt lat="44.54961" lon="6.31308">
        <ele>994.4000244</ele>
        <time>2019-06-02T11:16:43Z</time>
      </trkpt>
      <trkpt lat="44.54966" lon="6.31299">
        <ele>994.4000244</ele>
        <time>2019-06-02T11:16:44Z</time>
      </trkpt>
      <trkpt lat="44.54971" lon="6.31291">
        <ele>993.2000122</ele>
        <time>2019-06-02T11:16:45Z</time>
      </trkpt>
      <trkpt lat="44.54975" lon="6.31282">
        <ele>992.5999756</ele>
        <time>2019-06-02T11:16:46Z</time>
      </trkpt>
      <trkpt lat="44.54978" lon="6.31274">
        <ele>991.5999756</ele>
        <time>2019-06-02T11:16:47Z</time>
      </trkpt>
      <trkpt lat="44.54979" lon="6.31265">
        <ele>990.7999878</ele>
        <time>2019-06-02T11:16:48Z</time>
      </trkpt>
      <trkpt lat="44.54978" lon="6.31257">
        <ele>990.2000122</ele>
        <time>2019-06-02T11:16:49Z</time>
      </trkpt>
      <trkpt lat="44.54976" lon="6.31249">
        <ele>989.4000244</ele>
        <time>2019-06-02T11:16:50Z</time>
      </trkpt>
      <trkpt lat="44.54971" lon="6.31241">
        <ele>988.7999878</ele>
        <time>2019-06-02T11:16:51Z</time>
      </trkpt>
      <trkpt lat="44.54965" lon="6.31235">
        <ele>988.2000122</ele>
        <time>2019-06-02T11:16:52Z</time>
      </trkpt>
      <trkpt lat="44.54958" lon="6.3123">
        <ele>987.7999878</ele>
        <time>2019-06-02T11:16:53Z</time>
      </trkpt>
      <trkpt lat="44.54951" lon="6.31226">
        <ele>987.5999756</ele>
        <time>2019-06-02T11:16:54Z</time>
      </trkpt>
      <trkpt lat="44.54943" lon="6.31222">
        <ele>987.4000244</ele>
        <time>2019-06-02T11:16:55Z</time>
      </trkpt>
      <trkpt lat="44.54919" lon="6.31205">
        <ele>986.5999756</ele>
        <time>2019-06-02T11:16:58Z</time>
      </trkpt>
      <trkpt lat="44.54912" lon="6.31198">
        <ele>986.2000122</ele>
        <time>2019-06-02T11:16:59Z</time>
      </trkpt>
      <trkpt lat="44.54904" lon="6.3119">
        <ele>986</ele>
        <time>2019-06-02T11:17:00Z</time>
      </trkpt>
      <trkpt lat="44.54898" lon="6.31181">
        <ele>985.7999878</ele>
        <time>2019-06-02T11:17:01Z</time>
      </trkpt>
      <trkpt lat="44.54891" lon="6.31171">
        <ele>985.2000122</ele>
        <time>2019-06-02T11:17:02Z</time>
      </trkpt>
      <trkpt lat="44.54885" lon="6.3116">
        <ele>984</ele>
        <time>2019-06-02T11:17:03Z</time>
      </trkpt>
      <trkpt lat="44.54862" lon="6.31114">
        <ele>980.7999878</ele>
        <time>2019-06-02T11:17:07Z</time>
      </trkpt>
      <trkpt lat="44.54857" lon="6.31102">
        <ele>980.7999878</ele>
        <time>2019-06-02T11:17:08Z</time>
      </trkpt>
      <trkpt lat="44.54837" lon="6.31053">
        <ele>976.7999878</ele>
        <time>2019-06-02T11:17:12Z</time>
      </trkpt>
      <trkpt lat="44.54824" lon="6.31016">
        <ele>973.2000122</ele>
        <time>2019-06-02T11:17:15Z</time>
      </trkpt>
      <trkpt lat="44.54812" lon="6.30965">
        <ele>970.5999756</ele>
        <time>2019-06-02T11:17:19Z</time>
      </trkpt>
      <trkpt lat="44.54808" lon="6.30938">
        <ele>968.4000244</ele>
        <time>2019-06-02T11:17:21Z</time>
      </trkpt>
      <trkpt lat="44.54808" lon="6.30925">
        <ele>967.7999878</ele>
        <time>2019-06-02T11:17:22Z</time>
      </trkpt>
      <trkpt lat="44.54808" lon="6.30911">
        <ele>967.2000122</ele>
        <time>2019-06-02T11:17:23Z</time>
      </trkpt>
      <trkpt lat="44.54809" lon="6.30897">
        <ele>966.7999878</ele>
        <time>2019-06-02T11:17:24Z</time>
      </trkpt>
      <trkpt lat="44.54811" lon="6.30884">
        <ele>966.4000244</ele>
        <time>2019-06-02T11:17:25Z</time>
      </trkpt>
      <trkpt lat="44.54823" lon="6.30806">
        <ele>963.2000122</ele>
        <time>2019-06-02T11:17:31Z</time>
      </trkpt>
      <trkpt lat="44.54824" lon="6.30793">
        <ele>963.2000122</ele>
        <time>2019-06-02T11:17:32Z</time>
      </trkpt>
      <trkpt lat="44.54832" lon="6.30728">
        <ele>960</ele>
        <time>2019-06-02T11:17:37Z</time>
      </trkpt>
      <trkpt lat="44.54833" lon="6.30714">
        <ele>959.7999878</ele>
        <time>2019-06-02T11:17:38Z</time>
      </trkpt>
      <trkpt lat="44.54839" lon="6.30583">
        <ele>956.5999756</ele>
        <time>2019-06-02T11:17:49Z</time>
      </trkpt>
      <trkpt lat="44.54841" lon="6.30552">
        <ele>956</ele>
        <time>2019-06-02T11:17:52Z</time>
      </trkpt>
      <trkpt lat="44.54843" lon="6.30543">
        <ele>956</ele>
        <time>2019-06-02T11:17:53Z</time>
      </trkpt>
      <trkpt lat="44.54884" lon="6.30397">
        <ele>954.2000122</ele>
        <time>2019-06-02T11:18:09Z</time>
      </trkpt>
      <trkpt lat="44.54891" lon="6.30262">
        <ele>951.4000244</ele>
        <time>2019-06-02T11:18:22Z</time>
      </trkpt>
      <trkpt lat="44.54884" lon="6.30123">
        <ele>948</ele>
        <time>2019-06-02T11:18:35Z</time>
      </trkpt>
      <trkpt lat="44.54889" lon="6.30092">
        <ele>945.4000244</ele>
        <time>2019-06-02T11:18:38Z</time>
      </trkpt>
      <trkpt lat="44.54892" lon="6.30083">
        <ele>944.7999878</ele>
        <time>2019-06-02T11:18:39Z</time>
      </trkpt>
      <trkpt lat="44.54953" lon="6.29945">
        <ele>940.7999878</ele>
        <time>2019-06-02T11:18:53Z</time>
      </trkpt>
      <trkpt lat="44.54977" lon="6.29889">
        <ele>937.5999756</ele>
        <time>2019-06-02T11:18:58Z</time>
      </trkpt>
      <trkpt lat="44.54991" lon="6.29854">
        <ele>935.5999756</ele>
        <time>2019-06-02T11:19:01Z</time>
      </trkpt>
      <trkpt lat="44.54994" lon="6.29841">
        <ele>935.2000122</ele>
        <time>2019-06-02T11:19:02Z</time>
      </trkpt>
      <trkpt lat="44.54997" lon="6.29828">
        <ele>934.4000244</ele>
        <time>2019-06-02T11:19:03Z</time>
      </trkpt>
      <trkpt lat="44.54998" lon="6.29815">
        <ele>933.7999878</ele>
        <time>2019-06-02T11:19:04Z</time>
      </trkpt>
      <trkpt lat="44.54999" lon="6.29802">
        <ele>933</ele>
        <time>2019-06-02T11:19:05Z</time>
      </trkpt>
      <trkpt lat="44.54998" lon="6.29788">
        <ele>932.4000244</ele>
        <time>2019-06-02T11:19:06Z</time>
      </trkpt>
      <trkpt lat="44.54997" lon="6.29774">
        <ele>931.7999878</ele>
        <time>2019-06-02T11:19:07Z</time>
      </trkpt>
      <trkpt lat="44.54995" lon="6.29761">
        <ele>931.2000122</ele>
        <time>2019-06-02T11:19:08Z</time>
      </trkpt>
      <trkpt lat="44.54992" lon="6.29747">
        <ele>930.5999756</ele>
        <time>2019-06-02T11:19:09Z</time>
      </trkpt>
      <trkpt lat="44.54978" lon="6.29681">
        <ele>928.2000122</ele>
        <time>2019-06-02T11:19:14Z</time>
      </trkpt>
      <trkpt lat="44.54978" lon="6.29666">
        <ele>927.2000122</ele>
        <time>2019-06-02T11:19:15Z</time>
      </trkpt>
      <trkpt lat="44.54979" lon="6.29653">
        <ele>926.7999878</ele>
        <time>2019-06-02T11:19:16Z</time>
      </trkpt>
      <trkpt lat="44.54981" lon="6.29639">
        <ele>926.2000122</ele>
        <time>2019-06-02T11:19:17Z</time>
      </trkpt>
      <trkpt lat="44.54983" lon="6.29625">
        <ele>925.4000244</ele>
        <time>2019-06-02T11:19:18Z</time>
      </trkpt>
      <trkpt lat="44.54987" lon="6.29612">
        <ele>924.5999756</ele>
        <time>2019-06-02T11:19:19Z</time>
      </trkpt>
      <trkpt lat="44.54992" lon="6.296">
        <ele>924</ele>
        <time>2019-06-02T11:19:20Z</time>
      </trkpt>
      <trkpt lat="44.54998" lon="6.29588">
        <ele>922.7999878</ele>
        <time>2019-06-02T11:19:21Z</time>
      </trkpt>
      <trkpt lat="44.55022" lon="6.29542">
        <ele>919.5999756</ele>
        <time>2019-06-02T11:19:25Z</time>
      </trkpt>
      <trkpt lat="44.55028" lon="6.2953">
        <ele>919.4000244</ele>
        <time>2019-06-02T11:19:26Z</time>
      </trkpt>
      <trkpt lat="44.55032" lon="6.29516">
        <ele>918.4000244</ele>
        <time>2019-06-02T11:19:27Z</time>
      </trkpt>
      <trkpt lat="44.55055" lon="6.29448">
        <ele>915.2000122</ele>
        <time>2019-06-02T11:19:32Z</time>
      </trkpt>
      <trkpt lat="44.55085" lon="6.29391">
        <ele>911.5999756</ele>
        <time>2019-06-02T11:19:37Z</time>
      </trkpt>
      <trkpt lat="44.55089" lon="6.29379">
        <ele>910.7999878</ele>
        <time>2019-06-02T11:19:38Z</time>
      </trkpt>
      <trkpt lat="44.55092" lon="6.29367">
        <ele>910.4000244</ele>
        <time>2019-06-02T11:19:39Z</time>
      </trkpt>
      <trkpt lat="44.55092" lon="6.29354">
        <ele>909.7999878</ele>
        <time>2019-06-02T11:19:40Z</time>
      </trkpt>
      <trkpt lat="44.55091" lon="6.29341">
        <ele>909.5999756</ele>
        <time>2019-06-02T11:19:41Z</time>
      </trkpt>
      <trkpt lat="44.55089" lon="6.29328">
        <ele>909.2000122</ele>
        <time>2019-06-02T11:19:42Z</time>
      </trkpt>
      <trkpt lat="44.55085" lon="6.29315">
        <ele>908.4000244</ele>
        <time>2019-06-02T11:19:43Z</time>
      </trkpt>
      <trkpt lat="44.55081" lon="6.29303">
        <ele>907.5999756</ele>
        <time>2019-06-02T11:19:44Z</time>
      </trkpt>
      <trkpt lat="44.55075" lon="6.29291">
        <ele>907.2000122</ele>
        <time>2019-06-02T11:19:45Z</time>
      </trkpt>
      <trkpt lat="44.55069" lon="6.29279">
        <ele>906.7999878</ele>
        <time>2019-06-02T11:19:46Z</time>
      </trkpt>
      <trkpt lat="44.55031" lon="6.29215">
        <ele>903.7999878</ele>
        <time>2019-06-02T11:19:52Z</time>
      </trkpt>
      <trkpt lat="44.55011" lon="6.29191">
        <ele>900.5999756</ele>
        <time>2019-06-02T11:19:55Z</time>
      </trkpt>
      <trkpt lat="44.54954" lon="6.29155">
        <ele>897.5999756</ele>
        <time>2019-06-02T11:20:02Z</time>
      </trkpt>
      <trkpt lat="44.54917" lon="6.29152">
        <ele>895.4000244</ele>
        <time>2019-06-02T11:20:06Z</time>
      </trkpt>
      <trkpt lat="44.54908" lon="6.29153">
        <ele>894.7999878</ele>
        <time>2019-06-02T11:20:07Z</time>
      </trkpt>
      <trkpt lat="44.54899" lon="6.29155">
        <ele>894.5999756</ele>
        <time>2019-06-02T11:20:08Z</time>
      </trkpt>
      <trkpt lat="44.54844" lon="6.29165">
        <ele>891.2000122</ele>
        <time>2019-06-02T11:20:14Z</time>
      </trkpt>
      <trkpt lat="44.54781" lon="6.29161">
        <ele>888</ele>
        <time>2019-06-02T11:20:20Z</time>
      </trkpt>
      <trkpt lat="44.54726" lon="6.29137">
        <ele>884.5999756</ele>
        <time>2019-06-02T11:20:25Z</time>
      </trkpt>
      <trkpt lat="44.5469" lon="6.29117">
        <ele>880.5999756</ele>
        <time>2019-06-02T11:20:29Z</time>
      </trkpt>
      <trkpt lat="44.54674" lon="6.29106">
        <ele>878</ele>
        <time>2019-06-02T11:20:31Z</time>
      </trkpt>
      <trkpt lat="44.54667" lon="6.29099">
        <ele>876.4000244</ele>
        <time>2019-06-02T11:20:32Z</time>
      </trkpt>
      <trkpt lat="44.54661" lon="6.2909">
        <ele>875.4000244</ele>
        <time>2019-06-02T11:20:33Z</time>
      </trkpt>
      <trkpt lat="44.54655" lon="6.29079">
        <ele>874.5999756</ele>
        <time>2019-06-02T11:20:34Z</time>
      </trkpt>
      <trkpt lat="44.5465" lon="6.29067">
        <ele>874.2000122</ele>
        <time>2019-06-02T11:20:35Z</time>
      </trkpt>
      <trkpt lat="44.54645" lon="6.29055">
        <ele>873.7999878</ele>
        <time>2019-06-02T11:20:36Z</time>
      </trkpt>
      <trkpt lat="44.54641" lon="6.29041">
        <ele>873.2000122</ele>
        <time>2019-06-02T11:20:37Z</time>
      </trkpt>
      <trkpt lat="44.54618" lon="6.2897">
        <ele>869.5999756</ele>
        <time>2019-06-02T11:20:42Z</time>
      </trkpt>
      <trkpt lat="44.54602" lon="6.28925">
        <ele>866.4000244</ele>
        <time>2019-06-02T11:20:45Z</time>
      </trkpt>
      <trkpt lat="44.54597" lon="6.28913">
        <ele>865.2000122</ele>
        <time>2019-06-02T11:20:46Z</time>
      </trkpt>
      <trkpt lat="44.5459" lon="6.28901">
        <ele>864.2000122</ele>
        <time>2019-06-02T11:20:47Z</time>
      </trkpt>
      <trkpt lat="44.54582" lon="6.28891">
        <ele>862.7999878</ele>
        <time>2019-06-02T11:20:48Z</time>
      </trkpt>
      <trkpt lat="44.54574" lon="6.28882">
        <ele>860.7999878</ele>
        <time>2019-06-02T11:20:49Z</time>
      </trkpt>
      <trkpt lat="44.54565" lon="6.28874">
        <ele>860</ele>
        <time>2019-06-02T11:20:50Z</time>
      </trkpt>
      <trkpt lat="44.54555" lon="6.28868">
        <ele>858.7999878</ele>
        <time>2019-06-02T11:20:51Z</time>
      </trkpt>
      <trkpt lat="44.54545" lon="6.28862">
        <ele>857.5999756</ele>
        <time>2019-06-02T11:20:52Z</time>
      </trkpt>
      <trkpt lat="44.54534" lon="6.28857">
        <ele>856.7999878</ele>
        <time>2019-06-02T11:20:53Z</time>
      </trkpt>
      <trkpt lat="44.54489" lon="6.28841">
        <ele>853.4000244</ele>
        <time>2019-06-02T11:20:57Z</time>
      </trkpt>
      <trkpt lat="44.54431" lon="6.28821">
        <ele>850</ele>
        <time>2019-06-02T11:21:02Z</time>
      </trkpt>
      <trkpt lat="44.54398" lon="6.28809">
        <ele>846.4000244</ele>
        <time>2019-06-02T11:21:05Z</time>
      </trkpt>
      <trkpt lat="44.54361" lon="6.28796">
        <ele>843.2000122</ele>
        <time>2019-06-02T11:21:09Z</time>
      </trkpt>
      <trkpt lat="44.54302" lon="6.28765">
        <ele>840.5999756</ele>
        <time>2019-06-02T11:21:16Z</time>
      </trkpt>
      <trkpt lat="44.54294" lon="6.28757">
        <ele>840.2000122</ele>
        <time>2019-06-02T11:21:17Z</time>
      </trkpt>
      <trkpt lat="44.54286" lon="6.28748">
        <ele>840</ele>
        <time>2019-06-02T11:21:18Z</time>
      </trkpt>
      <trkpt lat="44.54279" lon="6.28737">
        <ele>839.2000122</ele>
        <time>2019-06-02T11:21:19Z</time>
      </trkpt>
      <trkpt lat="44.54274" lon="6.28725">
        <ele>838.5999756</ele>
        <time>2019-06-02T11:21:20Z</time>
      </trkpt>
      <trkpt lat="44.54269" lon="6.28713">
        <ele>838.2000122</ele>
        <time>2019-06-02T11:21:21Z</time>
      </trkpt>
      <trkpt lat="44.54265" lon="6.28699">
        <ele>837.7999878</ele>
        <time>2019-06-02T11:21:22Z</time>
      </trkpt>
      <trkpt lat="44.54263" lon="6.28685">
        <ele>837</ele>
        <time>2019-06-02T11:21:23Z</time>
      </trkpt>
      <trkpt lat="44.5426" lon="6.28671">
        <ele>836.5999756</ele>
        <time>2019-06-02T11:21:24Z</time>
      </trkpt>
      <trkpt lat="44.54259" lon="6.28657">
        <ele>835.7999878</ele>
        <time>2019-06-02T11:21:25Z</time>
      </trkpt>
      <trkpt lat="44.54401" lon="6.27571">
        <ele>802.4000244</ele>
        <time>2019-06-02T11:27:01Z</time>
      </trkpt>
      <trkpt lat="44.5441" lon="6.27554">
        <ele>802.2000122</ele>
        <time>2019-06-02T11:27:22Z</time>
      </trkpt>
      <trkpt lat="44.5443" lon="6.27517">
        <ele>802</ele>
        <time>2019-06-02T11:27:35Z</time>
      </trkpt>
      <trkpt lat="44.54462" lon="6.27492">
        <ele>802.4000244</ele>
        <time>2019-06-02T11:27:47Z</time>
      </trkpt>
      <trkpt lat="44.54495" lon="6.27469">
        <ele>804</ele>
        <time>2019-06-02T11:28:01Z</time>
      </trkpt>
      <trkpt lat="44.54531" lon="6.27458">
        <ele>804.5999756</ele>
        <time>2019-06-02T11:28:16Z</time>
      </trkpt>
      <trkpt lat="44.54534" lon="6.27462">
        <ele>804.4000244</ele>
        <time>2019-06-02T11:28:18Z</time>
      </trkpt>
      <trkpt lat="44.54566" lon="6.27481">
        <ele>802.5999756</ele>
        <time>2019-06-02T11:28:32Z</time>
      </trkpt>
      <trkpt lat="44.54568" lon="6.27479">
        <ele>802.5999756</ele>
        <time>2019-06-02T11:28:33Z</time>
      </trkpt>
      <trkpt lat="44.5457" lon="6.27475">
        <ele>802.5999756</ele>
        <time>2019-06-02T11:28:34Z</time>
      </trkpt>
      <trkpt lat="44.54571" lon="6.27471">
        <ele>802.5999756</ele>
        <time>2019-06-02T11:28:35Z</time>
      </trkpt>
      <trkpt lat="44.54572" lon="6.27467">
        <ele>802.5999756</ele>
        <time>2019-06-02T11:28:36Z</time>
      </trkpt>
      <trkpt lat="44.54574" lon="6.27462">
        <ele>802.5999756</ele>
        <time>2019-06-02T11:28:37Z</time>
      </trkpt>
      <trkpt lat="44.54582" lon="6.27437">
        <ele>802.2000122</ele>
        <time>2019-06-02T11:28:42Z</time>
      </trkpt>
      <trkpt lat="44.54588" lon="6.27421">
        <ele>801.7999878</ele>
        <time>2019-06-02T11:28:45Z</time>
      </trkpt>
      <trkpt lat="44.54622" lon="6.2733">
        <ele>799.4000244</ele>
        <time>2019-06-02T11:29:01Z</time>
      </trkpt>
      <trkpt lat="44.54653" lon="6.27239">
        <ele>797.2000122</ele>
        <time>2019-06-02T11:29:16Z</time>
      </trkpt>
      <trkpt lat="44.54657" lon="6.27216">
        <ele>796.7999878</ele>
        <time>2019-06-02T11:29:20Z</time>
      </trkpt>
      <trkpt lat="44.54656" lon="6.27165">
        <ele>796.4000244</ele>
        <time>2019-06-02T11:29:31Z</time>
      </trkpt>
      <trkpt lat="44.54648" lon="6.27158">
        <ele>796.5999756</ele>
        <time>2019-06-02T11:29:34Z</time>
      </trkpt>
      <trkpt lat="44.54645" lon="6.27157">
        <ele>796.5999756</ele>
        <time>2019-06-02T11:29:35Z</time>
      </trkpt>
      <trkpt lat="44.54622" lon="6.27127">
        <ele>797</ele>
        <time>2019-06-02T11:29:46Z</time>
      </trkpt>
      <trkpt lat="44.54623" lon="6.27111">
        <ele>796.7999878</ele>
        <time>2019-06-02T11:29:49Z</time>
      </trkpt>
      <trkpt lat="44.54625" lon="6.27105">
        <ele>796.7999878</ele>
        <time>2019-06-02T11:29:50Z</time>
      </trkpt>
      <trkpt lat="44.54642" lon="6.27067">
        <ele>795.2000122</ele>
        <time>2019-06-02T11:29:59Z</time>
      </trkpt>
      <trkpt lat="44.54644" lon="6.27067">
        <ele>795.2000122</ele>
        <time>2019-06-02T11:30:00Z</time>
      </trkpt>
      <trkpt lat="44.54647" lon="6.27067">
        <ele>795.2000122</ele>
        <time>2019-06-02T11:30:01Z</time>
      </trkpt>
      <trkpt lat="44.5465" lon="6.27068">
        <ele>795</ele>
        <time>2019-06-02T11:30:02Z</time>
      </trkpt>
      <trkpt lat="44.54653" lon="6.2707">
        <ele>795</ele>
        <time>2019-06-02T11:30:03Z</time>
      </trkpt>
      <trkpt lat="44.54663" lon="6.2708">
        <ele>795</ele>
        <time>2019-06-02T11:30:07Z</time>
      </trkpt>
      <trkpt lat="44.54668" lon="6.27081">
        <ele>795.2000122</ele>
        <time>2019-06-02T11:30:20Z</time>
      </trkpt>
      <trkpt lat="44.54668" lon="6.27081">
        <ele>795.7999878</ele>
        <time>2019-06-02T11:30:33Z</time>
      </trkpt>
    </trkseg>
  </trk>
</gpx>